[[{"header":{"parameterUnit":"m.s-1","parameterCategory":1,"la1":31.0,"la2":29.5877,"lo1":-88.7671,"lo2":-86.6584,"dy":0.0162,"dx":0.0185,"nx":115,"ny":88,"refTime":"2023-11-22T06:00:00:Z","depth":0,"parameterNumber":2,"parameterNumberName":"U-component_of_WINDS"},"data":[0.0,0.0,0.0,0.0,0.0,0.0,0.0,0.0,0.0,0.0,0.0,0.0,0.0,0.0,0.0,0.0,0.0,0.0,0.0,0.0,0.0,0.0,0.0,0.0,0.0,0.0,0.0,0.0,0.0,0.0,0.0,0.0,0.0,0.0,0.0,0.0,0.0,0.0,0.0,0.0,0.0,0.0,0.0,0.0,0.0,0.0,0.0,0.0,0.0,0.0,0.0,0.0,0.0,0.0,0.0,0.0,0.0,0.0,0.0,0.0,0.0,0.0,0.0,0.0,0.0,0.0,0.0,0.0,0.0,0.0,0.0,0.0,0.0,0.0,0.0,0.0,0.0,0.0,0.0,0.0,0.0,0.0,0.0,0.0,0.0,0.0,0.0,0.0,0.0,0.0,0.0,0.0,0.0,0.0,0.0,0.0,0.0,0.0,0.0,0.0,0.0,0.0,0.0,0.0,0.0,0.0,0.0,0.0,0.0,0.0,0.0,0.0,0.0,0.0,0.0,0.0,0.0,0.0,0.0,0.0,0.0,0.0,0.0,0.0,0.0,0.0,0.0,0.0,0.0,0.0,0.0,0.0,0.0,0.0,0.0,0.0,0.0,0.0,0.0,0.0,0.0,0.0,0.0,0.0,0.0,0.0,0.0,0.0,0.0,0.0,0.0,0.0,0.0,0.0,0.0,0.0,0.0,0.0,0.0,0.0,0.0,0.0,0.0,0.0,0.0,0.0,0.0,0.0,0.0,0.0,0.0,0.0,0.0,0.0,0.0,0.0,0.0,0.0,0.0,0.0,0.0,0.0,0.0,0.0,0.0,0.0,0.0,0.0,0.0,0.0,0.0,0.0,0.0,0.0,0.0,0.0,0.0,0.0,0.0,0.0,0.0,0.0,0.0,0.0,0.0,0.0,0.0,0.0,0.0,0.0,0.0,0.0,0.0,0.0,0.0,0.0,0.0,0.0,0.0,0.0,0.0,0.0,0.0,0.0,0.0,0.0,0.0,0.0,0.0,0.0,0.0,0.0,0.0,0.0,0.0,0.0,0.0,0.0,0.0,0.0,0.0,0.0,0.0,0.0,0.0,0.0,0.0,0.0,0.0,0.0,0.0,0.0,0.0,0.0,0.0,0.0,0.0,0.0,0.0,0.0,0.0,0.0,0.0,0.0,0.0,0.0,0.0,0.0,0.0,0.0,0.0,0.0,0.0,0.0,0.0,0.0,0.0,0.0,0.0,0.0,0.0,0.0,0.0,0.0,0.0,0.0,0.0,0.0,0.0,0.0,0.0,0.0,0.0,0.0,0.0,0.0,0.0,0.0,0.0,0.0,0.0,0.0,0.0,0.0,0.0,0.0,0.0,0.0,0.0,0.0,0.0,0.0,0.0,0.0,0.0,0.0,0.0,0.0,0.0,0.0,0.0,0.0,0.0,0.0,0.0,0.0,0.0,0.0,0.0,0.0,0.0,0.0,0.0,0.0,0.0,0.0,0.0,0.0,0.0,0.0,0.0,0.0,0.0,0.0,0.0,0.0,0.0,0.0,0.0,0.0,0.0,0.0,0.0,0.0,0.0,0.0,0.0,0.0,0.0,0.0,0.0,0.0,0.0,0.0,0.0,0.0,0.0,0.0,0.0,0.0,0.0,0.0,0.0,0.0,0.0,0.0,0.0,0.0,0.0,0.0,0.0,0.0,0.0,0.0,0.0,0.0,0.0,0.0,0.0,0.0,0.0,0.0,0.0,0.0,0.0,0.0,0.0,0.0,0.0,0.0,0.0,0.0,0.0,0.0,0.0,0.0,0.0,0.0,0.0,0.0,0.0,0.0,0.0,0.0,0.0,0.0,0.0,0.0,0.0,0.0,0.0,0.0,0.0,0.0,0.0,0.0,0.0,0.0,0.0,0.0,0.0,0.0,0.0,0.0,0.0,0.0,0.0,0.0,0.0,0.0,0.0,0.0,0.0,0.0,0.0,0.0,0.0,0.0,0.0,0.0,0.0,0.0,0.0,0.0,0.0,0.0,0.0,0.0,0.0,0.0,0.0,0.0,0.0,0.0,0.0,0.0,0.0,0.0,0.0,0.0,0.0,0.0,0.0,0.0,0.0,0.0,0.0,0.0,0.0,0.0,0.0,0.0,0.0,0.0,0.0,0.0,0.0,0.0,0.0,0.0,0.0,0.0,0.0,0.0,0.0,0.0,0.0,0.0,0.0,0.0,0.0,0.0,0.0,0.0,0.0,0.0,0.0,0.0,0.0,0.0,0.0,0.0,0.0,0.0,0.0,0.0,0.0,0.0,0.0,0.0,0.0,0.0,0.0,0.0,0.0,0.0,0.0,0.0,0.0,0.0,0.0,0.0,0.0,0.0,0.0,0.0,0.0,0.0,0.0,0.0,0.0,0.0,0.0,0.0,0.0,0.0,0.0,0.0,0.0,0.0,0.0,0.0,0.0,0.0,0.0,0.0,0.0,0.0,0.0,0.0,0.0,0.0,0.0,0.0,0.0,0.0,0.0,0.0,0.0,0.0,0.0,0.0,0.0,0.0,0.0,0.0,0.0,0.0,0.0,0.0,0.0,0.0,0.0,0.0,0.0,0.0,0.0,0.0,0.0,0.0,0.0,0.0,0.0,0.0,0.0,0.0,0.0,0.0,0.0,0.0,0.0,0.0,0.0,0.0,0.0,0.0,0.0,0.0,0.0,0.0,0.0,0.0,0.0,0.0,0.0,0.0,0.0,0.0,0.0,0.0,0.0,0.0,0.0,0.0,0.0,0.0,0.0,0.0,0.0,0.0,0.0,0.0,0.0,0.0,0.0,0.0,0.0,0.0,0.0,0.0,0.0,0.0,0.0,0.0,0.0,0.0,0.0,0.0,0.0,0.0,0.0,0.0,0.0,0.0,0.0,0.0,0.0,0.0,0.0,0.0,0.0,0.0,0.0,0.0,0.0,0.0,0.0,0.0,0.0,0.0,0.0,0.0,0.0,0.0,0.0,0.0,0.0,0.0,0.0,0.0,0.0,0.0,0.0,0.0,0.0,0.0,0.0,0.0,0.0,0.0,0.0,0.0,0.0,0.0,0.0,0.0,0.0,0.0,0.0,0.0,0.0,0.0,0.0,0.0,0.0,0.0,0.0,0.0,0.0,0.0,0.0,0.0,0.0,0.0,0.0,0.0,0.0,0.0,0.0,0.0,0.0,0.0,0.0,0.0,0.0,0.0,0.0,0.0,0.0,0.0,0.0,0.0,0.0,0.0,0.0,0.0,0.0,0.0,0.0,0.0,0.0,0.0,0.0,0.0,0.0,0.0,0.0,0.0,0.0,0.0,0.0,0.0,0.0,0.0,0.0,0.0,0.0,0.0,0.0,0.0,0.0,0.0,0.0,0.0,0.0,0.0,0.0,0.0,0.0,0.0,0.0,0.0,0.0,0.0,0.0,0.0,0.0,0.0,0.0,0.0,0.0,0.0,0.0,0.0,0.0,0.0,0.0,0.0,0.0,0.0,0.0,0.0,0.0,0.0,0.0,0.0,0.0,0.0,0.0,0.0,0.0,0.0,0.0,0.0,0.0,0.0,0.0,0.0,0.0,0.0,0.0,0.0,0.0,0.0,0.0,0.0,0.0,0.0,0.0,0.0,0.0,0.0,0.0,0.0,0.0,0.0,0.0,0.0,0.0,0.0,0.0,0.0,0.0,0.0,0.0,0.0,0.0,0.0,0.0,0.0,0.0,0.0,0.0,0.0,0.0,0.0,0.0,0.0,0.0,0.0,0.0,0.0,0.0,0.0,0.0,0.0,0.0,0.0,0.0,0.0,0.0,0.0,0.0,0.0,0.0,0.0,0.0,0.0,0.0,0.0,0.0,0.0,0.0,0.0,0.0,0.0,0.0,0.0,0.0,0.0,0.0,0.0,0.0,0.0,0.0,0.0,0.0,0.0,0.0,0.0,0.0,0.0,0.0,0.0,0.0,0.0,0.0,0.0,0.0,0.0,0.0,0.0,0.0,0.0,0.0,0.0,0.0,0.0,0.0,0.0,0.0,0.0,0.0,0.0,0.0,0.0,0.0,0.0,0.0,0.0,0.0,0.0,0.0,0.0,0.0,0.0,0.0,0.0,0.0,0.0,0.0,0.0,0.0,0.0,0.0,0.0,0.0,0.0,0.0,0.0,0.0,0.0,0.0,0.0,0.0,0.0,0.0,0.0,0.0,0.0,0.0,0.0,0.0,0.0,0.0,0.0,0.0,0.0,0.0,0.0,0.0,0.0,0.0,0.0,0.0,0.0,2.5567,0.0,0.0,0.0,0.0,0.0,0.0,0.0,0.0,0.0,0.0,0.0,0.0,0.0,0.0,0.0,0.0,0.0,0.0,0.0,0.0,0.0,0.0,0.0,0.0,0.0,0.0,0.0,0.0,0.0,0.0,0.0,0.0,0.0,0.0,0.0,0.0,0.0,0.0,0.0,0.0,0.0,0.0,0.0,0.0,0.0,0.0,0.0,0.0,0.0,0.0,0.0,0.0,0.0,0.0,0.0,0.0,0.0,0.0,0.0,0.0,0.0,0.0,0.0,0.0,0.0,0.0,0.0,0.0,0.0,0.0,0.0,0.0,0.0,0.0,0.0,0.0,0.0,0.0,0.0,0.0,0.0,0.0,0.0,0.0,0.0,0.0,0.0,0.0,0.0,0.0,0.0,0.0,0.0,0.0,0.0,0.0,0.0,0.0,0.0,0.0,0.0,0.0,0.0,0.0,0.0,0.0,0.0,0.0,0.0,0.0,2.6317,2.5567,2.6729,2.6805,2.5567,0.0,0.0,0.0,0.0,0.0,0.0,0.0,0.0,0.0,0.0,0.0,0.0,0.0,0.0,0.0,0.0,0.0,0.0,0.0,0.0,0.0,0.0,0.0,0.0,0.0,0.0,0.0,0.0,0.0,0.0,0.0,0.0,0.0,0.0,0.0,0.0,0.0,0.0,0.0,0.0,0.0,0.0,0.0,0.0,0.0,0.0,0.0,0.0,0.0,0.0,0.0,0.0,0.0,0.0,0.0,0.0,0.0,0.0,0.0,0.0,0.0,0.0,0.0,0.0,0.0,0.0,0.0,0.0,0.0,0.0,0.0,0.0,0.0,0.0,0.0,0.0,0.0,0.0,0.0,0.0,0.0,0.0,0.0,0.0,0.0,0.0,0.0,0.0,0.0,0.0,0.0,0.0,0.0,0.0,0.0,0.0,0.0,0.0,0.0,0.0,0.0,0.0,0.0,0.0,0.0,0.0,0.0,0.0,0.0,0.0,0.0,0.0,2.7621,2.7701,2.642,0.0,0.0,0.0,0.0,0.0,0.0,0.0,0.0,0.0,0.0,0.0,0.0,0.0,0.0,0.0,0.0,0.0,0.0,0.0,0.0,0.0,0.0,0.0,0.0,0.0,0.0,0.0,0.0,0.0,0.0,0.0,0.0,0.0,0.0,0.0,0.0,0.0,0.0,0.0,0.0,0.0,0.0,0.0,0.0,0.0,0.0,0.0,0.0,0.0,0.0,0.0,0.0,0.0,0.0,0.0,0.0,0.0,0.0,0.0,0.0,0.0,0.0,0.0,0.0,0.0,0.0,0.0,0.0,0.0,0.0,0.0,0.0,0.0,0.0,0.0,0.0,0.0,0.0,0.0,0.0,0.0,0.0,0.0,0.0,0.0,0.0,0.0,0.0,0.0,0.0,0.0,0.0,0.0,0.0,0.0,0.0,0.0,0.0,0.0,0.0,0.0,0.0,0.0,0.0,0.0,0.0,0.0,0.0,0.0,0.0,2.6669,2.8876,2.9091,0.0,2.8876,0.0,0.0,0.0,0.0,0.0,0.0,0.0,0.0,0.0,0.0,0.0,0.0,0.0,0.0,0.0,0.0,0.0,0.0,0.0,0.0,0.0,0.0,0.0,0.0,0.0,0.0,0.0,0.0,0.0,0.0,0.0,0.0,0.0,0.0,0.0,0.0,0.0,0.0,0.0,0.0,0.0,0.0,0.0,0.0,0.0,0.0,0.0,0.0,0.0,0.0,0.0,0.0,0.0,0.0,0.0,0.0,0.0,0.0,0.0,0.0,0.0,0.0,0.0,0.0,0.0,0.0,0.0,0.0,0.0,0.0,0.0,0.0,0.0,0.0,0.0,0.0,0.0,0.0,0.0,0.0,0.0,0.0,0.0,0.0,0.0,0.0,0.0,0.0,0.0,0.0,0.0,0.0,0.0,0.0,0.0,0.0,0.0,0.0,0.0,0.0,0.0,0.0,0.0,0.0,0.0,0.0,0.0,0.0,0.0,0.0,2.6959,2.8492,2.8533,2.8279,0.0,0.0,0.0,0.0,0.0,0.0,0.0,0.0,0.0,0.0,0.0,0.0,0.0,0.0,0.0,0.0,0.0,0.0,0.0,0.0,0.0,0.0,0.0,0.0,0.0,0.0,0.0,0.0,0.0,0.0,0.0,0.0,0.0,0.0,0.0,0.0,0.0,0.0,0.0,0.0,0.0,0.0,0.0,0.0,0.0,0.0,0.0,0.0,0.0,0.0,0.0,0.0,0.0,0.0,0.0,0.0,0.0,0.0,0.0,0.0,0.0,0.0,0.0,0.0,0.0,0.0,0.0,0.0,0.0,0.0,0.0,0.0,0.0,0.0,0.0,0.0,0.0,0.0,0.0,0.0,0.0,0.0,0.0,0.0,0.0,0.0,0.0,0.0,0.0,0.0,0.0,0.0,0.0,0.0,0.0,0.0,0.0,0.0,0.0,0.0,0.0,0.0,0.0,0.0,0.0,0.0,0.0,0.0,0.0,0.0,2.7003,2.7651,2.8915,2.8358,2.7815,2.7421,0.0,0.0,0.0,0.0,0.0,0.0,0.0,0.0,0.0,0.0,0.0,0.0,0.0,0.0,0.0,0.0,0.0,0.0,0.0,0.0,0.0,0.0,0.0,0.0,0.0,0.0,0.0,0.0,0.0,0.0,0.0,0.0,0.0,0.0,0.0,0.0,0.0,0.0,0.0,0.0,0.0,0.0,0.0,0.0,0.0,0.0,0.0,0.0,0.0,0.0,0.0,0.0,0.0,0.0,0.0,0.0,0.0,0.0,0.0,0.0,0.0,0.0,0.0,0.0,0.0,0.0,0.0,0.0,0.0,0.0,0.0,0.0,0.0,0.0,0.0,0.0,0.0,0.0,0.0,0.0,0.0,0.0,0.0,0.0,0.0,0.0,0.0,0.0,0.0,0.0,0.0,0.0,0.0,0.0,0.0,0.0,0.0,0.0,0.0,0.0,0.0,0.0,0.0,0.0,0.0,0.0,0.0,0.0,3.0745,2.8864,2.8984,3.14,2.9285,2.8378,0.0,0.0,0.0,0.0,0.0,0.0,0.0,0.0,0.0,0.0,0.0,0.0,0.0,0.0,0.0,0.0,0.0,0.0,0.0,0.0,0.0,0.0,0.0,0.0,0.0,0.0,0.0,0.0,0.0,0.0,0.0,0.0,0.0,0.0,0.0,0.0,0.0,0.0,0.0,0.0,0.0,0.0,0.0,0.0,0.0,0.0,0.0,0.0,0.0,0.0,0.0,0.0,0.0,0.0,0.0,0.0,0.0,0.0,0.0,0.0,0.0,0.0,0.0,0.0,0.0,0.0,0.0,0.0,0.0,0.0,0.0,0.0,0.0,0.0,0.0,0.0,0.0,0.0,0.0,0.0,0.0,0.0,0.0,0.0,0.0,0.0,0.0,0.0,0.0,0.0,0.0,0.0,0.0,0.0,0.0,0.0,0.0,0.0,0.0,0.0,0.0,0.0,0.0,0.0,0.0,0.0,0.0,0.0,0.0,2.715,2.7523,2.8694,3.0667,2.8897,2.828,0.0,0.0,0.0,0.0,0.0,0.0,0.0,0.0,0.0,0.0,0.0,0.0,0.0,0.0,0.0,0.0,0.0,0.0,0.0,0.0,0.0,0.0,0.0,0.0,0.0,0.0,0.0,0.0,0.0,0.0,0.0,0.0,0.0,0.0,0.0,0.0,0.0,0.0,0.0,0.0,0.0,0.0,0.0,0.0,0.0,0.0,0.0,0.0,0.0,0.0,0.0,0.0,0.0,0.0,0.0,0.0,0.0,0.0,0.0,0.0,0.0,0.0,0.0,0.0,0.0,0.0,0.0,0.0,0.0,0.0,0.0,0.0,0.0,0.0,0.0,0.0,0.0,0.0,0.0,0.0,0.0,0.0,0.0,0.0,0.0,0.0,0.0,0.0,0.0,0.0,0.0,0.0,0.0,0.0,0.0,0.0,0.0,0.0,0.0,0.0,0.0,0.0,0.0,0.0,0.0,0.0,0.0,0.0,0.0,2.6508,0.0,2.949,3.0129,2.8868,2.8019,0.0,0.0,0.0,0.0,0.0,0.0,0.0,0.0,0.0,0.0,0.0,0.0,0.0,0.0,0.0,0.0,0.0,0.0,0.0,0.0,0.0,0.0,0.0,0.0,0.0,0.0,0.0,0.0,0.0,0.0,0.0,0.0,0.0,0.0,0.0,0.0,0.0,0.0,0.0,0.0,0.0,0.0,0.0,0.0,0.0,0.0,0.0,0.0,0.0,0.0,0.0,0.0,0.0,0.0,0.0,0.0,0.0,0.0,0.0,0.0,0.0,0.0,0.0,0.0,0.0,0.0,0.0,0.0,0.0,0.0,0.0,0.0,0.0,0.0,0.0,0.0,0.0,0.0,0.0,0.0,0.0,0.0,0.0,0.0,0.0,0.0,0.0,0.0,0.0,0.0,0.0,0.0,0.0,0.0,0.0,0.0,0.0,0.0,0.0,0.0,0.0,0.0,0.0,0.0,0.0,0.0,0.0,0.0,2.6389,2.9644,3.1244,3.133,3.0155,2.9216,2.7704,0.0,0.0,0.0,0.0,0.0,0.0,0.0,0.0,0.0,0.0,0.0,0.0,0.0,0.0,0.0,0.0,0.0,0.0,0.0,0.0,0.0,0.0,0.0,0.0,0.0,0.0,0.0,0.0,0.0,0.0,0.0,0.0,0.0,0.0,0.0,0.0,0.0,0.0,0.0,0.0,0.0,0.0,0.0,0.0,0.0,0.0,0.0,0.0,0.0,0.0,0.0,0.0,0.0,0.0,0.0,0.0,0.0,0.0,0.0,0.0,0.0,0.0,0.0,0.0,0.0,0.0,0.0,0.0,0.0,0.0,0.0,0.0,0.0,0.0,0.0,0.0,0.0,0.0,0.0,0.0,0.0,0.0,0.0,0.0,0.0,0.0,0.0,0.0,0.0,0.0,0.0,0.0,0.0,0.0,0.0,0.0,0.0,0.0,0.0,0.0,0.0,0.0,0.0,0.0,0.0,0.0,0.0,0.0,0.0,2.7294,2.8804,2.9986,3.0673,2.886,2.8024,0.0,0.0,0.0,0.0,0.0,0.0,0.0,0.0,0.0,0.0,0.0,0.0,0.0,0.0,0.0,0.0,0.0,0.0,0.0,0.0,0.0,0.0,0.0,0.0,0.0,0.0,0.0,0.0,0.0,0.0,0.0,0.0,0.0,0.0,0.0,0.0,0.0,0.0,0.0,0.0,0.0,0.0,0.0,0.0,0.0,0.0,0.0,0.0,0.0,0.0,0.0,0.0,0.0,0.0,0.0,0.0,0.0,0.0,0.0,0.0,0.0,0.0,0.0,0.0,0.0,0.0,0.0,0.0,0.0,0.0,0.0,0.0,0.0,0.0,0.0,0.0,0.0,0.0,0.0,0.0,0.0,0.0,0.0,0.0,0.0,0.0,0.0,0.0,0.0,0.0,0.0,0.0,0.0,0.0,0.0,0.0,0.0,0.0,0.0,0.0,0.0,0.0,0.0,0.0,0.0,0.0,0.0,0.0,0.0,2.7068,2.9127,3.049,3.103,2.9236,2.8325,2.8418,0.0,0.0,0.0,0.0,0.0,0.0,0.0,0.0,0.0,0.0,0.0,0.0,0.0,0.0,0.0,0.0,0.0,0.0,0.0,0.0,0.0,0.0,0.0,0.0,0.0,0.0,0.0,0.0,0.0,0.0,0.0,0.0,0.0,0.0,0.0,0.0,0.0,0.0,0.0,0.0,0.0,0.0,0.0,0.0,0.0,0.0,0.0,0.0,0.0,0.0,0.0,0.0,0.0,0.0,0.0,0.0,0.0,0.0,0.0,0.0,0.0,0.0,0.0,0.0,0.0,0.0,0.0,0.0,0.0,0.0,0.0,0.0,0.0,0.0,0.0,0.0,0.0,0.0,0.0,0.0,0.0,0.0,0.0,0.0,0.0,0.0,0.0,0.0,0.0,0.0,0.0,0.0,0.0,0.0,0.0,0.0,0.0,0.0,0.0,0.0,0.0,0.0,0.0,0.0,0.0,0.0,0.0,0.0,2.8468,3.1607,3.2456,3.0936,3.0039,2.8551,0.0,0.0,0.0,0.0,0.0,0.0,0.0,0.0,0.0,0.0,0.0,0.0,0.0,0.0,0.0,0.0,0.0,0.0,0.0,0.0,0.0,0.0,0.0,0.0,0.0,0.0,0.0,0.0,0.0,0.0,0.0,0.0,0.0,0.0,0.0,0.0,0.0,0.0,0.0,0.0,0.0,0.0,0.0,0.0,0.0,0.0,0.0,0.0,0.0,0.0,0.0,0.0,0.0,0.0,0.0,0.0,0.0,0.0,0.0,0.0,0.0,0.0,0.0,0.0,0.0,0.0,0.0,0.0,0.0,0.0,0.0,0.0,0.0,0.0,0.0,0.0,0.0,0.0,0.0,0.0,0.0,0.0,0.0,0.0,0.0,0.0,0.0,0.0,0.0,0.0,0.0,0.0,0.0,0.0,0.0,0.0,0.0,0.0,0.0,0.0,0.0,0.0,0.0,0.0,0.0,0.0,0.0,0.0,0.0,2.9345,3.0804,3.1344,3.0875,2.9486,2.8452,0.0,0.0,0.0,0.0,0.0,0.0,0.0,0.0,0.0,0.0,0.0,0.0,0.0,0.0,0.0,0.0,0.0,0.0,0.0,0.0,0.0,0.0,0.0,0.0,0.0,0.0,0.0,0.0,0.0,0.0,0.0,0.0,0.0,0.0,0.0,0.0,0.0,0.0,0.0,0.0,0.0,0.0,0.0,0.0,0.0,0.0,0.0,0.0,0.0,0.0,0.0,0.0,0.0,0.0,0.0,0.0,0.0,0.0,0.0,0.0,0.0,0.0,0.0,0.0,0.0,0.0,0.0,0.0,0.0,0.0,0.0,0.0,0.0,0.0,0.0,0.0,0.0,0.0,0.0,0.0,0.0,0.0,0.0,0.0,0.0,0.0,0.0,0.0,0.0,0.0,0.0,0.0,0.0,0.0,0.0,0.0,0.0,0.0,0.0,0.0,0.0,0.0,0.0,0.0,0.0,0.0,0.0,0.0,2.8012,2.9664,3.0152,3.0391,3.0396,2.9453,2.8608,0.0,0.0,0.0,0.0,0.0,0.0,0.0,0.0,0.0,0.0,0.0,0.0,0.0,0.0,0.0,0.0,0.0,0.0,0.0,0.0,0.0,0.0,0.0,0.0,0.0,0.0,0.0,0.0,0.0,0.0,0.0,0.0,0.0,0.0,0.0,0.0,0.0,0.0,0.0,0.0,0.0,0.0,0.0,0.0,0.0,0.0,0.0,0.0,0.0,0.0,0.0,0.0,0.0,0.0,0.0,0.0,0.0,0.0,0.0,0.0,0.0,0.0,0.0,0.0,0.0,0.0,0.0,0.0,0.0,0.0,0.0,0.0,0.0,0.0,0.0,0.0,0.0,0.0,0.0,0.0,0.0,0.0,0.0,0.0,0.0,0.0,0.0,0.0,0.0,0.0,0.0,0.0,0.0,0.0,0.0,0.0,0.0,0.0,0.0,0.0,0.0,0.0,0.0,0.0,0.0,0.0,0.0,0.0,2.8074,2.965,2.9701,2.9701,2.9701,2.9608,2.8819,0.0,0.0,0.0,0.0,0.0,0.0,0.0,0.0,0.0,0.0,0.0,0.0,0.0,0.0,0.0,0.0,0.0,0.0,0.0,0.0,0.0,0.0,0.0,0.0,0.0,0.0,0.0,0.0,0.0,0.0,0.0,0.0,0.0,0.0,0.0,0.0,0.0,0.0,0.0,0.0,0.0,0.0,0.0,0.0,0.0,0.0,0.0,0.0,0.0,0.0,0.0,0.0,0.0,0.0,0.0,0.0,0.0,0.0,0.0,0.0,0.0,0.0,0.0,0.0,0.0,0.0,0.0,0.0,0.0,0.0,0.0,0.0,0.0,0.0,0.0,0.0,0.0,0.0,0.0,0.0,0.0,0.0,0.0,0.0,0.0,0.0,0.0,0.0,0.0,0.0,0.0,0.0,0.0,0.0,0.0,0.0,0.0,0.0,0.0,0.0,0.0,0.0,0.0,0.0,0.0,0.0,0.0,0.0,2.8535,2.9659,2.9701,2.9701,2.9687,2.904,2.8209,0.0,0.0,0.0,0.0,0.0,0.0,0.0,0.0,0.0,0.0,0.0,0.0,0.0,0.0,0.0,0.0,0.0,0.0,0.0,0.0,0.0,0.0,0.0,0.0,0.0,0.0,0.0,0.0,0.0,0.0,0.0,0.0,0.0,0.0,0.0,0.0,0.0,0.0,0.0,0.0,0.0,0.0,0.0,0.0,0.0,0.0,0.0,0.0,2.8283,0.0,0.0,0.0,0.0,0.0,0.0,0.0,0.0,0.0,0.0,0.0,0.0,0.0,0.0,0.0,0.0,0.0,0.0,0.0,0.0,0.0,0.0,0.0,0.0,0.0,0.0,0.0,0.0,0.0,0.0,0.0,0.0,0.0,0.0,0.0,0.0,0.0,0.0,0.0,0.0,0.0,0.0,0.0,0.0,0.0,0.0,0.0,0.0,0.0,0.0,0.0,0.0,0.0,0.0,0.0,0.0,0.0,0.0,0.0,2.8535,2.9513,2.9574,2.9607,2.9687,2.9265,2.8439,0.0,0.0,0.0,0.0,0.0,0.0,0.0,0.0,0.0,0.0,0.0,0.0,0.0,0.0,0.0,0.0,0.0,0.0,0.0,0.0,0.0,0.0,0.0,0.0,0.0,0.0,0.0,0.0,0.0,0.0,0.0,0.0,0.0,0.0,0.0,0.0,0.0,0.0,0.0,0.0,0.0,0.0,0.0,0.0,0.0,0.0,0.0,0.0,0.0,0.0,0.0,0.0,0.0,0.0,0.0,0.0,0.0,0.0,0.0,0.0,0.0,0.0,0.0,0.0,0.0,0.0,0.0,0.0,0.0,0.0,0.0,0.0,0.0,0.0,0.0,0.0,0.0,0.0,0.0,0.0,0.0,0.0,0.0,0.0,0.0,0.0,0.0,0.0,0.0,0.0,0.0,0.0,0.0,0.0,0.0,0.0,0.0,0.0,0.0,0.0,0.0,0.0,0.0,0.0,0.0,0.0,0.0,2.7632,2.83,2.9138,2.9186,2.9275,2.9429,2.9476,2.8754,2.7226,0.0,0.0,0.0,0.0,0.0,0.0,0.0,0.0,0.0,0.0,0.0,0.0,0.0,0.0,0.0,0.0,0.0,0.0,0.0,0.0,0.0,0.0,0.0,0.0,0.0,0.0,0.0,0.0,0.0,0.0,0.0,0.0,0.0,0.0,0.0,0.0,0.0,0.0,2.6424,2.8051,0.0,0.0,0.0,0.0,0.0,0.0,0.0,0.0,2.9697,0.0,0.0,0.0,0.0,0.0,0.0,0.0,0.0,0.0,0.0,0.0,0.0,0.0,0.0,0.0,0.0,0.0,0.0,0.0,0.0,0.0,0.0,0.0,0.0,0.0,0.0,0.0,0.0,0.0,0.0,0.0,0.0,0.0,0.0,0.0,0.0,0.0,0.0,0.0,0.0,0.0,0.0,0.0,0.0,0.0,0.0,0.0,0.0,0.0,0.0,0.0,0.0,0.0,0.0,0.0,0.0,2.9326,2.8296,2.791,2.8223,2.8233,2.8249,2.828,2.8378,2.797,2.7023,0.0,0.0,0.0,0.0,0.0,0.0,0.0,0.0,0.0,0.0,0.0,0.0,0.0,0.0,0.0,0.0,0.0,0.0,0.0,0.0,0.0,0.0,0.0,0.0,0.0,0.0,0.0,0.0,0.0,0.0,0.0,0.0,0.0,0.0,0.0,0.0,0.0,0.0,0.0,3.0611,3.1499,0.0,0.0,0.0,0.0,0.0,0.0,0.0,0.0,3.1062,0.0,0.0,0.0,0.0,0.0,0.0,0.0,0.0,0.0,0.0,0.0,0.0,0.0,0.0,0.0,0.0,0.0,0.0,0.0,0.0,0.0,0.0,0.0,0.0,0.0,0.0,0.0,0.0,0.0,0.0,0.0,0.0,0.0,0.0,0.0,0.0,0.0,0.0,0.0,0.0,0.0,0.0,0.0,0.0,0.0,0.0,0.0,0.0,0.0,0.0,0.0,0.0,0.0,0.0,0.0,2.7684,2.7538,2.7536,2.7719,2.741,2.7495,2.8066,2.7704,2.7354,0.0,0.0,0.0,0.0,0.0,0.0,0.0,0.0,0.0,0.0,0.0,0.0,0.0,0.0,0.0,0.0,0.0,0.0,0.0,0.0,0.0,0.0,0.0,0.0,0.0,0.0,0.0,0.0,0.0,0.0,0.0,0.0,0.0,0.0,0.0,0.0,0.0,0.0,0.0,0.0,3.0739,3.1756,3.2269,0.0,0.0,0.0,0.0,0.0,0.0,3.1816,3.1852,0.0,0.0,0.0,0.0,0.0,0.0,0.0,0.0,0.0,0.0,0.0,0.0,0.0,0.0,0.0,0.0,0.0,0.0,0.0,0.0,0.0,0.0,0.0,0.0,0.0,0.0,0.0,0.0,0.0,0.0,0.0,0.0,0.0,0.0,0.0,0.0,0.0,0.0,0.0,0.0,0.0,0.0,0.0,0.0,0.0,0.0,0.0,0.0,0.0,0.0,0.0,0.0,0.0,0.0,0.0,2.6048,2.6597,2.6909,2.6928,2.6424,2.6686,2.7714,2.6932,2.6682,0.0,0.0,0.0,0.0,0.0,0.0,0.0,0.0,0.0,0.0,0.0,0.0,0.0,0.0,0.0,0.0,0.0,0.0,0.0,0.0,0.0,0.0,0.0,0.0,0.0,0.0,0.0,0.0,0.0,0.0,0.0,0.0,0.0,0.0,0.0,0.0,0.0,0.0,0.0,0.0,0.0,3.2052,3.2799,3.2835,0.0,0.0,0.0,0.0,3.1245,3.2447,0.0,0.0,0.0,0.0,0.0,0.0,0.0,0.0,0.0,0.0,0.0,0.0,0.0,0.0,0.0,0.0,0.0,0.0,0.0,0.0,0.0,0.0,0.0,0.0,0.0,0.0,0.0,0.0,0.0,0.0,0.0,0.0,0.0,0.0,0.0,0.0,0.0,0.0,0.0,0.0,0.0,0.0,0.0,0.0,0.0,0.0,0.0,0.0,0.0,0.0,0.0,0.0,0.0,0.0,0.0,0.0,2.6632,2.6213,2.5672,2.5058,2.5067,2.549,2.6319,2.5781,2.5864,0.0,0.0,0.0,0.0,0.0,0.0,0.0,0.0,0.0,0.0,0.0,0.0,0.0,0.0,0.0,0.0,0.0,0.0,0.0,0.0,0.0,0.0,0.0,0.0,0.0,0.0,0.0,0.0,0.0,0.0,0.0,0.0,0.0,0.0,0.0,0.0,0.0,0.0,0.0,0.0,0.0,3.379,3.1288,3.2777,3.3596,0.0,0.0,3.3701,3.4412,3.5302,0.0,0.0,0.0,0.0,0.0,0.0,0.0,0.0,0.0,0.0,0.0,0.0,0.0,0.0,0.0,0.0,0.0,0.0,0.0,0.0,0.0,0.0,0.0,0.0,0.0,0.0,0.0,0.0,0.0,0.0,0.0,0.0,0.0,0.0,0.0,0.0,0.0,0.0,0.0,0.0,0.0,0.0,0.0,0.0,0.0,0.0,0.0,0.0,0.0,0.0,0.0,0.0,0.0,0.0,0.0,2.6528,2.6006,2.5804,2.5325,2.4603,2.4278,2.4519,2.5395,2.4744,2.4866,0.0,0.0,0.0,0.0,0.0,0.0,0.0,0.0,0.0,0.0,0.0,0.0,0.0,0.0,0.0,0.0,0.0,0.0,0.0,0.0,0.0,0.0,0.0,0.0,0.0,0.0,0.0,0.0,0.0,0.0,0.0,0.0,0.0,0.0,0.0,0.0,0.0,0.0,0.0,0.0,0.0,0.0,3.3341,3.3954,0.0,0.0,0.0,3.4361,3.4813,0.0,0.0,0.0,0.0,0.0,0.0,0.0,0.0,0.0,0.0,0.0,0.0,0.0,0.0,0.0,0.0,0.0,0.0,0.0,0.0,0.0,0.0,0.0,0.0,0.0,0.0,0.0,0.0,0.0,0.0,0.0,0.0,0.0,0.0,0.0,0.0,0.0,0.0,0.0,0.0,0.0,0.0,0.0,0.0,0.0,0.0,0.0,0.0,0.0,0.0,0.0,0.0,0.0,0.0,0.0,0.0,0.0,2.5454,2.5495,2.5089,2.419,2.3697,2.3884,2.4756,2.4078,0.0,0.0,0.0,0.0,0.0,0.0,0.0,0.0,0.0,0.0,0.0,0.0,0.0,0.0,0.0,0.0,0.0,0.0,0.0,0.0,0.0,0.0,0.0,0.0,0.0,0.0,0.0,2.3661,0.0,0.0,0.0,0.0,0.0,0.0,0.0,0.0,0.0,0.0,0.0,0.0,0.0,0.0,3.2704,3.4481,3.4587,3.473,0.0,0.0,3.4785,3.4846,3.5768,3.5408,0.0,0.0,0.0,0.0,0.0,0.0,0.0,0.0,0.0,0.0,0.0,0.0,0.0,0.0,0.0,0.0,0.0,0.0,0.0,0.0,0.0,0.0,0.0,0.0,0.0,0.0,0.0,0.0,0.0,0.0,0.0,0.0,0.0,0.0,0.0,0.0,0.0,0.0,0.0,0.0,0.0,0.0,0.0,0.0,0.0,0.0,0.0,0.0,0.0,0.0,0.0,0.0,0.0,0.0,0.0,2.5447,2.5408,2.4706,2.329,2.3288,2.3708,2.4496,2.4001,2.4142,0.0,0.0,0.0,0.0,0.0,0.0,0.0,0.0,0.0,0.0,0.0,0.0,0.0,0.0,0.0,0.0,0.0,0.0,0.0,0.0,0.0,0.0,0.0,0.0,0.0,0.0,0.0,0.0,0.0,0.0,0.0,0.0,0.0,0.0,0.0,0.0,0.0,0.0,0.0,0.0,0.0,3.3095,3.268,3.3842,3.507,0.0,0.0,3.5178,3.5243,3.6727,3.6551,3.276,0.0,0.0,0.0,0.0,0.0,0.0,0.0,0.0,0.0,0.0,0.0,0.0,0.0,0.0,0.0,0.0,0.0,0.0,0.0,0.0,0.0,0.0,0.0,0.0,0.0,0.0,0.0,0.0,0.0,0.0,0.0,0.0,0.0,0.0,0.0,0.0,0.0,0.0,0.0,0.0,0.0,0.0,0.0,0.0,0.0,0.0,0.0,0.0,0.0,0.0,0.0,0.0,0.0,2.7151,2.6142,2.564,2.4886,2.3869,2.3408,2.3327,2.361,2.3508,2.363,0.0,0.0,0.0,0.0,0.0,0.0,0.0,0.0,0.0,0.0,0.0,0.0,0.0,0.0,0.0,0.0,0.0,0.0,0.0,0.0,0.0,0.0,0.0,0.0,0.0,0.0,0.0,0.0,2.2962,2.2798,2.3194,0.0,0.0,0.0,0.0,0.0,0.0,0.0,0.0,0.0,0.0,3.3054,3.4966,3.5306,0.0,0.0,3.685,3.6483,3.6618,3.6777,3.5953,3.3149,3.2156,0.0,0.0,0.0,0.0,0.0,0.0,0.0,0.0,0.0,0.0,0.0,0.0,0.0,0.0,0.0,0.0,0.0,0.0,0.0,0.0,0.0,0.0,0.0,0.0,0.0,0.0,0.0,0.0,0.0,0.0,0.0,0.0,0.0,0.0,0.0,0.0,0.0,0.0,0.0,0.0,0.0,0.0,0.0,0.0,0.0,0.0,0.0,0.0,0.0,0.0,0.0,0.0,2.7804,2.6877,2.6328,2.5466,2.4294,2.3727,2.3341,2.3096,2.3235,2.3283,0.0,0.0,0.0,0.0,0.0,0.0,0.0,0.0,0.0,0.0,0.0,0.0,0.0,0.0,0.0,0.0,0.0,0.0,0.0,0.0,0.0,0.0,0.0,0.0,0.0,0.0,0.0,0.0,2.3053,2.2772,2.3111,0.0,0.0,0.0,0.0,0.0,0.0,0.0,0.0,0.0,0.0,3.3293,3.578,3.5855,3.6043,3.7229,3.6832,3.6483,3.6604,3.6344,3.5446,3.3549,0.0,0.0,0.0,0.0,0.0,0.0,0.0,0.0,0.0,0.0,0.0,0.0,0.0,0.0,0.0,0.0,0.0,0.0,0.0,0.0,0.0,0.0,0.0,0.0,0.0,0.0,0.0,0.0,0.0,0.0,2.3885,0.0,0.0,0.0,0.0,0.0,0.0,0.0,0.0,0.0,0.0,0.0,0.0,0.0,0.0,0.0,0.0,0.0,0.0,0.0,0.0,0.0,0.0,2.8976,2.751,2.7487,2.6449,2.4313,2.4252,2.3874,2.3125,2.3235,2.3283,2.3301,0.0,0.0,0.0,0.0,0.0,0.0,0.0,0.0,0.0,0.0,0.0,0.0,0.0,0.0,0.0,0.0,0.0,0.0,0.0,0.0,0.0,0.0,0.0,0.0,0.0,0.0,2.4273,2.4018,2.3701,0.0,0.0,0.0,0.0,0.0,0.0,0.0,0.0,0.0,0.0,3.234,3.3992,3.4202,3.4942,3.5571,3.564,3.5146,3.4715,3.4785,3.539,3.542,0.0,0.0,0.0,0.0,0.0,0.0,0.0,0.0,0.0,0.0,0.0,0.0,0.0,0.0,0.0,0.0,0.0,0.0,0.0,0.0,0.0,0.0,0.0,0.0,0.0,0.0,0.0,2.9758,2.8203,0.0,0.0,0.0,0.0,0.0,0.0,0.0,0.0,0.0,0.0,0.0,2.8578,2.9516,0.0,0.0,0.0,0.0,0.0,0.0,0.0,0.0,0.0,0.0,0.0,0.0,2.8802,2.7858,2.765,2.6687,2.4988,2.4473,2.3876,2.3125,2.3132,2.3211,2.3318,0.0,0.0,0.0,0.0,0.0,0.0,0.0,0.0,0.0,0.0,0.0,0.0,0.0,0.0,0.0,0.0,0.0,0.0,0.0,0.0,0.0,0.0,0.0,0.0,0.0,2.5227,0.0,0.0,0.0,0.0,0.0,0.0,0.0,0.0,0.0,0.0,0.0,2.9466,3.0619,3.1913,3.3332,3.492,3.5436,3.5935,0.0,0.0,0.0,0.0,0.0,0.0,0.0,0.0,0.0,0.0,0.0,0.0,0.0,0.0,3.9229,3.6453,3.5069,3.44,3.462,0.0,0.0,0.0,0.0,0.0,0.0,0.0,0.0,0.0,0.0,0.0,0.0,0.0,0.0,3.1096,0.0,2.9238,0.0,0.0,0.0,0.0,0.0,0.0,0.0,0.0,2.9468,2.9675,2.9463,3.0379,3.0848,0.0,3.0615,3.0119,0.0,0.0,0.0,0.0,0.0,0.0,0.0,0.0,2.9299,2.8151,2.7784,2.691,2.5451,2.4621,2.3843,2.3094,2.3095,2.3144,2.3217,2.3554,2.391,0.0,0.0,0.0,0.0,0.0,0.0,0.0,0.0,0.0,0.0,0.0,0.0,0.0,0.0,0.0,0.0,0.0,0.0,0.0,0.0,0.0,0.0,0.0,2.5019,0.0,0.0,0.0,0.0,0.0,0.0,0.0,0.0,0.0,2.9055,2.9338,2.9935,3.1029,3.1654,3.2703,3.4582,0.0,0.0,0.0,0.0,0.0,0.0,0.0,3.6607,3.6878,3.7013,3.7352,3.8212,3.9648,4.038,3.9431,0.0,0.0,3.8509,3.7098,3.6305,3.6478,3.5758,3.5058,3.494,3.4423,3.388,0.0,0.0,0.0,0.0,0.0,0.0,0.0,0.0,3.1309,3.0997,0.0,2.9509,0.0,0.0,0.0,0.0,0.0,2.9849,0.0,0.0,3.1127,3.1454,3.0868,3.0899,3.1236,3.1794,3.1228,3.1228,3.1717,2.9969,0.0,0.0,0.0,0.0,0.0,0.0,3.0375,2.8281,2.7916,2.7038,2.5558,2.4641,2.3807,2.3042,2.3076,2.3107,2.3131,2.3936,2.4092,2.3395,2.4889,0.0,0.0,0.0,0.0,0.0,0.0,0.0,0.0,0.0,0.0,0.0,0.0,0.0,0.0,0.0,0.0,0.0,0.0,0.0,0.0,2.4876,0.0,0.0,0.0,0.0,0.0,0.0,0.0,0.0,0.0,0.0,2.927,2.9535,3.0088,3.1177,0.0,0.0,0.0,0.0,3.4175,3.4451,3.4896,3.5217,3.5013,3.6569,3.756,3.6964,0.0,0.0,3.9941,4.101,4.1113,3.8538,3.9329,4.0701,4.1718,4.0191,3.9189,3.9706,3.7817,3.6409,3.666,3.549,3.4359,3.5922,0.0,0.0,0.0,0.0,3.4437,3.4516,3.4709,3.4536,3.3618,3.2202,3.1797,0.0,0.0,0.0,0.0,0.0,0.0,3.092,3.1583,3.1548,3.1656,3.1952,3.2417,3.2839,3.3136,3.2808,3.2879,3.3178,3.1171,3.0468,3.1074,0.0,0.0,0.0,0.0,2.8645,2.7212,2.7271,2.6415,2.4478,2.3966,2.3456,2.3019,2.307,2.3107,2.3107,2.3373,2.3711,2.4134,2.4602,0.0,0.0,0.0,0.0,0.0,0.0,0.0,0.0,0.0,0.0,0.0,0.0,0.0,0.0,0.0,0.0,0.0,0.0,0.0,2.5997,2.4777,2.4342,0.0,0.0,0.0,0.0,0.0,0.0,0.0,0.0,0.0,3.1065,3.1382,3.1533,0.0,0.0,3.2646,3.3325,3.3723,3.4236,3.5064,3.559,0.0,3.5838,3.6191,3.6774,3.7651,3.8871,3.9511,3.8904,3.9261,3.9367,3.8519,3.872,3.9112,3.9373,3.9356,3.9203,3.9234,3.8635,3.7638,3.6374,3.6016,3.5656,3.6304,3.5543,3.5677,3.5662,3.5543,3.5588,3.5665,3.5746,3.5746,3.5033,3.387,3.3591,3.2759,3.1528,3.0959,0.0,0.0,0.0,3.1574,3.2382,3.1927,3.1834,3.2028,3.2427,3.2682,3.275,3.2129,3.2199,3.2887,3.1042,3.0368,3.0788,0.0,0.0,2.8959,2.8819,2.8067,2.6766,2.63,2.5445,2.4189,2.3376,2.2901,2.2807,2.2903,2.3026,2.3107,2.3107,2.3349,2.3906,2.415,2.4531,0.0,0.0,0.0,0.0,0.0,0.0,0.0,0.0,0.0,0.0,0.0,2.6404,0.0,0.0,0.0,0.0,2.5571,2.5628,2.5521,2.5057,0.0,0.0,0.0,0.0,0.0,0.0,0.0,3.0266,3.0619,3.1115,3.1841,3.2267,3.247,3.2285,3.2148,3.2398,3.345,0.0,3.4149,3.516,3.5759,3.6052,3.5983,3.6257,3.6939,3.8267,3.8537,3.8555,3.8372,3.8379,3.8271,3.7872,3.7666,3.7609,3.7592,3.7876,3.8152,3.8281,3.807,3.7387,3.6055,3.59,3.5469,3.6492,3.6523,3.6831,3.677,3.6507,3.6631,3.6276,3.5583,3.5598,3.5552,3.5415,3.4783,3.4414,3.4141,3.2958,0.0,3.1376,3.1832,3.2093,3.2293,3.2107,3.1738,3.1227,3.1225,3.119,3.112,2.9953,3.0043,3.1149,2.9997,2.977,3.0469,2.994,2.9403,2.8826,2.8791,2.8144,2.6811,2.53,2.4422,2.4218,2.28,2.2178,2.2469,2.2653,2.2868,2.3157,2.3087,2.3116,2.3251,2.3602,2.3807,2.3894,0.0,0.0,0.0,0.0,0.0,0.0,0.0,0.0,0.0,0.0,0.0,0.0,0.0,0.0,0.0,2.4771,0.0,2.4926,2.5669,0.0,0.0,0.0,2.9065,2.8895,3.0005,3.08,3.0774,0.0,0.0,3.1716,3.234,3.2868,3.3087,3.2085,3.1902,3.3441,3.3559,3.3837,3.4641,3.5279,3.5608,3.5341,3.6251,3.7282,3.8157,3.8281,3.7911,3.7824,3.7764,3.738,3.6439,3.6164,3.6097,3.6102,3.6065,3.6277,3.6731,3.6498,3.6061,3.5601,3.494,3.4166,3.6492,3.6492,3.66,3.6569,3.6492,3.6523,3.6446,3.6276,3.6261,3.5892,3.5248,3.4738,3.3569,3.1986,3.2181,3.1827,3.108,3.07,3.0817,3.1299,3.0773,3.0192,2.9594,2.9675,2.9446,2.8988,2.9254,2.9581,2.9858,2.9553,2.9489,2.965,2.9052,2.8759,2.8779,2.8202,2.7293,2.6068,2.5674,2.4589,2.2853,2.1994,2.1779,2.2185,2.2299,2.2784,2.3662,2.3008,2.3229,2.4438,2.3454,2.3079,2.3635,2.4345,0.0,0.0,0.0,0.0,0.0,0.0,0.0,0.0,0.0,2.6997,2.5939,0.0,2.6356,0.0,2.4804,2.5022,2.6138,2.6889,0.0,0.0,2.9855,3.0885,3.0364,3.0579,3.0756,3.067,3.0871,3.1002,3.0902,3.1571,3.1901,3.1477,3.2121,3.2825,3.3337,3.3115,3.2967,3.3267,3.3756,3.398,3.3881,3.4747,3.5751,3.6163,3.622,3.614,3.5882,3.5439,3.5043,3.4722,3.4158,3.3784,3.379,3.3656,3.3592,3.3679,3.4497,3.4965,3.3774,3.3285,3.2875,3.6132,3.5784,3.5863,3.5641,3.5305,3.6148,3.6305,3.6007,3.5734,3.5119,3.4273,3.3648,3.2539,3.1157,3.1494,3.1248,3.0542,3.0107,3.0135,3.0512,2.9822,2.9174,2.853,2.8141,2.7687,2.7232,2.7734,2.8105,2.836,2.8685,2.8851,2.8848,2.8544,2.8472,2.8597,2.7907,2.708,2.6112,2.5331,2.3995,2.2215,2.2148,2.2215,2.2374,2.2794,2.3393,2.4186,2.3626,2.392,2.519,2.3939,2.3534,2.4354,2.4378,2.4255,0.0,0.0,0.0,0.0,0.0,0.0,0.0,0.0,0.0,0.0,0.0,2.6435,2.6272,2.5822,2.6198,2.7833,2.8124,2.8533,2.9366,3.0558,3.1208,3.1083,3.1065,3.1024,3.0974,3.075,3.0606,3.0544,3.1166,3.1417,3.0812,3.1693,3.2386,3.2285,3.2168,3.2133,3.2223,3.285,3.3309,3.3237,3.3822,3.427,3.4103,3.4032,3.3923,3.3743,3.3464,3.3213,3.3168,3.2814,3.2505,3.2489,3.246,3.2264,3.1983,3.2505,3.2937,3.2497,3.2295,3.188,3.5432,3.4762,3.4863,3.4451,3.3842,3.5449,3.5753,3.516,3.4553,3.3784,3.2883,3.2249,3.1516,3.073,3.0787,3.0409,2.9687,2.9565,2.9565,2.9645,2.9017,2.831,2.7572,2.6659,2.6026,2.5659,2.5839,2.6257,2.6875,2.7691,2.8119,2.8198,2.8323,2.8411,2.8393,2.7878,2.723,2.6505,2.4811,2.3384,2.2309,2.2784,2.3016,2.2908,2.3539,2.413,2.4615,2.4375,2.4688,2.5633,2.4603,2.4356,2.5188,2.4514,2.4272,0.0,2.4846,0.0,0.0,0.0,0.0,0.0,0.0,0.0,0.0,2.6345,2.6453,2.77,2.7261,2.7604,2.9305,2.9047,2.9159,3.0045,3.0286,3.0547,3.0993,3.1048,3.104,3.104,3.0575,3.0248,3.0125,3.0707,3.0942,3.0382,3.0693,3.0964,3.0798,3.0984,3.1257,3.1406,3.2148,3.2611,3.3,3.3193,3.3069,3.2501,3.2322,3.2022,3.2138,3.1985,3.1892,3.1876,3.1769,3.1693,3.1718,3.1697,3.1468,3.0851,3.0818,3.1047,3.1475,3.1489,3.0953,3.4081,3.3942,3.3962,3.3859,3.3754,3.4081,3.4148,3.3986,3.3433,3.2547,3.1465,3.1709,3.0866,2.9324,2.9785,2.9285,2.799,2.7944,2.7957,2.796,2.7837,2.6938,2.5464,2.5314,2.4696,2.3739,2.4338,2.5183,2.6191,2.7004,2.7663,2.8183,2.8335,2.8411,2.8396,0.0,0.0,0.0,2.5243,2.4498,2.4235,2.3392,2.3249,2.389,2.349,0.0,2.4753,2.4182,2.4479,2.5799,2.4545,0.0,0.0,0.0,0.0,0.0,0.0,0.0,0.0,0.0,0.0,0.0,2.787,2.6956,2.6162,2.6738,2.7515,2.8341,2.8219,2.824,2.8586,2.8642,2.8703,2.8908,2.9015,2.911,2.92,2.9182,2.9132,2.9117,2.9404,2.9371,2.8953,2.9353,2.9541,2.9012,2.8936,2.9018,2.9107,2.9802,3.0294,3.0458,3.0784,3.1198,3.2112,3.2114,3.2026,3.2003,3.2045,3.1966,3.1873,3.1424,3.1116,3.1089,3.0614,3.0263,3.0247,3.0209,3.0164,2.983,2.9753,2.9857,3.0149,3.0197,3.0011,3.3339,0.0,3.301,3.2794,0.0,3.2047,3.1924,3.1936,3.192,3.0969,2.9449,2.9605,2.9102,2.8183,2.8527,2.8236,2.7503,2.7503,2.7503,2.7464,2.6902,2.6168,2.5213,2.4477,2.4049,2.3926,2.4402,2.5221,2.6287,2.7106,2.7719,2.8103,2.8238,2.8335,2.8399,2.8411,2.7781,2.651,2.5685,2.493,2.4316,2.4074,2.402,2.4197,2.4204,0.0,0.0,0.0,0.0,0.0,0.0,0.0,0.0,2.5227,0.0,2.4924,2.5567,2.622,2.6809,2.6968,2.7357,2.8031,2.7523,2.6988,2.6608,2.7415,2.7972,2.8049,2.7996,2.7984,2.8045,2.7819,2.794,2.8531,2.8375,2.8341,2.8602,2.8369,2.8282,2.8528,2.8505,2.8411,2.8421,2.8984,2.9091,2.8543,2.8716,2.8799,2.8663,2.8984,2.9456,3.0009,3.0299,3.0584,3.1088,3.12,3.0969,3.084,3.067,3.0577,3.0565,3.0277,2.9998,2.9982,2.9694,2.9443,2.9422,2.9209,2.9021,2.9196,2.903,2.8984,2.9336,2.9443,2.9309,3.2595,3.1924,3.2069,3.1713,3.0966,3.0477,3.0158,2.9995,0.0,0.0,0.0,2.7573,2.7503,2.7506,2.7385,2.7363,2.7346,2.7363,2.7298,2.715,2.6357,2.5768,2.5349,2.3998,2.373,2.4401,2.4594,2.5227,2.6305,2.7091,2.7583,2.78,2.8063,2.8259,2.8411,2.8411,2.777,2.6534,2.6055,2.528,2.4206,2.4676,2.4807,2.4521,2.5,2.5333,2.5473,2.5365,2.5638,2.6331,2.5686,2.5628,2.6325,2.5824,2.5358,2.5106,2.5568,2.586,2.5788,2.6209,2.6552,2.6667,2.6491,2.6639,2.722,2.7777,2.7897,2.7401,2.7348,2.7404,2.7497,2.6945,2.6993,2.8088,2.7616,2.7419,2.7921,2.77,2.7528,2.7981,2.7759,2.768,2.8162,2.8768,2.9045,2.8615,2.8815,2.9095,2.868,2.8664,2.8982,2.9626,2.9978,3.026,3.0241,3.028,3.0076,2.9637,2.9323,2.9114,2.9098,2.9004,2.8925,2.8955,2.8909,2.8905,2.8854,2.8632,2.8467,2.8957,2.8661,2.8431,2.8894,2.9064,2.8952,3.1291,3.1161,3.1185,3.1123,3.1005,3.0914,3.0338,2.9371,2.8973,2.8307,2.7553,2.752,2.7503,2.7464,2.703,2.6808,2.6808,2.6808,2.653,2.607,2.6399,2.5779,2.4331,2.4074,2.3731,2.3346,2.3361,2.3976,2.5104,2.585,2.6461,2.7089,2.7795,2.8259,2.8399,2.8411,2.775,2.6471,2.6395,2.6082,2.5462,2.5033,2.5144,2.5691,2.5263,2.507,2.5084,2.5211,2.5268,2.5246,2.5284,2.5294,2.5231,2.5125,2.4785,2.4157,2.4189,2.4456,2.4936,2.4941,2.5172,2.5701,2.5396,2.5607,2.6676,2.6881,2.6914,2.6808,2.6765,2.6824,2.6808,2.6327,2.6086,2.6256,2.5744,2.5451,2.5631,2.5994,2.6253,2.6415,2.7026,2.7489,2.771,2.8182,2.848,2.8418,2.855,2.8519,2.8527,2.8677,2.8881,2.9046,2.9194,2.9252,2.9292,2.9252,2.9306,2.9188,2.9149,2.9114,2.9114,2.8715,2.8426,2.8284,2.8379,2.8318,2.8227,2.8604,2.8781,2.8885,2.8809,2.8879,2.8901,2.8998,2.9067,3.1005,3.1005,3.1005,3.1005,3.0979,3.066,3.0059,2.9292,2.9004,2.836,2.7529,2.7503,2.7337,2.7053,2.6808,2.6507,2.6216,2.6216,2.6242,2.6271,2.5931,2.5526,2.4999,2.4383,2.4126,2.4122,2.4136,2.4559,2.5388,2.6025,2.652,2.6938,2.7773,2.8259,2.8399,2.8411,2.775,2.6437,2.6465,2.6043,2.5072,2.4878,2.4963,2.5328,2.4737,2.4596,2.498,2.4699,2.4493,2.4422,2.4858,2.475,2.3929,2.4201,2.4078,2.3384,2.3633,2.4104,2.4705,2.5064,2.5112,2.4805,2.4583,2.4526,2.4771,2.5383,2.5597,2.5346,2.5566,2.5636,2.5333,2.5356,2.5273,2.4956,2.4941,2.4869,2.4653,2.5038,2.5536,2.5866,2.6325,2.685,2.7426,2.7477,2.7785,2.8223,2.8411,2.842,2.8493,2.8633,2.8771,2.883,2.8936,2.899,2.899,2.9064,2.9103,2.9114,2.9114,2.9114,2.9114,2.8778,2.8668,2.8652,2.8647,2.8613,2.8502,2.8496,2.8658,2.8943,2.8687,2.8646,2.8868,2.9056,2.9103,3.1005,3.1005,3.1005,3.1005,3.0966,3.0497,2.9975,2.9497,2.9488,2.8882,2.7977,2.7911,2.7602,2.7099,2.6938,2.6556,2.6057,2.6004,2.6177,2.6376,2.5591,2.5356,2.5482,2.4568,2.4346,2.4763,2.482,2.5005,2.5439,2.6014,2.6522,2.6927,2.7608,2.8085,2.8348,2.8387,2.7811,2.6699,2.6531,2.5834,2.456,2.4671,2.4756,2.4771,2.4225,2.4166,2.4659,2.4065,2.367,2.3683,2.4217,2.403,2.3015,2.3386,2.3333,2.2751,2.3051,2.3439,2.3815,2.4383,2.4304,2.3364,2.3271,2.3096,2.2732,2.3519,2.4075,2.3973,2.4345,2.44,2.4122,2.4462,2.4543,2.4014,2.4435,2.4611,2.4245,2.4516,2.5023,2.5563,2.5825,2.6244,2.6862,2.699,2.7325,2.8201,2.8411,2.846,2.8541,2.8565,2.8597,2.872,2.8822,2.8897,2.9006,2.9021,2.9045,2.9091,2.9064,2.9064,2.9044,2.9004,2.8735,2.8593,2.8685,2.8556,2.8529,2.8482,2.8463,2.8779,2.8594,2.8493,2.893,2.9006,2.9056,3.1005,3.1005,3.1005,3.1005,3.0992,3.0921,3.055,3.008,3.0022,2.9719,2.9161,2.9135,2.8769,2.822,2.7637,2.7089,2.6572,2.6598,2.6334,2.5952,2.5782,2.5497,2.5121,2.4439,2.4127,2.424,2.4227,2.4287,2.4375,2.4961,2.5784,2.6784,2.7095,2.7547,2.8137,2.8339,2.803,2.7303,2.6714,2.5779,2.4596,2.4584,2.466,2.4776,2.4199,2.392,2.403,2.3347,2.3,2.2993,2.3088,2.3031,2.2889,2.2961,2.2684,2.2025,2.192,2.171,2.1262,2.1326,2.1361,2.0821,2.09,2.0912,2.0859,2.1399,2.2211,2.3006,2.332,2.3362,2.3323,2.3852,2.4014,2.3567,2.3947,2.415,2.415,2.415,2.4422,2.5007,2.5536,2.5947,2.623,2.6914,2.7643,2.8125,2.8348,2.8424,2.8432,2.8444,2.8468,2.8601,2.872,2.8806,2.8842,2.883,2.892,2.9029,2.899,2.8978,2.895,2.8618,2.8083,2.8131,2.7935,2.8018,2.7766,2.7788,2.8646,2.8606,2.8622,2.8756,2.8885,2.8865,2.8869,3.1005,3.1005,3.1005,3.1005,3.1005,3.1005,3.0856,3.0647,3.0647,3.0503,3.0325,3.0312,2.9423,2.7889,2.7611,2.7023,2.619,2.6177,2.6242,2.6282,2.5965,2.5876,2.5921,2.5057,2.4637,2.4598,2.4267,2.4111,2.4265,2.5041,2.5951,2.6855,2.7376,2.7662,2.771,2.8147,2.8072,2.7442,2.7134,2.6341,2.5105,2.4689,2.458,2.4532,2.3694,2.3365,2.3569,2.2737,2.2191,2.2222,2.2596,2.2445,2.1642,2.1955,2.1735,2.0773,2.0722,2.0539,1.9991,2.0384,2.0451,2.0028,2.0002,2.0152,2.0454,2.0735,2.1224,2.1995,2.2455,2.2795,2.3148,2.3743,2.3987,2.3852,2.4258,2.4489,2.4137,2.4421,2.4747,2.4978,2.5216,2.5674,2.6363,2.7355,2.777,2.7683,2.7897,2.8399,2.8411,2.8411,2.842,2.8468,2.8544,2.864,2.8747,2.885,2.8881,2.892,2.8924,2.8932,2.8858,2.8759,2.8399,2.8085,2.8243,2.8275,2.8178,2.8264,2.8775,2.8612,2.8493,2.8589,2.8634,2.8622,2.8673,3.113,3.1018,3.1005,3.1005,3.1005,3.1005,3.1005,3.1005,3.1005,3.1005,3.0979,3.083,2.974,2.816,2.8003,2.7363,2.6367,2.6263,2.6488,2.6817,2.6321,2.6282,2.6575,2.5712,2.5212,2.5121,2.4635,2.436,2.4457,2.5287,2.6149,2.683,2.7255,2.737,2.7319,2.7828,2.787,2.7484,2.7394,2.6795,2.5672,2.5023,2.4668,2.4441,2.3501,2.3074,2.3282,2.2251,2.1558,2.1386,2.1778,2.1555,2.0594,2.0824,2.0616,1.9786,1.9773,1.9723,1.9427,1.9863,2.0008,1.9753,1.9811,2.0082,2.0425,2.0642,2.0926,2.1384,2.1804,2.2252,2.2659,2.3405,2.3757,2.3689,2.4272,2.4543,2.4191,2.4516,2.4801,2.495,2.5033,2.537,2.6335,2.7238,2.758,2.7223,2.7795,2.8411,2.8411,2.8411,2.8411,2.8411,2.8411,2.8508,2.8684,2.8716,2.8751,2.8799,2.8818,2.8807,2.8806,2.8791,2.8561,2.8135,2.8545,2.8548,2.8097,2.8307,2.87,2.8652,2.852,2.8408,2.8554,2.8525,2.8484,3.1464,3.1031,3.1005,3.1005,3.1005,3.1005,3.1005,3.1005,3.1005,3.1005,3.094,3.0445,2.9805,2.9161,2.9109,2.8529,2.7477,2.7333,2.7333,2.7376,2.6912,2.6693,2.6638,2.6073,2.5769,2.5733,2.521,2.4979,2.5031,2.5544,2.6114,2.6683,2.6484,2.6535,2.7042,2.7327,2.742,2.7493,2.74,2.7011,2.6258,2.5582,2.4969,2.4508,2.3849,2.3219,2.2692,2.1985,2.1281,2.0587,2.0325,2.0061,1.9908,1.9633,1.9443,1.9269,1.9266,1.9315,1.9395,1.9485,1.9554,1.9723,2.0096,2.0452,2.0506,2.0913,2.1236,2.1397,2.1465,2.156,2.1709,2.2619,2.3079,2.2781,2.3527,2.4082,2.415,2.4245,2.4435,2.4869,2.5061,2.5314,2.5878,2.643,2.7004,2.7314,2.7922,2.8335,2.8323,2.836,2.8411,2.8411,2.8424,2.8444,2.8565,2.8597,2.8612,2.8648,2.8684,2.8672,2.8759,2.8732,2.8362,2.814,2.8303,2.8217,2.786,2.7933,2.833,2.842,2.8296,2.8268,2.8398,2.8526,2.8477,3.149,3.1018,3.1005,3.1005,3.1005,3.1005,3.1005,3.1005,3.1005,3.1005,3.0979,3.0764,3.0163,2.9292,2.9292,2.8647,2.7555,2.7503,2.7503,2.7477,2.7298,2.7206,2.717,2.6648,2.636,2.6282,2.5814,2.572,2.6078,2.6298,2.6472,2.6776,2.7151,2.7291,2.7191,2.7371,2.7503,2.7499,2.717,2.6782,2.6359,2.5481,2.4824,2.4546,2.3563,2.2894,2.2596,2.1586,2.0788,2.0264,1.9978,1.9719,1.947,1.9402,1.9354,1.9337,1.9448,1.9554,1.9591,1.9578,1.9617,1.9706,1.9865,2.0193,2.0439,2.0708,2.0979,2.129,2.1397,2.1397,2.1547,2.2144,2.2849,2.3431,2.3811,2.4218,2.4584,2.4693,2.4774,2.5007,2.5314,2.5521,2.539,2.6064,2.6612,2.6575,2.7251,2.777,2.791,2.8122,2.8411,2.8411,2.8411,2.8424,2.8444,2.8529,2.8565,2.8556,2.8568,2.8553,2.8604,2.8174,2.7763,2.8003,2.8118,2.7967,2.767,2.7951,2.8288,2.8432,2.8296,2.8174,2.8232,2.8287,2.8247,3.132,3.1031,3.1005,3.1005,3.1005,3.1005,3.1005,3.1005,3.1005,3.1005,3.0934,3.0626,3.009,2.9497,2.8991,2.8451,2.7811,2.7611,2.7503,2.7503,2.7503,2.7503,2.7438,2.7144,2.6961,2.6896,2.6553,2.6504,2.6677,2.6873,2.6964,2.7036,2.7508,2.7482,2.7125,2.7197,2.7244,2.7154,2.6878,2.6552,2.6172,2.5292,2.4654,2.4217,2.3171,2.2486,2.2346,2.1534,2.0858,2.0415,2.0094,1.9778,1.9417,1.9446,1.9499,1.9512,1.9617,1.9795,1.9933,1.996,2.0041,2.0243,2.027,2.0435,2.0748,2.0777,2.1019,2.129,2.1397,2.1397,2.1467,2.1765,2.2428,2.335,2.3703,2.396,2.4353,2.4394,2.4353,2.4381,2.4614,2.4731,2.4759,2.5677,2.6169,2.6088,2.7075,2.7705,2.763,2.7996,2.8287,2.8186,2.8299,2.8372,2.842,2.8456,2.8477,2.8453,2.8496,2.8472,2.8306,2.7789,2.7565,2.7838,2.7854,2.7688,2.7765,2.8027,2.8247,2.8431,2.8332,2.8174,2.811,2.7996,2.81,3.1031,3.1005,3.1005,3.1005,3.1005,3.1005,3.1005,3.1005,3.1005,3.1005,3.0887,2.9946,2.9823,2.9688,2.8643,2.7977,2.8242,2.7863,2.7542,2.7503,2.7503,2.7503,2.749,2.7438,2.7411,2.7411,2.7454,2.7183,2.6821,2.718,2.7411,2.7392,2.7177,2.7125,2.6963,2.681,2.6606,2.6595,2.6615,2.634,2.5723,2.5098,2.4493,2.3884,2.2896,2.2229,2.1968,2.1838,2.143,2.0873,2.0482,2.0104,1.9735,1.9712,1.9722,1.9744,1.9754,2.0014,2.0437,2.0506,2.0762,2.1099,2.1304,2.1235,2.125,2.1304,2.1343,2.1384,2.1453,2.1479,2.1492,2.1628,2.1913,2.2291,2.3012,2.335,2.3378,2.3269,2.3228,2.3335,2.3469,2.3451,2.4011,2.5027,2.5809,2.6215,2.7259,2.7947,2.7523,2.7932,2.8085,2.787,2.8073,2.8399,2.8396,2.8381,2.8365,2.8365,2.842,2.842,2.8251,2.7873,2.7657,2.7808,2.7731,2.7596,2.7811,2.8045,2.8134,2.827,2.8171,2.8174,2.8174,2.8134,2.821,3.1333,3.1018,3.1005,3.1005,3.1005,3.1005,3.1005,3.1005,3.1005,3.1005,3.0927,3.0626,3.0359,3.0053,2.9487,2.9165,2.8978,2.8403,2.7915,2.7568,2.7503,2.7503,2.7503,2.7503,2.7503,2.7503,2.7503,2.7411,2.7298,2.7428,2.7503,2.7471,2.7522,2.7512,2.7478,2.7254,2.6962,2.6516,2.6278,2.6022,2.5745,2.4848,2.4402,2.4486,2.3509,2.2674,2.2187,2.1644,2.1125,2.0673,2.0416,2.0123,1.9854,2.0055,2.0247,2.029,2.0665,2.0909,2.106,2.1102,2.1196,2.1384,2.1411,2.1397,2.1397,2.1438,2.1452,2.1492,2.1764,2.2021,2.2075,2.2415,2.2673,2.289,2.3093,2.3378,2.3581,2.3405,2.3194,2.3159,2.3176,2.3257,2.3539,2.4499,2.5167,2.5165,2.6582,2.7547,2.7152,2.7786,2.836,2.8186,2.8372,2.8298,2.8103,2.7946,2.7856,2.7936,2.8044,2.8181,2.8057,2.7738,2.7611,2.7473,2.7426,2.7596,2.7827,2.7996,2.8042,2.8103,2.8067,2.8149,2.8299,2.8335,2.8311,3.1313,3.1018,3.1005,3.1005,3.1005,3.1005,3.1005,3.1005,3.1005,3.1005,3.0979,3.0738,3.0589,3.0372,3.0001,2.974,2.9523,2.9004,2.8399,2.7846,2.7572,2.7503,2.7503,2.7503,2.7503,2.7503,2.7503,2.7503,2.7503,2.7503,2.7503,2.7536,2.7706,2.7792,2.7772,2.7517,2.7196,2.6822,2.6448,2.6131,2.5756,2.4942,2.4505,2.4499,2.3698,2.3038,2.2616,2.213,2.1552,2.0967,2.0751,2.0589,2.039,2.0667,2.0843,2.0911,2.1155,2.1384,2.1411,2.1601,2.1736,2.175,2.194,2.2077,2.2077,2.2077,2.2077,2.2144,2.2414,2.2631,2.2686,2.2917,2.3269,2.3513,2.331,2.3391,2.3635,2.3228,2.302,2.3019,2.2974,2.3135,2.379,2.4308,2.5,2.5095,2.6367,2.7303,2.7006,2.7643,2.8006,2.8259,2.8299,2.8058,2.7701,2.7517,2.7336,2.7447,2.7592,2.7752,2.7796,2.723,2.6907,2.6722,2.6646,2.718,2.7473,2.7719,2.7845,2.7884,2.806,2.821,2.8348,2.8223,2.821,3.1005,3.1005,3.1005,3.1005,3.1005,3.1005,3.1005,3.1005,3.1005,3.1005,3.0882,3.0524,3.0511,3.0647,3.0051,2.9849,2.9988,2.9588,2.9096,2.8516,2.8046,2.7729,2.7546,2.7503,2.7503,2.7503,2.7503,2.7503,2.7503,2.7503,2.7503,2.752,2.7673,2.7772,2.7729,2.7544,2.7433,2.7232,2.6931,2.6472,2.5905,2.5291,2.4761,2.4259,2.3757,2.3391,2.3242,2.3064,2.2548,2.1616,2.1515,2.15,2.1397,2.1425,2.1465,2.1346,2.1399,2.1506,2.1601,2.2062,2.2347,2.2374,2.2754,2.3189,2.3026,2.2958,2.2958,2.2999,2.3161,2.3242,2.3242,2.3405,2.3649,2.396,2.3689,2.3418,2.3242,2.2808,2.2778,2.2996,2.2805,2.2877,2.4283,2.4734,2.5412,2.6004,2.6862,2.7262,2.7016,2.7355,2.7824,2.7966,2.7957,2.7963,2.7616,2.6784,2.6696,2.7237,2.7282,2.7298,2.7707,2.7307,2.6957,2.6696,2.6507,2.6949,2.7257,2.7636,2.7933,2.8146,2.8271,2.836,2.8335,2.8247,2.821,3.1005,3.1005,3.1005,3.1005,3.1005,3.1005,3.1005,3.1005,3.1005,3.1005,3.0953,3.0861,3.0822,3.0934,3.0704,3.0634,3.0568,3.0163,2.9844,2.9596,2.9078,2.8307,2.7663,2.7503,2.7503,2.7503,2.7503,2.7503,2.7503,2.7503,2.7503,2.7503,2.7556,2.759,2.7584,2.7781,2.7664,2.7269,2.6981,2.655,2.5968,2.5398,2.4951,2.4788,2.4611,2.4299,2.3865,2.3418,2.2876,2.2197,2.2523,2.228,2.1614,2.1819,2.1913,2.1616,2.1845,2.2074,2.2184,2.2619,2.2917,2.2971,2.3175,2.3202,2.3202,2.3202,2.3202,2.3269,2.3567,2.3865,2.3947,2.4231,2.4571,2.4638,2.4191,2.3879,2.3771,2.3364,2.3039,2.3148,2.3079,2.3314,2.3885,2.4751,2.5456,2.5712,2.6693,2.7699,2.7095,2.7273,2.7857,2.75,2.7434,2.7613,2.7377,2.6416,2.6208,2.6919,2.7018,2.6842,2.7484,2.7972,2.7864,2.7815,2.7538,2.7765,2.7767,2.7905,2.8155,2.8344,2.8159,2.8085,2.8323,2.8348,2.8299,3.132,3.1294,3.111,3.1005,3.1005,3.1005,3.1005,3.1005,3.1005,3.1005,3.1005,3.1005,3.1005,3.1005,3.0992,3.1005,3.0934,3.0647,3.0341,3.0014,2.951,2.8752,2.8016,2.7659,2.7503,2.7503,2.7503,2.7503,2.7503,2.7503,2.7503,2.7503,2.7503,2.7553,2.7656,2.7822,2.7903,2.7672,2.7487,2.718,2.6645,2.6321,2.5833,2.5615,2.556,2.5479,2.4882,2.4286,2.3581,2.2971,2.2971,2.2876,2.2307,2.2456,2.251,2.2197,2.2497,2.2659,2.2794,2.3242,2.354,2.3635,2.3744,2.3933,2.3987,2.3947,2.396,2.4055,2.4299,2.4448,2.453,2.4815,2.4964,2.4923,2.4679,2.4489,2.4462,2.3947,2.3744,2.3798,2.3757,2.3823,2.4175,2.5067,2.5302,2.5596,2.6589,2.6929,2.683,2.738,2.7703,2.74,2.7123,2.7267,2.7133,2.6312,2.6016,2.6645,2.7289,2.6983,2.7179,2.8048,2.8093,2.8047,2.8264,2.8348,2.8134,2.806,2.8235,2.8247,2.7971,2.7984,2.8259,2.8411,2.836,3.1797,3.1764,3.1222,3.1005,3.1005,3.1005,3.1005,3.1005,3.1005,3.1005,3.1005,3.1005,3.1005,3.1005,3.1005,3.1005,3.1005,3.094,3.0673,3.0223,2.9706,2.9096,2.8521,2.8094,2.7833,2.7742,2.7633,2.7777,2.7898,2.782,2.7673,2.7702,2.7646,2.7642,2.7716,2.7789,2.7973,2.8073,2.7989,2.7761,2.7424,2.7226,2.674,2.6185,2.636,2.636,2.59,2.5344,2.4598,2.354,2.3418,2.3351,2.3269,2.3188,2.3188,2.3148,2.3161,2.3296,2.3391,2.3838,2.4191,2.4272,2.4665,2.5005,2.4842,2.4787,2.4787,2.476,2.4977,2.4909,2.4923,2.5005,2.4991,2.4977,2.495,2.4977,2.491,2.4516,2.4394,2.4869,2.4476,2.4833,2.526,2.5481,2.5273,2.571,2.6575,2.6905,2.7005,2.7392,2.758,2.751,2.723,2.6978,2.6669,2.6231,2.6201,2.6478,2.7406,2.751,2.7028,2.7466,2.7661,2.7843,2.8052,2.8162,2.811,2.8134,2.8198,2.8235,2.8036,2.8162,2.836,2.8399,2.8372,3.1797,3.1758,3.1203,3.1005,3.1005,3.1005,3.1005,3.1005,3.1005,3.1005,3.1005,3.1005,3.1005,3.1005,3.1005,3.1005,3.1005,3.1005,3.0914,3.0764,3.0197,2.9653,2.9201,2.8939,2.8634,2.8386,2.8691,2.8874,2.8861,2.8726,2.8647,2.8242,2.8111,2.7998,2.7681,2.7749,2.7822,2.7874,2.7752,2.7639,2.7532,2.7304,2.7025,2.6672,2.6754,2.674,2.6537,2.6036,2.5588,2.5276,2.4815,2.4191,2.3594,2.3703,2.3716,2.3513,2.3716,2.3906,2.4001,2.4408,2.4801,2.4774,2.4869,2.4991,2.4991,2.5018,2.5004,2.4991,2.4991,2.5004,2.5072,2.5018,2.5072,2.5099,2.5059,2.5031,2.4977,2.4883,2.4855,2.4896,2.4869,2.4898,2.5189,2.5633,2.5715,2.6002,2.643,2.6964,2.7172,2.7314,2.7378,2.731,2.7092,2.6865,2.6986,2.6627,2.6502,2.6573,2.7338,2.7494,2.7015,2.732,2.7713,2.7826,2.7849,2.7857,2.7745,2.773,2.7693,2.787,2.8085,2.8134,2.821,2.8311,2.8287,3.2222,3.213,3.1326,3.1005,3.1005,3.1005,3.1005,3.1005,3.1005,3.1005,3.1005,3.1005,3.1005,3.1005,3.1005,3.1005,3.1005,3.1005,3.1005,3.0927,3.0634,3.021,2.9876,2.9828,2.9593,2.8678,2.8678,2.8978,2.9214,2.9305,2.9096,2.8808,2.856,2.8259,2.7902,2.7767,2.7719,2.7812,2.7773,2.7747,2.7765,2.7733,2.7651,2.7459,2.716,2.6903,2.7147,2.6632,2.6375,2.6171,2.5723,2.5018,2.4272,2.4326,2.4313,2.4204,2.4299,2.453,2.4638,2.4787,2.4977,2.5018,2.5004,2.5181,2.5236,2.5208,2.5181,2.5262,2.5222,2.5086,2.5385,2.575,2.5723,2.5466,2.5412,2.5317,2.5086,2.4991,2.4991,2.4991,2.4977,2.4964,2.5188,2.555,2.5564,2.5591,2.6363,2.6847,2.6548,2.672,2.6979,2.6972,2.6804,2.6807,2.7178,2.7123,2.685,2.6956,2.731,2.7025,2.6386,2.7122,2.7968,2.774,2.739,2.7287,2.7185,2.7183,2.7348,2.7578,2.7795,2.7922,2.8085,2.8235,2.8122,3.2757,3.2731,3.1509,3.1057,3.1104,3.1057,3.1005,3.1005,3.1005,3.1005,3.1005,3.1005,3.1005,3.1005,3.1005,3.1005,3.1005,3.0992,3.0979,3.0751,3.0901,3.0424,3.0111,3.0163,3.0051,2.8739,2.9004,2.9279,2.9567,2.9554,2.964,2.9371,2.8848,2.8521,2.8281,2.7824,2.7623,2.7796,2.7914,2.8022,2.8168,2.8303,2.8338,2.8184,2.7743,2.7445,2.7635,2.7296,2.6943,2.6888,2.6375,2.5819,2.5398,2.5046,2.5167,2.5181,2.5222,2.5236,2.5357,2.537,2.5398,2.529,2.5316,2.5548,2.5819,2.5588,2.548,2.548,2.5426,2.5154,2.5724,2.6077,2.6185,2.5995,2.5888,2.5697,2.5398,2.5168,2.4991,2.4991,2.4991,2.4991,2.5118,2.537,2.5258,2.5328,2.6121,2.6546,2.6256,2.6337,2.6718,2.6834,2.6712,2.6667,2.6988,2.6828,2.6663,2.6874,2.7187,2.661,2.5982,2.6515,2.7135,2.7024,2.6775,2.6839,2.6964,2.7093,2.7246,2.7386,2.7401,2.7429,2.772,2.8162,2.7992,3.2999,3.332,3.1698,3.1261,3.1568,3.1209,3.1057,3.1005,3.1044,3.1005,3.1005,3.1005,3.1005,3.1005,3.1005,3.1005,3.1005,3.0992,3.0751,3.0497,3.0699,3.0516,2.9862,3.0202,3.0119,3.0093,3.0137,3.043,3.0561,3.0704,3.0333,2.9936,2.9418,2.8961,2.8464,2.788,2.7681,2.7848,2.7911,2.7987,2.8145,2.8243,2.8311,2.8398,2.8127,2.8202,2.8191,2.7879,2.7554,2.7486,2.6971,2.6659,2.6303,2.5614,2.5587,2.6034,2.5968,2.5914,2.6211,2.6401,2.6469,2.6496,2.6387,2.6427,2.6469,2.6103,2.586,2.567,2.5426,2.5099,2.514,2.5941,2.605,2.5942,2.6051,2.609,2.6131,2.5723,2.5099,2.5018,2.5018,2.5005,2.5132,2.5244,2.5244,2.537,2.5946,2.6162,2.5892,2.6256,2.6849,2.6834,2.6715,2.6699,2.6781,2.6417,2.6189,2.6441,2.6581,2.6271,2.5881,2.5977,2.6148,2.6281,2.6715,2.7117,2.7159,2.6964,2.6912,2.6901,2.6888,2.6888,2.721,2.7572,2.7898,3.3326,3.3456,3.2352,3.2019,3.2182,3.1993,3.1692,3.1425,3.1418,3.1248,3.1071,3.1005,3.1005,3.1005,3.1005,3.1005,3.0992,3.1005,3.066,3.0341,3.0647,3.0581,2.9823,3.0262,3.0516,3.062,3.0874,3.0979,3.1005,3.0979,3.0817,3.0529,3.0006,2.9562,2.9144,2.8451,2.811,2.8097,2.8037,2.801,2.8109,2.824,2.836,2.8333,2.8382,2.843,2.839,2.8228,2.8073,2.8012,2.7581,2.7453,2.7163,2.6632,2.6082,2.6629,2.6535,2.6469,2.6754,2.6793,2.6752,2.6766,2.682,2.6969,2.7025,2.6726,2.6225,2.5887,2.5738,2.5466,2.5534,2.624,2.6577,2.6482,2.6592,2.6619,2.6416,2.6089,2.5669,2.5221,2.5113,2.5114,2.5062,2.516,2.5244,2.5508,2.5851,2.577,2.5564,2.5988,2.6574,2.6521,2.6402,2.6587,2.6548,2.6231,2.5963,2.6146,2.6202,2.5881,2.5795,2.5916,2.5885,2.589,2.6442,2.699,2.6522,2.604,2.6216,2.6431,2.6444,2.651,2.6718,2.6987,2.7386,3.3437,3.3372,3.2653,3.2411,3.2489,3.2404,3.2045,3.1712,3.1608,3.1346,3.1044,3.1005,3.1005,3.1005,3.0979,3.0953,3.0843,3.079,3.0438,3.0124,3.0458,3.0484,3.0367,3.0497,3.0712,3.0581,3.0495,3.0809,3.0992,3.1005,3.1005,3.0764,3.0361,3.01,2.98,2.9026,2.8704,2.8562,2.8435,2.8326,2.8262,2.8434,2.8487,2.83,2.8284,2.8333,2.8398,2.8309,2.833,2.8284,2.8082,2.788,2.8029,2.735,2.6929,2.7056,2.6975,2.6946,2.7126,2.7167,2.7275,2.7377,2.7228,2.7459,2.7472,2.7174,2.651,2.6036,2.5683,2.571,2.5888,2.6823,2.7187,2.7215,2.731,2.7445,2.6986,2.6606,2.6238,2.5832,2.5452,2.525,2.5238,2.509,2.516,2.5328,2.5646,2.5591,2.5425,2.5495,2.5879,2.5947,2.6042,2.635,2.635,2.615,2.5961,2.5991,2.6019,2.5838,2.5818,2.5863,2.5804,2.5746,2.5925,2.6258,2.5674,2.5578,2.6183,2.6454,2.6194,2.6265,2.6678,2.6923,2.7208,3.2803,3.2731,3.1685,3.147,3.185,3.1522,3.1227,3.1156,3.1196,3.1065,3.1005,3.1005,3.1005,3.1005,3.1005,3.0699,3.0419,3.0341,3.0119,2.9771,3.0132,3.0328,3.0113,3.0127,3.038,3.0354,2.9902,3.0142,3.0744,3.0966,3.0992,3.0856,3.0497,3.0127,3.0158,2.9518,2.9284,2.9315,2.9219,2.89,2.8527,2.8635,2.8548,2.8302,2.827,2.8327,2.8422,2.8317,2.83,2.832,2.8179,2.8068,2.8088,2.8035,2.7983,2.7887,2.7653,2.7431,2.7886,2.7945,2.7964,2.8044,2.8173,2.8381,2.8105,2.7428,2.6601,2.5956,2.5521,2.5481,2.5915,2.6523,2.7038,2.7432,2.7649,2.7976,2.7856,2.7311,2.693,2.6577,2.6238,2.5723,2.5426,2.5223,2.5075,2.5258,2.537,2.5314,2.5286,2.5342,2.5356,2.5467,2.5425,2.5682,2.5819,2.5672,2.57,2.5727,2.5742,2.5714,2.5657,2.5641,2.5766,2.5752,2.5811,2.5784,2.5605,2.5799,2.642,2.6447,2.6129,2.6383,2.682,2.699,2.7049,3.2999,3.2646,3.2182,3.2084,3.228,3.2045,3.1757,3.149,3.1451,3.1274,3.1044,3.1005,3.1005,3.1005,3.1005,3.0869,3.0647,3.055,3.0288,2.9954,3.0241,3.0406,3.0153,3.0127,3.0205,3.0341,3.0132,3.0281,3.0699,3.0699,3.062,3.094,3.0751,3.0647,3.0497,3.0045,2.9841,2.9738,2.9551,2.9337,2.9245,2.9225,2.9021,2.8478,2.8482,2.8379,2.8201,2.8072,2.8137,2.8235,2.8219,2.818,2.8128,2.8066,2.8052,2.7782,2.7561,2.7669,2.8168,2.8219,2.8249,2.8278,2.8324,2.8268,2.8166,2.7608,2.6873,2.6307,2.5801,2.5709,2.5968,2.6457,2.7038,2.7526,2.7976,2.8003,2.8193,2.8153,2.7759,2.7406,2.7011,2.6482,2.6008,2.5792,2.5509,2.5228,2.5298,2.5214,2.5159,2.5132,2.5118,2.509,2.4983,2.4902,2.5012,2.5025,2.5135,2.5204,2.537,2.5328,2.5328,2.5356,2.5564,2.5508,2.5356,2.5384,2.5467,2.5785,2.6171,2.6144,2.6034,2.6356,2.665,2.6709,2.6912,3.3045,3.2489,3.2476,3.2411,3.2313,3.2411,3.2123,3.1634,3.1719,3.149,3.1123,3.1005,3.1005,3.1005,3.0992,3.0869,3.0725,3.0764,3.0511,3.0406,3.0471,3.0568,3.0393,3.0315,3.0328,3.0764,3.0019,3.0145,3.0393,3.0445,3.0458,3.096,3.0953,3.0953,3.0856,3.0576,3.0346,3.032,3.0097,2.9916,2.9817,2.9671,2.927,2.8839,2.8532,2.8301,2.7951,2.7825,2.7973,2.8088,2.8072,2.797,2.7918,2.7881,2.7852,2.7673,2.7528,2.7644,2.7977,2.8102,2.8099,2.8131,2.8131,2.8197,2.8048,2.7648,2.724,2.6702,2.623,2.6133,2.6328,2.6774,2.729,2.785,2.8288,2.8166,2.8069,2.8164,2.8096,2.7705,2.7391,2.7296,2.6876,2.6565,2.6079,2.5444,2.5212,2.5155,2.5073,2.5033,2.5005,2.4991,2.4897,2.4777,2.4804,2.4803,2.4775,2.4816,2.4993,2.5202,2.5342,2.5397,2.5536,2.5356,2.5075,2.5075,2.523,2.555,2.5881,2.6188,2.6383,2.6256,2.6365,2.6464,2.6968,3.2424,3.185,3.1889,3.1634,3.1209,3.166,3.1555,3.1248,3.1634,3.1516,3.1117,3.1031,3.1071,3.1005,3.0966,3.0738,3.0249,3.0166,3.0231,3.0218,3.0179,3.0516,3.0471,3.0328,3.0145,3.0145,2.9862,2.9884,3.01,3.0393,3.0537,3.0927,3.0992,3.1005,3.0979,3.0856,3.079,3.0809,3.0702,3.0474,3.0149,2.9774,2.9302,2.8814,2.8281,2.7941,2.8073,2.7977,2.7928,2.7994,2.7832,2.7723,2.7719,2.7689,2.7673,2.7656,2.7556,2.7643,2.7792,2.7954,2.8131,2.8219,2.8219,2.8102,2.7957,2.7541,2.7213,2.7069,2.6616,2.6677,2.6981,2.7389,2.7597,2.802,2.8336,2.8344,2.8289,2.8362,2.8254,2.7933,2.7771,2.7743,2.7676,2.7352,2.6711,2.6051,2.5563,2.5478,2.5099,2.5005,2.5005,2.4977,2.4937,2.4897,2.4952,2.4896,2.472,2.4899,2.5147,2.5384,2.5619,2.5633,2.5425,2.5356,2.5132,2.5061,2.5019,2.53,2.5716,2.6454,2.6705,2.6451,2.6494,2.6717,2.7394,3.313,3.2901,3.2921,3.2176,3.1018,3.1222,3.1359,3.1529,3.1706,3.1706,3.1477,3.149,3.1313,3.1097,3.1005,3.0895,3.0673,3.066,3.0634,3.066,3.0712,3.0589,3.0484,3.0309,3.01,3.01,2.9923,3.0111,3.0634,3.0537,3.0712,3.0966,3.0966,3.1005,3.1005,3.1005,3.1005,3.1005,3.1005,3.0848,3.0744,3.0495,3.01,2.9555,2.9428,2.9061,2.8851,2.8396,2.8328,2.8217,2.793,2.7791,2.7705,2.7692,2.7666,2.7653,2.7536,2.7583,2.7633,2.7732,2.7752,2.7772,2.7792,2.7822,2.7786,2.7584,2.7407,2.7216,2.7008,2.7069,2.7256,2.7343,2.7485,2.8031,2.8324,2.836,2.8395,2.8411,2.8403,2.8079,2.8213,2.8329,2.8248,2.8125,2.7416,2.6695,2.6221,2.5734,2.5356,2.5004,2.4991,2.4937,2.4869,2.4868,2.4922,2.4787,2.4638,2.4899,2.5216,2.53,2.5411,2.5328,2.5146,2.5146,2.5104,2.4934,2.4892,2.5047,2.5464,2.6007,2.6357,2.649,2.6662,2.6849,2.7655,3.3064,3.3051,3.2894,3.2228,3.13,3.1431,3.1595,3.1771,3.1797,3.1797,3.1797,3.1784,3.1602,3.1287,3.1057,3.1005,3.0953,3.0953,3.0979,3.0966,3.0882,3.0725,3.0537,3.0557,3.0766,3.0609,3.0636,3.0915,3.1209,3.0908,3.0843,3.0856,3.083,3.079,3.1005,3.1005,3.1005,3.1005,3.1005,3.1005,3.0992,3.0744,3.0542,2.9988,2.9797,2.9528,2.9197,2.8869,2.8773,2.8711,2.8505,2.8193,2.8048,2.7943,2.781,2.7635,2.7516,2.7555,2.7719,2.7652,2.7616,2.7689,2.766,2.7606,2.757,2.764,2.7502,2.7356,2.7286,2.7343,2.7464,2.7517,2.761,2.8105,2.8177,2.8227,2.8229,2.8262,2.8311,2.8263,2.8395,2.8398,2.8427,2.8292,2.7904,2.7114,2.6326,2.5896,2.5574,2.5235,2.4991,2.4909,2.4787,2.4814,2.484,2.4784,2.4729,2.4672,2.4906,2.4892,2.4921,2.4932,2.4918,2.4863,2.482,2.472,2.4749,2.4848,2.5094,2.5437,2.5838,2.6302,2.6176,2.6439,2.7525,3.1902,3.1771,3.1392,3.1444,3.183,3.2385,3.2274,3.1954,3.2006,3.2006,3.1993,3.1928,3.1876,3.1673,3.13,3.1052,3.1091,3.1057,3.1044,3.1091,3.1175,3.1031,3.1169,3.1359,3.1523,3.1719,3.168,3.1686,3.1804,3.1164,3.0902,3.0803,3.0751,3.0576,3.0979,3.1005,3.1005,3.1005,3.1005,3.1005,3.0914,3.0594,3.0367,3.021,2.9941,2.9724,2.9632,2.941,2.9297,2.9249,2.9136,2.8821,2.8494,2.8363,2.8119,2.7755,2.762,2.7833,2.8285,2.8009,2.7937,2.792,2.7932,2.7915,2.7641,2.7575,2.7691,2.7689,2.7528,2.7581,2.769,2.7769,2.7865,2.7911,2.7967,2.803,2.8049,2.8082,2.8131,2.8243,2.8194,2.8194,2.833,2.8349,2.8186,2.7534,2.6568,2.6056,2.5828,2.5582,2.535,2.5066,2.4944,2.4808,2.486,2.486,2.4817,2.469,2.4769,2.4946,2.4974,2.5028,2.4918,2.4727,2.4857,2.5053,2.4842,2.4619,2.4852,2.51,2.5674,2.6018,2.5853,2.6187,2.7364,3.2052,3.2365,3.2202,3.2215,3.2287,3.1771,3.1836,3.2489,3.3097,3.3326,3.296,3.26,3.2398,3.2136,3.1509,3.1182,3.1399,3.1097,3.1097,3.1503,3.1516,3.1529,3.1712,3.2026,3.2208,3.2019,3.2117,3.2391,3.2411,3.1699,3.1542,3.1477,3.0915,3.0848,3.0966,3.1005,3.1005,3.1005,3.1005,3.1005,3.0979,3.0796,3.066,3.0647,3.043,3.0325,3.0273,3.0024,2.9849,2.9784,2.9653,2.9279,2.8952,2.8782,2.8547,2.8438,2.8425,2.8373,2.8795,2.8812,2.8594,2.8493,2.8493,2.8489,2.819,2.8111,2.8162,2.8091,2.7788,2.7784,2.7743,2.7643,2.7643,2.7627,2.7673,2.7772,2.7822,2.7871,2.7937,2.8082,2.8112,2.8096,2.818,2.8265,2.8158,2.8015,2.7171,2.6635,2.6371,2.6116,2.5867,2.5464,2.521,2.4984,2.4877,2.4983,2.4967,2.4881,2.5107,2.5446,2.542,2.5252,2.5208,2.5148,2.5304,2.5419,2.5129,2.4841,2.4626,2.4821,2.5522,2.6015,2.6052,2.6499,2.7412,3.1738,3.2084,3.2097,3.2117,3.2077,3.1705,3.2032,3.2842,3.3869,3.4097,3.3574,3.3156,3.2875,3.2483,3.1823,3.1196,3.1516,3.1425,3.1365,3.1823,3.2052,3.2091,3.23,3.2666,3.2816,3.26,3.2725,3.2947,3.262,3.2463,3.1843,3.121,3.1255,3.083,3.0673,3.0451,3.0647,3.0634,3.062,3.0764,3.0901,3.0966,3.0979,3.0966,3.094,3.0953,3.0887,3.0673,3.0393,3.0262,3.0085,2.975,2.951,2.9314,2.9096,2.9135,2.9248,2.9183,2.9457,2.9868,2.9598,2.9148,2.9274,2.9096,2.8795,2.8717,2.8769,2.8629,2.8158,2.8026,2.7971,2.7811,2.7572,2.7572,2.7605,2.7705,2.7761,2.7824,2.7858,2.8004,2.805,2.804,2.8053,2.8096,2.8114,2.798,2.7793,2.7329,2.685,2.6567,2.6301,2.5942,2.5661,2.5517,2.5316,2.5193,2.5163,2.5054,2.5374,2.5775,2.5699,2.5515,2.554,2.5564,2.5612,2.5581,2.5365,2.5133,2.5056,2.5167,2.5576,2.598,2.6203,2.6834,2.7549,3.1018,3.1005,3.0999,3.1104,3.1235,3.2234,3.2698,3.2836,3.3934,3.411,3.3639,3.36,3.3294,3.2698,3.2065,3.1555,3.1248,3.151,3.1732,3.198,3.2352,3.2568,3.2947,3.3339,3.3456,3.3561,3.3594,3.3391,3.279,3.2581,3.1712,3.1014,3.1484,3.0928,3.0385,2.9993,3.0197,3.0236,3.0458,3.0686,3.0927,3.1005,3.1005,3.1005,3.1005,3.1005,3.0966,3.0901,3.0887,3.0887,3.0887,3.0568,3.0315,3.0132,2.9771,2.9627,2.9805,3.0027,3.0171,3.0568,3.0529,2.9993,2.9711,2.9475,2.9331,2.9287,2.9323,2.917,2.8782,2.8586,2.8429,2.8072,2.7715,2.7702,2.7689,2.7745,2.7798,2.7841,2.7857,2.7917,2.7943,2.7968,2.804,2.8073,2.8087,2.7934,2.7801,2.7644,2.7208,2.6855,2.659,2.6367,2.6166,2.6111,2.5909,2.5638,2.5513,2.5456,2.5634,2.5936,2.5847,2.5884,2.6073,2.6099,2.5905,2.5824,2.5801,2.5733,2.5644,2.5806,2.591,2.6098,2.6368,2.6966,2.7561,3.1005,3.1044,3.1412,3.1582,3.1751,3.2829,3.3104,3.2881,3.3888,3.4267,3.4149,3.3777,3.3496,3.3247,3.2287,3.181,3.1529,3.1464,3.1875,3.2228,3.2659,3.3241,3.3686,3.3979,3.4136,3.4136,3.4084,3.3927,3.3783,3.3273,3.2973,3.279,3.2091,3.1294,3.0542,2.9862,2.9988,3.0061,3.038,3.0581,3.0835,3.0927,3.0953,3.0992,3.1005,3.1005,3.1005,3.1005,3.1005,3.1005,3.1005,3.0817,3.079,3.0367,2.9944,3.0001,3.0354,3.0751,3.0764,3.0901,3.0901,3.0738,3.0508,3.0255,3.0045,2.9857,2.9871,2.9693,2.9366,2.9122,2.89,2.8569,2.8373,2.836,2.832,2.8268,2.8347,2.8464,2.8464,2.8438,2.8421,2.8194,2.8208,2.808,2.8068,2.7891,2.7753,2.7663,2.7531,2.7182,2.6939,2.6731,2.6622,2.6551,2.6317,2.606,2.5963,2.5905,2.6086,2.619,2.6177,2.6311,2.6582,2.6634,2.6462,2.6425,2.6428,2.6334,2.6187,2.6075,2.6154,2.634,2.6601,2.7142,2.7558,3.1005,3.1057,3.1352,3.149,3.1725,3.2999,3.3247,3.296,3.3921,3.4397,3.4358,3.4071,3.3796,3.3496,3.2848,3.2293,3.1771,3.1869,3.215,3.2489,3.2901,3.3607,3.4123,3.4228,3.4175,3.4254,3.4201,3.3947,3.4031,3.3822,3.3483,3.3058,3.2522,3.1927,3.1156,3.0628,3.0471,3.032,3.0228,3.032,3.0529,3.0725,3.0764,3.0979,3.1005,3.1005,3.1005,3.1005,3.1005,3.1005,3.1005,3.1005,3.0979,3.0634,3.0471,3.0542,3.0712,3.094,3.0953,3.0966,3.1005,3.1005,3.1005,3.0809,3.062,3.0464,3.0445,3.0354,2.9941,2.9593,2.9384,2.9201,2.9201,2.9218,2.907,2.8939,2.907,2.9214,2.9227,2.9188,2.8978,2.8647,2.8455,2.8268,2.7994,2.7764,2.764,2.76,2.7561,2.7426,2.7266,2.7135,2.7036,2.6968,2.6723,2.654,2.6504,2.6465,2.6517,2.6595,2.6553,2.6723,2.7023,2.7075,2.701,2.6974,2.6909,2.6817,2.6684,2.6598,2.6588,2.682,2.6997,2.7177,2.7528,3.0848,3.0848,3.0979,3.1149,3.1365,3.2875,3.3169,3.2842,3.3744,3.4306,3.4345,3.4319,3.3979,3.36,3.3339,3.2777,3.23,3.2169,3.2293,3.2698,3.3038,3.3626,3.3914,3.3966,3.4162,3.4149,3.4091,3.4013,3.3783,3.3731,3.3561,3.2888,3.3077,3.2659,3.1771,3.1124,3.0863,3.0673,2.9862,2.9431,3.0132,3.0328,3.0406,3.0901,3.1005,3.1005,3.1005,3.1005,3.1005,3.1005,3.1005,3.1005,3.0979,3.0966,3.094,3.094,3.0966,3.0979,3.1005,3.1005,3.1005,3.1005,3.1005,3.0953,3.0874,3.0822,3.079,3.0751,3.0378,3.0215,3.0045,2.9706,2.9588,2.9671,2.9632,2.9627,2.9789,2.9894,2.9894,2.9841,2.9698,2.9358,2.8974,2.8804,2.8333,2.7863,2.7536,2.7536,2.752,2.752,2.748,2.7385,2.7324,2.7245,2.7206,2.7062,2.7092,2.7079,2.7013,2.7053,2.7049,2.7229,2.7451,2.7372,2.7271,2.7359,2.7333,2.719,2.7124,2.7193,2.7219,2.7372,2.7451,2.7415,2.7461,2.9711,2.9802,3.0639,3.1457,3.2287,3.2731,3.2829,3.2731,3.2967,3.36,3.4222,3.3979,3.377,3.3692,3.3652,3.3182,3.2685,3.2313,3.2339,3.2568,3.2934,3.3352,3.3796,3.4005,3.4201,3.4319,3.4254,3.4136,3.4123,3.4123,3.411,3.3856,3.3587,3.2771,3.2542,3.1777,3.0863,3.096,3.0059,2.9693,3.0516,3.0751,3.0927,3.1005,3.1005,3.1005,3.1005,3.1005,3.1005,3.1005,3.1005,3.1005,3.1005,3.1005,3.1005,3.1005,3.1005,3.1005,3.1005,3.1005,3.1005,3.1005,3.1005,3.1005,3.0992,3.1005,3.0979,3.094,3.0887,3.0777,3.0615,3.0249,3.0001,3.0098,3.0176,3.032,3.0451,3.0495,3.0508,3.043,3.0338,2.998,2.9588,2.9157,2.8699,2.8216,2.7715,2.752,2.752,2.7503,2.752,2.7451,2.7464,2.7425,2.7425,2.7398,2.7337,2.735,2.7298,2.7389,2.7506,2.749,2.7503,2.7503,2.7477,2.7503,2.7503,2.7464,2.7438,2.7503,2.7503,2.7503,2.7503,2.7451,2.7464,2.9292,2.941,3.0241,3.0942,3.1614,3.2346,3.2555,3.2352,3.2581,3.3038,3.3613,3.3613,3.3705,3.3888,3.394,3.3626,3.3051,3.2489,3.2515,3.2633,3.2751,3.3117,3.3535,3.3927,3.4175,3.4306,3.4384,3.4371,3.4397,3.4358,3.428,3.4052,3.3346,3.3071,3.3077,3.166,3.0981,3.1313,3.0438,3.0508,3.1005,3.0856,3.0861,3.0874,3.1005,3.1018,3.1005,3.1005,3.1005,3.1005,3.1005,3.1005,3.1005,3.1005,3.1005,3.1005,3.1005,3.1005,3.1005,3.1005,3.1005,3.1005,3.1005,3.1005,3.1005,3.1005,3.1005,3.0966,3.0966,3.0882,3.0869,3.0594,3.0568,3.062,3.0634,3.0686,3.0751,3.0796,3.0796,3.077,3.0542,3.0132,2.974,2.9405,2.8952,2.8455,2.7968,2.7689,2.7637,2.7581,2.7555,2.7503,2.7503,2.7503,2.7477,2.7464,2.7451,2.7477,2.7503,2.749,2.749,2.749,2.7503,2.7503,2.7503,2.7503,2.7503,2.7503,2.7503,2.7503,2.7503,2.7503,2.7503,2.7503,2.7503,2.9292,2.9371,2.9805,3.008,3.0322,3.1771,3.2228,3.1928,3.2261,3.2555,3.281,3.3169,3.3705,3.4136,3.428,3.4005,3.3613,3.3064,3.2908,3.2685,3.2672,3.2934,3.3234,3.3587,3.3966,3.4267,3.4384,3.4397,3.4397,3.4371,3.4162,3.3725,3.3464,3.3247,3.2738,3.2195,3.1784,3.1869,3.149,3.1182,3.0973,3.0641,3.0803,3.0947,3.1052,3.1039,3.1044,3.1005,3.1005,3.1005,3.1005,3.1005,3.1005,3.1005,3.1005,3.1005,3.1005,3.1005,3.1005,3.1005,3.1005,3.1005,3.1005,3.1005,3.1005,3.1005,3.1005,3.1005,3.1005,3.1005,3.0992,3.0979,3.0992,3.0973,3.096,3.0947,3.0992,3.1005,3.1005,3.1005,3.0699,3.0283,3.0053,2.9706,2.9261,2.8769,2.8386,2.8085,2.7872,2.782,2.7781,2.7637,2.7503,2.7503,2.7503,2.7542,2.7555,2.7503,2.7503,2.7503,2.7503,2.7503,2.7503,2.7503,2.7503,2.7503,2.7503,2.7503,2.7503,2.7503,2.7503,2.7503,2.7503,2.7503,2.7503,2.9292,2.9305,2.9436,2.9706,3.021,3.1013,3.1496,3.1706,3.1483,3.1803,3.2385,3.23,3.2692,3.3744,3.3744,3.377,3.4071,3.3561,3.3084,3.2771,3.2816,3.2862,3.3097,3.36,3.3927,3.4201,3.4397,3.4397,3.4397,3.4371,3.4136,3.3626,3.3084,3.3025,3.3247,3.2692,3.2195,3.2352,3.2208,3.1777,3.2058,3.1757,3.1287,3.1333,3.1412,3.1287,3.1143,3.1018,3.1005,3.1005,3.1005,3.1005,3.1005,3.1005,3.1005,3.1005,3.1005,3.1005,3.1005,3.1005,3.1005,3.1005,3.1005,3.1005,3.1005,3.1005,3.1005,3.1005,3.1005,3.1005,3.0992,3.0992,3.1005,3.1005,3.0992,3.0992,3.1005,3.1005,3.1005,3.1005,3.0914,3.0738,3.0686,3.032,2.9949,2.9523,2.9196,2.8865,2.836,2.819,2.8072,2.7898,2.7712,2.7503,2.7503,2.7607,2.7633,2.7555,2.7503,2.7503,2.7503,2.7503,2.7503,2.7503,2.7503,2.7503,2.7503,2.7503,2.7503,2.7503,2.7503,2.7503,2.7503,2.7503,2.7503]},{"header":{"parameterUnit":"m.s-1","parameterCategory":1,"la1":31.0,"la2":29.5877,"lo1":-88.7671,"lo2":-86.6584,"dy":0.0162,"dx":0.0185,"nx":115,"ny":88,"refTime":"2023-11-22T06:00:00:Z","depth":0,"parameterNumber":3,"parameterNumberName":"V-component_of_WINDS"},"data":[0.0,0.0,0.0,0.0,0.0,0.0,0.0,0.0,0.0,0.0,0.0,0.0,0.0,0.0,0.0,0.0,0.0,0.0,0.0,0.0,0.0,0.0,0.0,0.0,0.0,0.0,0.0,0.0,0.0,0.0,0.0,0.0,0.0,0.0,0.0,0.0,0.0,0.0,0.0,0.0,0.0,0.0,0.0,0.0,0.0,0.0,0.0,0.0,0.0,0.0,0.0,0.0,0.0,0.0,0.0,0.0,0.0,0.0,0.0,0.0,0.0,0.0,0.0,0.0,0.0,0.0,0.0,0.0,0.0,0.0,0.0,0.0,0.0,0.0,0.0,0.0,0.0,0.0,0.0,0.0,0.0,0.0,0.0,0.0,0.0,0.0,0.0,0.0,0.0,0.0,0.0,0.0,0.0,0.0,0.0,0.0,0.0,0.0,0.0,0.0,0.0,0.0,0.0,0.0,0.0,0.0,0.0,0.0,0.0,0.0,0.0,0.0,0.0,0.0,0.0,0.0,0.0,0.0,0.0,0.0,0.0,0.0,0.0,0.0,0.0,0.0,0.0,0.0,0.0,0.0,0.0,0.0,0.0,0.0,0.0,0.0,0.0,0.0,0.0,0.0,0.0,0.0,0.0,0.0,0.0,0.0,0.0,0.0,0.0,0.0,0.0,0.0,0.0,0.0,0.0,0.0,0.0,0.0,0.0,0.0,0.0,0.0,0.0,0.0,0.0,0.0,0.0,0.0,0.0,0.0,0.0,0.0,0.0,0.0,0.0,0.0,0.0,0.0,0.0,0.0,0.0,0.0,0.0,0.0,0.0,0.0,0.0,0.0,0.0,0.0,0.0,0.0,0.0,0.0,0.0,0.0,0.0,0.0,0.0,0.0,0.0,0.0,0.0,0.0,0.0,0.0,0.0,0.0,0.0,0.0,0.0,0.0,0.0,0.0,0.0,0.0,0.0,0.0,0.0,0.0,0.0,0.0,0.0,0.0,0.0,0.0,0.0,0.0,0.0,0.0,0.0,0.0,0.0,0.0,0.0,0.0,0.0,0.0,0.0,0.0,0.0,0.0,0.0,0.0,0.0,0.0,0.0,0.0,0.0,0.0,0.0,0.0,0.0,0.0,0.0,0.0,0.0,0.0,0.0,0.0,0.0,0.0,0.0,0.0,0.0,0.0,0.0,0.0,0.0,0.0,0.0,0.0,0.0,0.0,0.0,0.0,0.0,0.0,0.0,0.0,0.0,0.0,0.0,0.0,0.0,0.0,0.0,0.0,0.0,0.0,0.0,0.0,0.0,0.0,0.0,0.0,0.0,0.0,0.0,0.0,0.0,0.0,0.0,0.0,0.0,0.0,0.0,0.0,0.0,0.0,0.0,0.0,0.0,0.0,0.0,0.0,0.0,0.0,0.0,0.0,0.0,0.0,0.0,0.0,0.0,0.0,0.0,0.0,0.0,0.0,0.0,0.0,0.0,0.0,0.0,0.0,0.0,0.0,0.0,0.0,0.0,0.0,0.0,0.0,0.0,0.0,0.0,0.0,0.0,0.0,0.0,0.0,0.0,0.0,0.0,0.0,0.0,0.0,0.0,0.0,0.0,0.0,0.0,0.0,0.0,0.0,0.0,0.0,0.0,0.0,0.0,0.0,0.0,0.0,0.0,0.0,0.0,0.0,0.0,0.0,0.0,0.0,0.0,0.0,0.0,0.0,0.0,0.0,0.0,0.0,0.0,0.0,0.0,0.0,0.0,0.0,0.0,0.0,0.0,0.0,0.0,0.0,0.0,0.0,0.0,0.0,0.0,0.0,0.0,0.0,0.0,0.0,0.0,0.0,0.0,0.0,0.0,0.0,0.0,0.0,0.0,0.0,0.0,0.0,0.0,0.0,0.0,0.0,0.0,0.0,0.0,0.0,0.0,0.0,0.0,0.0,0.0,0.0,0.0,0.0,0.0,0.0,0.0,0.0,0.0,0.0,0.0,0.0,0.0,0.0,0.0,0.0,0.0,0.0,0.0,0.0,0.0,0.0,0.0,0.0,0.0,0.0,0.0,0.0,0.0,0.0,0.0,0.0,0.0,0.0,0.0,0.0,0.0,0.0,0.0,0.0,0.0,0.0,0.0,0.0,0.0,0.0,0.0,0.0,0.0,0.0,0.0,0.0,0.0,0.0,0.0,0.0,0.0,0.0,0.0,0.0,0.0,0.0,0.0,0.0,0.0,0.0,0.0,0.0,0.0,0.0,0.0,0.0,0.0,0.0,0.0,0.0,0.0,0.0,0.0,0.0,0.0,0.0,0.0,0.0,0.0,0.0,0.0,0.0,0.0,0.0,0.0,0.0,0.0,0.0,0.0,0.0,0.0,0.0,0.0,0.0,0.0,0.0,0.0,0.0,0.0,0.0,0.0,0.0,0.0,0.0,0.0,0.0,0.0,0.0,0.0,0.0,0.0,0.0,0.0,0.0,0.0,0.0,0.0,0.0,0.0,0.0,0.0,0.0,0.0,0.0,0.0,0.0,0.0,0.0,0.0,0.0,0.0,0.0,0.0,0.0,0.0,0.0,0.0,0.0,0.0,0.0,0.0,0.0,0.0,0.0,0.0,0.0,0.0,0.0,0.0,0.0,0.0,0.0,0.0,0.0,0.0,0.0,0.0,0.0,0.0,0.0,0.0,0.0,0.0,0.0,0.0,0.0,0.0,0.0,0.0,0.0,0.0,0.0,0.0,0.0,0.0,0.0,0.0,0.0,0.0,0.0,0.0,0.0,0.0,0.0,0.0,0.0,0.0,0.0,0.0,0.0,0.0,0.0,0.0,0.0,0.0,0.0,0.0,0.0,0.0,0.0,0.0,0.0,0.0,0.0,0.0,0.0,0.0,0.0,0.0,0.0,0.0,0.0,0.0,0.0,0.0,0.0,0.0,0.0,0.0,0.0,0.0,0.0,0.0,0.0,0.0,0.0,0.0,0.0,0.0,0.0,0.0,0.0,0.0,0.0,0.0,0.0,0.0,0.0,0.0,0.0,0.0,0.0,0.0,0.0,0.0,0.0,0.0,0.0,0.0,0.0,0.0,0.0,0.0,0.0,0.0,0.0,0.0,0.0,0.0,0.0,0.0,0.0,0.0,0.0,0.0,0.0,0.0,0.0,0.0,0.0,0.0,0.0,0.0,0.0,0.0,0.0,0.0,0.0,0.0,0.0,0.0,0.0,0.0,0.0,0.0,0.0,0.0,0.0,0.0,0.0,0.0,0.0,0.0,0.0,0.0,0.0,0.0,0.0,0.0,0.0,0.0,0.0,0.0,0.0,0.0,0.0,0.0,0.0,0.0,0.0,0.0,0.0,0.0,0.0,0.0,0.0,0.0,0.0,0.0,0.0,0.0,0.0,0.0,0.0,0.0,0.0,0.0,0.0,0.0,0.0,0.0,0.0,0.0,0.0,0.0,0.0,0.0,0.0,0.0,0.0,0.0,0.0,0.0,0.0,0.0,0.0,0.0,0.0,0.0,0.0,0.0,0.0,0.0,0.0,0.0,0.0,0.0,0.0,0.0,0.0,0.0,0.0,0.0,0.0,0.0,0.0,0.0,0.0,0.0,0.0,0.0,0.0,0.0,0.0,0.0,0.0,0.0,0.0,0.0,0.0,0.0,0.0,0.0,0.0,0.0,0.0,0.0,0.0,0.0,0.0,0.0,0.0,0.0,0.0,0.0,0.0,0.0,0.0,0.0,0.0,0.0,0.0,0.0,0.0,0.0,0.0,0.0,0.0,0.0,0.0,0.0,0.0,0.0,0.0,0.0,0.0,0.0,0.0,0.0,0.0,0.0,0.0,0.0,0.0,0.0,0.0,0.0,0.0,0.0,0.0,0.0,0.0,0.0,0.0,0.0,0.0,0.0,0.0,0.0,0.0,0.0,0.0,0.0,0.0,0.0,0.0,0.0,0.0,0.0,0.0,0.0,0.0,0.0,0.0,0.0,0.0,0.0,0.0,0.0,0.0,0.0,0.0,0.0,0.0,0.0,0.0,0.0,0.0,0.0,0.0,0.0,0.0,0.0,0.0,0.0,0.0,0.0,0.0,0.0,0.0,0.0,0.0,0.0,0.0,0.0,0.0,0.0,0.0,0.0,0.0,0.0,0.0,0.0,0.0,0.0,0.0,0.0,0.0,0.0,0.0,0.0,0.0,0.0,0.0,0.0,0.0,0.0,0.0,0.0,0.0,0.0,0.0,0.0,0.0,0.0,0.0,0.0,0.0,0.0,0.0,0.0,0.0,0.0,0.0,0.3607,0.0,0.0,0.0,0.0,0.0,0.0,0.0,0.0,0.0,0.0,0.0,0.0,0.0,0.0,0.0,0.0,0.0,0.0,0.0,0.0,0.0,0.0,0.0,0.0,0.0,0.0,0.0,0.0,0.0,0.0,0.0,0.0,0.0,0.0,0.0,0.0,0.0,0.0,0.0,0.0,0.0,0.0,0.0,0.0,0.0,0.0,0.0,0.0,0.0,0.0,0.0,0.0,0.0,0.0,0.0,0.0,0.0,0.0,0.0,0.0,0.0,0.0,0.0,0.0,0.0,0.0,0.0,0.0,0.0,0.0,0.0,0.0,0.0,0.0,0.0,0.0,0.0,0.0,0.0,0.0,0.0,0.0,0.0,0.0,0.0,0.0,0.0,0.0,0.0,0.0,0.0,0.0,0.0,0.0,0.0,0.0,0.0,0.0,0.0,0.0,0.0,0.0,0.0,0.0,0.0,0.0,0.0,0.0,0.0,0.0,0.3743,0.3607,0.3757,0.3782,0.3607,0.0,0.0,0.0,0.0,0.0,0.0,0.0,0.0,0.0,0.0,0.0,0.0,0.0,0.0,0.0,0.0,0.0,0.0,0.0,0.0,0.0,0.0,0.0,0.0,0.0,0.0,0.0,0.0,0.0,0.0,0.0,0.0,0.0,0.0,0.0,0.0,0.0,0.0,0.0,0.0,0.0,0.0,0.0,0.0,0.0,0.0,0.0,0.0,0.0,0.0,0.0,0.0,0.0,0.0,0.0,0.0,0.0,0.0,0.0,0.0,0.0,0.0,0.0,0.0,0.0,0.0,0.0,0.0,0.0,0.0,0.0,0.0,0.0,0.0,0.0,0.0,0.0,0.0,0.0,0.0,0.0,0.0,0.0,0.0,0.0,0.0,0.0,0.0,0.0,0.0,0.0,0.0,0.0,0.0,0.0,0.0,0.0,0.0,0.0,0.0,0.0,0.0,0.0,0.0,0.0,0.0,0.0,0.0,0.0,0.0,0.0,0.0,0.3867,0.3862,0.3713,0.0,0.0,0.0,0.0,0.0,0.0,0.0,0.0,0.0,0.0,0.0,0.0,0.0,0.0,0.0,0.0,0.0,0.0,0.0,0.0,0.0,0.0,0.0,0.0,0.0,0.0,0.0,0.0,0.0,0.0,0.0,0.0,0.0,0.0,0.0,0.0,0.0,0.0,0.0,0.0,0.0,0.0,0.0,0.0,0.0,0.0,0.0,0.0,0.0,0.0,0.0,0.0,0.0,0.0,0.0,0.0,0.0,0.0,0.0,0.0,0.0,0.0,0.0,0.0,0.0,0.0,0.0,0.0,0.0,0.0,0.0,0.0,0.0,0.0,0.0,0.0,0.0,0.0,0.0,0.0,0.0,0.0,0.0,0.0,0.0,0.0,0.0,0.0,0.0,0.0,0.0,0.0,0.0,0.0,0.0,0.0,0.0,0.0,0.0,0.0,0.0,0.0,0.0,0.0,0.0,0.0,0.0,0.0,0.0,0.0,0.3763,0.4058,0.4072,0.0,0.4058,0.0,0.0,0.0,0.0,0.0,0.0,0.0,0.0,0.0,0.0,0.0,0.0,0.0,0.0,0.0,0.0,0.0,0.0,0.0,0.0,0.0,0.0,0.0,0.0,0.0,0.0,0.0,0.0,0.0,0.0,0.0,0.0,0.0,0.0,0.0,0.0,0.0,0.0,0.0,0.0,0.0,0.0,0.0,0.0,0.0,0.0,0.0,0.0,0.0,0.0,0.0,0.0,0.0,0.0,0.0,0.0,0.0,0.0,0.0,0.0,0.0,0.0,0.0,0.0,0.0,0.0,0.0,0.0,0.0,0.0,0.0,0.0,0.0,0.0,0.0,0.0,0.0,0.0,0.0,0.0,0.0,0.0,0.0,0.0,0.0,0.0,0.0,0.0,0.0,0.0,0.0,0.0,0.0,0.0,0.0,0.0,0.0,0.0,0.0,0.0,0.0,0.0,0.0,0.0,0.0,0.0,0.0,0.0,0.0,0.0,0.3804,0.3988,0.3978,0.3959,0.0,0.0,0.0,0.0,0.0,0.0,0.0,0.0,0.0,0.0,0.0,0.0,0.0,0.0,0.0,0.0,0.0,0.0,0.0,0.0,0.0,0.0,0.0,0.0,0.0,0.0,0.0,0.0,0.0,0.0,0.0,0.0,0.0,0.0,0.0,0.0,0.0,0.0,0.0,0.0,0.0,0.0,0.0,0.0,0.0,0.0,0.0,0.0,0.0,0.0,0.0,0.0,0.0,0.0,0.0,0.0,0.0,0.0,0.0,0.0,0.0,0.0,0.0,0.0,0.0,0.0,0.0,0.0,0.0,0.0,0.0,0.0,0.0,0.0,0.0,0.0,0.0,0.0,0.0,0.0,0.0,0.0,0.0,0.0,0.0,0.0,0.0,0.0,0.0,0.0,0.0,0.0,0.0,0.0,0.0,0.0,0.0,0.0,0.0,0.0,0.0,0.0,0.0,0.0,0.0,0.0,0.0,0.0,0.0,0.0,0.4428,0.4071,0.4064,0.3954,0.3894,0.3884,0.0,0.0,0.0,0.0,0.0,0.0,0.0,0.0,0.0,0.0,0.0,0.0,0.0,0.0,0.0,0.0,0.0,0.0,0.0,0.0,0.0,0.0,0.0,0.0,0.0,0.0,0.0,0.0,0.0,0.0,0.0,0.0,0.0,0.0,0.0,0.0,0.0,0.0,0.0,0.0,0.0,0.0,0.0,0.0,0.0,0.0,0.0,0.0,0.0,0.0,0.0,0.0,0.0,0.0,0.0,0.0,0.0,0.0,0.0,0.0,0.0,0.0,0.0,0.0,0.0,0.0,0.0,0.0,0.0,0.0,0.0,0.0,0.0,0.0,0.0,0.0,0.0,0.0,0.0,0.0,0.0,0.0,0.0,0.0,0.0,0.0,0.0,0.0,0.0,0.0,0.0,0.0,0.0,0.0,0.0,0.0,0.0,0.0,0.0,0.0,0.0,0.0,0.0,0.0,0.0,0.0,0.0,0.0,0.6412,0.535,0.4655,0.4483,0.4099,0.3957,0.0,0.0,0.0,0.0,0.0,0.0,0.0,0.0,0.0,0.0,0.0,0.0,0.0,0.0,0.0,0.0,0.0,0.0,0.0,0.0,0.0,0.0,0.0,0.0,0.0,0.0,0.0,0.0,0.0,0.0,0.0,0.0,0.0,0.0,0.0,0.0,0.0,0.0,0.0,0.0,0.0,0.0,0.0,0.0,0.0,0.0,0.0,0.0,0.0,0.0,0.0,0.0,0.0,0.0,0.0,0.0,0.0,0.0,0.0,0.0,0.0,0.0,0.0,0.0,0.0,0.0,0.0,0.0,0.0,0.0,0.0,0.0,0.0,0.0,0.0,0.0,0.0,0.0,0.0,0.0,0.0,0.0,0.0,0.0,0.0,0.0,0.0,0.0,0.0,0.0,0.0,0.0,0.0,0.0,0.0,0.0,0.0,0.0,0.0,0.0,0.0,0.0,0.0,0.0,0.0,0.0,0.0,0.0,0.0,0.6299,0.5693,0.5302,0.5132,0.4706,0.4606,0.0,0.0,0.0,0.0,0.0,0.0,0.0,0.0,0.0,0.0,0.0,0.0,0.0,0.0,0.0,0.0,0.0,0.0,0.0,0.0,0.0,0.0,0.0,0.0,0.0,0.0,0.0,0.0,0.0,0.0,0.0,0.0,0.0,0.0,0.0,0.0,0.0,0.0,0.0,0.0,0.0,0.0,0.0,0.0,0.0,0.0,0.0,0.0,0.0,0.0,0.0,0.0,0.0,0.0,0.0,0.0,0.0,0.0,0.0,0.0,0.0,0.0,0.0,0.0,0.0,0.0,0.0,0.0,0.0,0.0,0.0,0.0,0.0,0.0,0.0,0.0,0.0,0.0,0.0,0.0,0.0,0.0,0.0,0.0,0.0,0.0,0.0,0.0,0.0,0.0,0.0,0.0,0.0,0.0,0.0,0.0,0.0,0.0,0.0,0.0,0.0,0.0,0.0,0.0,0.0,0.0,0.0,0.0,0.0,0.6548,0.0,0.6302,0.5805,0.5432,0.5193,0.0,0.0,0.0,0.0,0.0,0.0,0.0,0.0,0.0,0.0,0.0,0.0,0.0,0.0,0.0,0.0,0.0,0.0,0.0,0.0,0.0,0.0,0.0,0.0,0.0,0.0,0.0,0.0,0.0,0.0,0.0,0.0,0.0,0.0,0.0,0.0,0.0,0.0,0.0,0.0,0.0,0.0,0.0,0.0,0.0,0.0,0.0,0.0,0.0,0.0,0.0,0.0,0.0,0.0,0.0,0.0,0.0,0.0,0.0,0.0,0.0,0.0,0.0,0.0,0.0,0.0,0.0,0.0,0.0,0.0,0.0,0.0,0.0,0.0,0.0,0.0,0.0,0.0,0.0,0.0,0.0,0.0,0.0,0.0,0.0,0.0,0.0,0.0,0.0,0.0,0.0,0.0,0.0,0.0,0.0,0.0,0.0,0.0,0.0,0.0,0.0,0.0,0.0,0.0,0.0,0.0,0.0,0.0,0.7163,0.7288,0.7899,0.763,0.6461,0.6277,0.5684,0.0,0.0,0.0,0.0,0.0,0.0,0.0,0.0,0.0,0.0,0.0,0.0,0.0,0.0,0.0,0.0,0.0,0.0,0.0,0.0,0.0,0.0,0.0,0.0,0.0,0.0,0.0,0.0,0.0,0.0,0.0,0.0,0.0,0.0,0.0,0.0,0.0,0.0,0.0,0.0,0.0,0.0,0.0,0.0,0.0,0.0,0.0,0.0,0.0,0.0,0.0,0.0,0.0,0.0,0.0,0.0,0.0,0.0,0.0,0.0,0.0,0.0,0.0,0.0,0.0,0.0,0.0,0.0,0.0,0.0,0.0,0.0,0.0,0.0,0.0,0.0,0.0,0.0,0.0,0.0,0.0,0.0,0.0,0.0,0.0,0.0,0.0,0.0,0.0,0.0,0.0,0.0,0.0,0.0,0.0,0.0,0.0,0.0,0.0,0.0,0.0,0.0,0.0,0.0,0.0,0.0,0.0,0.0,0.0,0.6868,0.7735,0.8,0.7523,0.6962,0.6679,0.0,0.0,0.0,0.0,0.0,0.0,0.0,0.0,0.0,0.0,0.0,0.0,0.0,0.0,0.0,0.0,0.0,0.0,0.0,0.0,0.0,0.0,0.0,0.0,0.0,0.0,0.0,0.0,0.0,0.0,0.0,0.0,0.0,0.0,0.0,0.0,0.0,0.0,0.0,0.0,0.0,0.0,0.0,0.0,0.0,0.0,0.0,0.0,0.0,0.0,0.0,0.0,0.0,0.0,0.0,0.0,0.0,0.0,0.0,0.0,0.0,0.0,0.0,0.0,0.0,0.0,0.0,0.0,0.0,0.0,0.0,0.0,0.0,0.0,0.0,0.0,0.0,0.0,0.0,0.0,0.0,0.0,0.0,0.0,0.0,0.0,0.0,0.0,0.0,0.0,0.0,0.0,0.0,0.0,0.0,0.0,0.0,0.0,0.0,0.0,0.0,0.0,0.0,0.0,0.0,0.0,0.0,0.0,0.0,0.7269,0.818,0.8599,0.8332,0.7782,0.7408,0.7201,0.0,0.0,0.0,0.0,0.0,0.0,0.0,0.0,0.0,0.0,0.0,0.0,0.0,0.0,0.0,0.0,0.0,0.0,0.0,0.0,0.0,0.0,0.0,0.0,0.0,0.0,0.0,0.0,0.0,0.0,0.0,0.0,0.0,0.0,0.0,0.0,0.0,0.0,0.0,0.0,0.0,0.0,0.0,0.0,0.0,0.0,0.0,0.0,0.0,0.0,0.0,0.0,0.0,0.0,0.0,0.0,0.0,0.0,0.0,0.0,0.0,0.0,0.0,0.0,0.0,0.0,0.0,0.0,0.0,0.0,0.0,0.0,0.0,0.0,0.0,0.0,0.0,0.0,0.0,0.0,0.0,0.0,0.0,0.0,0.0,0.0,0.0,0.0,0.0,0.0,0.0,0.0,0.0,0.0,0.0,0.0,0.0,0.0,0.0,0.0,0.0,0.0,0.0,0.0,0.0,0.0,0.0,0.0,0.8213,0.91,0.9326,0.8889,0.8614,0.7918,0.0,0.0,0.0,0.0,0.0,0.0,0.0,0.0,0.0,0.0,0.0,0.0,0.0,0.0,0.0,0.0,0.0,0.0,0.0,0.0,0.0,0.0,0.0,0.0,0.0,0.0,0.0,0.0,0.0,0.0,0.0,0.0,0.0,0.0,0.0,0.0,0.0,0.0,0.0,0.0,0.0,0.0,0.0,0.0,0.0,0.0,0.0,0.0,0.0,0.0,0.0,0.0,0.0,0.0,0.0,0.0,0.0,0.0,0.0,0.0,0.0,0.0,0.0,0.0,0.0,0.0,0.0,0.0,0.0,0.0,0.0,0.0,0.0,0.0,0.0,0.0,0.0,0.0,0.0,0.0,0.0,0.0,0.0,0.0,0.0,0.0,0.0,0.0,0.0,0.0,0.0,0.0,0.0,0.0,0.0,0.0,0.0,0.0,0.0,0.0,0.0,0.0,0.0,0.0,0.0,0.0,0.0,0.0,0.0,0.8414,0.8851,0.9025,0.889,0.849,0.8125,0.0,0.0,0.0,0.0,0.0,0.0,0.0,0.0,0.0,0.0,0.0,0.0,0.0,0.0,0.0,0.0,0.0,0.0,0.0,0.0,0.0,0.0,0.0,0.0,0.0,0.0,0.0,0.0,0.0,0.0,0.0,0.0,0.0,0.0,0.0,0.0,0.0,0.0,0.0,0.0,0.0,0.0,0.0,0.0,0.0,0.0,0.0,0.0,0.0,0.0,0.0,0.0,0.0,0.0,0.0,0.0,0.0,0.0,0.0,0.0,0.0,0.0,0.0,0.0,0.0,0.0,0.0,0.0,0.0,0.0,0.0,0.0,0.0,0.0,0.0,0.0,0.0,0.0,0.0,0.0,0.0,0.0,0.0,0.0,0.0,0.0,0.0,0.0,0.0,0.0,0.0,0.0,0.0,0.0,0.0,0.0,0.0,0.0,0.0,0.0,0.0,0.0,0.0,0.0,0.0,0.0,0.0,0.0,0.8032,0.8506,0.8646,0.8733,0.8716,0.8463,0.822,0.0,0.0,0.0,0.0,0.0,0.0,0.0,0.0,0.0,0.0,0.0,0.0,0.0,0.0,0.0,0.0,0.0,0.0,0.0,0.0,0.0,0.0,0.0,0.0,0.0,0.0,0.0,0.0,0.0,0.0,0.0,0.0,0.0,0.0,0.0,0.0,0.0,0.0,0.0,0.0,0.0,0.0,0.0,0.0,0.0,0.0,0.0,0.0,0.0,0.0,0.0,0.0,0.0,0.0,0.0,0.0,0.0,0.0,0.0,0.0,0.0,0.0,0.0,0.0,0.0,0.0,0.0,0.0,0.0,0.0,0.0,0.0,0.0,0.0,0.0,0.0,0.0,0.0,0.0,0.0,0.0,0.0,0.0,0.0,0.0,0.0,0.0,0.0,0.0,0.0,0.0,0.0,0.0,0.0,0.0,0.0,0.0,0.0,0.0,0.0,0.0,0.0,0.0,0.0,0.0,0.0,0.0,0.0,0.81,0.8484,0.8517,0.8517,0.8517,0.849,0.8264,0.0,0.0,0.0,0.0,0.0,0.0,0.0,0.0,0.0,0.0,0.0,0.0,0.0,0.0,0.0,0.0,0.0,0.0,0.0,0.0,0.0,0.0,0.0,0.0,0.0,0.0,0.0,0.0,0.0,0.0,0.0,0.0,0.0,0.0,0.0,0.0,0.0,0.0,0.0,0.0,0.0,0.0,0.0,0.0,0.0,0.0,0.0,0.0,0.0,0.0,0.0,0.0,0.0,0.0,0.0,0.0,0.0,0.0,0.0,0.0,0.0,0.0,0.0,0.0,0.0,0.0,0.0,0.0,0.0,0.0,0.0,0.0,0.0,0.0,0.0,0.0,0.0,0.0,0.0,0.0,0.0,0.0,0.0,0.0,0.0,0.0,0.0,0.0,0.0,0.0,0.0,0.0,0.0,0.0,0.0,0.0,0.0,0.0,0.0,0.0,0.0,0.0,0.0,0.0,0.0,0.0,0.0,0.0,0.8605,0.8522,0.8517,0.8517,0.8495,0.8344,0.8122,0.0,0.0,0.0,0.0,0.0,0.0,0.0,0.0,0.0,0.0,0.0,0.0,0.0,0.0,0.0,0.0,0.0,0.0,0.0,0.0,0.0,0.0,0.0,0.0,0.0,0.0,0.0,0.0,0.0,0.0,0.0,0.0,0.0,0.0,0.0,0.0,0.0,0.0,0.0,0.0,0.0,0.0,0.0,0.0,0.0,0.0,0.0,0.0,0.3786,0.0,0.0,0.0,0.0,0.0,0.0,0.0,0.0,0.0,0.0,0.0,0.0,0.0,0.0,0.0,0.0,0.0,0.0,0.0,0.0,0.0,0.0,0.0,0.0,0.0,0.0,0.0,0.0,0.0,0.0,0.0,0.0,0.0,0.0,0.0,0.0,0.0,0.0,0.0,0.0,0.0,0.0,0.0,0.0,0.0,0.0,0.0,0.0,0.0,0.0,0.0,0.0,0.0,0.0,0.0,0.0,0.0,0.0,0.0,0.9134,0.8882,0.8883,0.877,0.8495,0.8409,0.8172,0.0,0.0,0.0,0.0,0.0,0.0,0.0,0.0,0.0,0.0,0.0,0.0,0.0,0.0,0.0,0.0,0.0,0.0,0.0,0.0,0.0,0.0,0.0,0.0,0.0,0.0,0.0,0.0,0.0,0.0,0.0,0.0,0.0,0.0,0.0,0.0,0.0,0.0,0.0,0.0,0.0,0.0,0.0,0.0,0.0,0.0,0.0,0.0,0.0,0.0,0.0,0.0,0.0,0.0,0.0,0.0,0.0,0.0,0.0,0.0,0.0,0.0,0.0,0.0,0.0,0.0,0.0,0.0,0.0,0.0,0.0,0.0,0.0,0.0,0.0,0.0,0.0,0.0,0.0,0.0,0.0,0.0,0.0,0.0,0.0,0.0,0.0,0.0,0.0,0.0,0.0,0.0,0.0,0.0,0.0,0.0,0.0,0.0,0.0,0.0,0.0,0.0,0.0,0.0,0.0,0.0,0.0,0.9734,0.9658,0.9362,0.9342,0.9125,0.8682,0.8592,0.8347,0.7936,0.0,0.0,0.0,0.0,0.0,0.0,0.0,0.0,0.0,0.0,0.0,0.0,0.0,0.0,0.0,0.0,0.0,0.0,0.0,0.0,0.0,0.0,0.0,0.0,0.0,0.0,0.0,0.0,0.0,0.0,0.0,0.0,0.0,0.0,0.0,0.0,0.0,0.0,0.7546,0.7451,0.0,0.0,0.0,0.0,0.0,0.0,0.0,0.0,0.5353,0.0,0.0,0.0,0.0,0.0,0.0,0.0,0.0,0.0,0.0,0.0,0.0,0.0,0.0,0.0,0.0,0.0,0.0,0.0,0.0,0.0,0.0,0.0,0.0,0.0,0.0,0.0,0.0,0.0,0.0,0.0,0.0,0.0,0.0,0.0,0.0,0.0,0.0,0.0,0.0,0.0,0.0,0.0,0.0,0.0,0.0,0.0,0.0,0.0,0.0,0.0,0.0,0.0,0.0,0.0,0.0,1.1349,1.0597,1.0003,0.958,0.955,0.9503,0.9411,0.8982,0.8651,0.8472,0.0,0.0,0.0,0.0,0.0,0.0,0.0,0.0,0.0,0.0,0.0,0.0,0.0,0.0,0.0,0.0,0.0,0.0,0.0,0.0,0.0,0.0,0.0,0.0,0.0,0.0,0.0,0.0,0.0,0.0,0.0,0.0,0.0,0.0,0.0,0.0,0.0,0.0,0.0,0.8382,0.8238,0.0,0.0,0.0,0.0,0.0,0.0,0.0,0.0,0.5372,0.0,0.0,0.0,0.0,0.0,0.0,0.0,0.0,0.0,0.0,0.0,0.0,0.0,0.0,0.0,0.0,0.0,0.0,0.0,0.0,0.0,0.0,0.0,0.0,0.0,0.0,0.0,0.0,0.0,0.0,0.0,0.0,0.0,0.0,0.0,0.0,0.0,0.0,0.0,0.0,0.0,0.0,0.0,0.0,0.0,0.0,0.0,0.0,0.0,0.0,0.0,0.0,0.0,0.0,0.0,1.1609,1.1196,1.0725,1.0243,0.9892,0.9535,0.9187,0.9035,0.8723,0.0,0.0,0.0,0.0,0.0,0.0,0.0,0.0,0.0,0.0,0.0,0.0,0.0,0.0,0.0,0.0,0.0,0.0,0.0,0.0,0.0,0.0,0.0,0.0,0.0,0.0,0.0,0.0,0.0,0.0,0.0,0.0,0.0,0.0,0.0,0.0,0.0,0.0,0.0,0.0,0.8796,0.8713,0.8458,0.0,0.0,0.0,0.0,0.0,0.0,0.6238,0.6155,0.0,0.0,0.0,0.0,0.0,0.0,0.0,0.0,0.0,0.0,0.0,0.0,0.0,0.0,0.0,0.0,0.0,0.0,0.0,0.0,0.0,0.0,0.0,0.0,0.0,0.0,0.0,0.0,0.0,0.0,0.0,0.0,0.0,0.0,0.0,0.0,0.0,0.0,0.0,0.0,0.0,0.0,0.0,0.0,0.0,0.0,0.0,0.0,0.0,0.0,0.0,0.0,0.0,0.0,0.0,1.17,1.1617,1.1336,1.0828,1.0243,0.9713,0.9256,0.9191,0.8831,0.0,0.0,0.0,0.0,0.0,0.0,0.0,0.0,0.0,0.0,0.0,0.0,0.0,0.0,0.0,0.0,0.0,0.0,0.0,0.0,0.0,0.0,0.0,0.0,0.0,0.0,0.0,0.0,0.0,0.0,0.0,0.0,0.0,0.0,0.0,0.0,0.0,0.0,0.0,0.0,0.0,0.9456,0.9192,0.8913,0.0,0.0,0.0,0.0,0.6784,0.7045,0.0,0.0,0.0,0.0,0.0,0.0,0.0,0.0,0.0,0.0,0.0,0.0,0.0,0.0,0.0,0.0,0.0,0.0,0.0,0.0,0.0,0.0,0.0,0.0,0.0,0.0,0.0,0.0,0.0,0.0,0.0,0.0,0.0,0.0,0.0,0.0,0.0,0.0,0.0,0.0,0.0,0.0,0.0,0.0,0.0,0.0,0.0,0.0,0.0,0.0,0.0,0.0,0.0,0.0,0.0,0.0,1.2348,1.1808,1.1296,1.0895,1.0576,1.0526,1.0717,0.9848,0.9286,0.0,0.0,0.0,0.0,0.0,0.0,0.0,0.0,0.0,0.0,0.0,0.0,0.0,0.0,0.0,0.0,0.0,0.0,0.0,0.0,0.0,0.0,0.0,0.0,0.0,0.0,0.0,0.0,0.0,0.0,0.0,0.0,0.0,0.0,0.0,0.0,0.0,0.0,0.0,0.0,0.0,1.1224,0.9884,0.9962,0.9952,0.0,0.0,0.813,0.7925,0.815,0.0,0.0,0.0,0.0,0.0,0.0,0.0,0.0,0.0,0.0,0.0,0.0,0.0,0.0,0.0,0.0,0.0,0.0,0.0,0.0,0.0,0.0,0.0,0.0,0.0,0.0,0.0,0.0,0.0,0.0,0.0,0.0,0.0,0.0,0.0,0.0,0.0,0.0,0.0,0.0,0.0,0.0,0.0,0.0,0.0,0.0,0.0,0.0,0.0,0.0,0.0,0.0,0.0,0.0,0.0,1.2706,1.2439,1.1998,1.1591,1.1196,1.073,1.0518,1.0551,1.0029,0.9561,0.0,0.0,0.0,0.0,0.0,0.0,0.0,0.0,0.0,0.0,0.0,0.0,0.0,0.0,0.0,0.0,0.0,0.0,0.0,0.0,0.0,0.0,0.0,0.0,0.0,0.0,0.0,0.0,0.0,0.0,0.0,0.0,0.0,0.0,0.0,0.0,0.0,0.0,0.0,0.0,0.0,0.0,1.0713,1.0523,0.0,0.0,0.0,0.9027,0.8761,0.0,0.0,0.0,0.0,0.0,0.0,0.0,0.0,0.0,0.0,0.0,0.0,0.0,0.0,0.0,0.0,0.0,0.0,0.0,0.0,0.0,0.0,0.0,0.0,0.0,0.0,0.0,0.0,0.0,0.0,0.0,0.0,0.0,0.0,0.0,0.0,0.0,0.0,0.0,0.0,0.0,0.0,0.0,0.0,0.0,0.0,0.0,0.0,0.0,0.0,0.0,0.0,0.0,0.0,0.0,0.0,0.0,1.2415,1.2195,1.1866,1.1392,1.0877,1.0556,1.046,1.0158,0.0,0.0,0.0,0.0,0.0,0.0,0.0,0.0,0.0,0.0,0.0,0.0,0.0,0.0,0.0,0.0,0.0,0.0,0.0,0.0,0.0,0.0,0.0,0.0,0.0,0.0,0.0,0.9425,0.0,0.0,0.0,0.0,0.0,0.0,0.0,0.0,0.0,0.0,0.0,0.0,0.0,0.0,1.1561,1.1558,1.1301,1.1368,0.0,0.0,1.0201,0.9848,0.9961,0.9425,0.0,0.0,0.0,0.0,0.0,0.0,0.0,0.0,0.0,0.0,0.0,0.0,0.0,0.0,0.0,0.0,0.0,0.0,0.0,0.0,0.0,0.0,0.0,0.0,0.0,0.0,0.0,0.0,0.0,0.0,0.0,0.0,0.0,0.0,0.0,0.0,0.0,0.0,0.0,0.0,0.0,0.0,0.0,0.0,0.0,0.0,0.0,0.0,0.0,0.0,0.0,0.0,0.0,0.0,0.0,1.2429,1.2375,1.2033,1.1328,1.1015,1.0992,1.1196,1.0436,0.9954,0.0,0.0,0.0,0.0,0.0,0.0,0.0,0.0,0.0,0.0,0.0,0.0,0.0,0.0,0.0,0.0,0.0,0.0,0.0,0.0,0.0,0.0,0.0,0.0,0.0,0.0,0.0,0.0,0.0,0.0,0.0,0.0,0.0,0.0,0.0,0.0,0.0,0.0,0.0,0.0,0.0,1.3078,1.2422,1.2716,1.3112,0.0,0.0,1.1877,1.1494,1.1602,1.0979,0.874,0.0,0.0,0.0,0.0,0.0,0.0,0.0,0.0,0.0,0.0,0.0,0.0,0.0,0.0,0.0,0.0,0.0,0.0,0.0,0.0,0.0,0.0,0.0,0.0,0.0,0.0,0.0,0.0,0.0,0.0,0.0,0.0,0.0,0.0,0.0,0.0,0.0,0.0,0.0,0.0,0.0,0.0,0.0,0.0,0.0,0.0,0.0,0.0,0.0,0.0,0.0,0.0,0.0,1.339,1.2786,1.2523,1.2154,1.161,1.1307,1.1205,1.1293,1.0822,1.0552,0.0,0.0,0.0,0.0,0.0,0.0,0.0,0.0,0.0,0.0,0.0,0.0,0.0,0.0,0.0,0.0,0.0,0.0,0.0,0.0,0.0,0.0,0.0,0.0,0.0,0.0,0.0,0.0,1.0419,1.054,1.0939,0.0,0.0,0.0,0.0,0.0,0.0,0.0,0.0,0.0,0.0,1.3903,1.3818,1.3863,0.0,0.0,1.3984,1.3234,1.2676,1.2574,1.1899,0.9878,0.8804,0.0,0.0,0.0,0.0,0.0,0.0,0.0,0.0,0.0,0.0,0.0,0.0,0.0,0.0,0.0,0.0,0.0,0.0,0.0,0.0,0.0,0.0,0.0,0.0,0.0,0.0,0.0,0.0,0.0,0.0,0.0,0.0,0.0,0.0,0.0,0.0,0.0,0.0,0.0,0.0,0.0,0.0,0.0,0.0,0.0,0.0,0.0,0.0,0.0,0.0,0.0,0.0,1.3919,1.3327,1.2984,1.2524,1.1898,1.1589,1.14,1.128,1.1036,1.0888,0.0,0.0,0.0,0.0,0.0,0.0,0.0,0.0,0.0,0.0,0.0,0.0,0.0,0.0,0.0,0.0,0.0,0.0,0.0,0.0,0.0,0.0,0.0,0.0,0.0,0.0,0.0,0.0,1.0919,1.123,1.1903,0.0,0.0,0.0,0.0,0.0,0.0,0.0,0.0,0.0,0.0,1.4584,1.4775,1.4646,1.47,1.5207,1.4625,1.3959,1.3527,1.3385,1.277,1.1083,0.0,0.0,0.0,0.0,0.0,0.0,0.0,0.0,0.0,0.0,0.0,0.0,0.0,0.0,0.0,0.0,0.0,0.0,0.0,0.0,0.0,0.0,0.0,0.0,0.0,0.0,0.0,0.0,0.0,0.0,1.5034,0.0,0.0,0.0,0.0,0.0,0.0,0.0,0.0,0.0,0.0,0.0,0.0,0.0,0.0,0.0,0.0,0.0,0.0,0.0,0.0,0.0,0.0,1.4804,1.4112,1.3855,1.3223,1.2122,1.1894,1.1644,1.131,1.1036,1.0888,1.0896,0.0,0.0,0.0,0.0,0.0,0.0,0.0,0.0,0.0,0.0,0.0,0.0,0.0,0.0,0.0,0.0,0.0,0.0,0.0,0.0,0.0,0.0,0.0,0.0,0.0,0.0,1.1806,1.2188,1.2752,0.0,0.0,0.0,0.0,0.0,0.0,0.0,0.0,0.0,0.0,1.4802,1.5178,1.5138,1.5103,1.5122,1.506,1.4468,1.4026,1.401,1.4074,1.373,0.0,0.0,0.0,0.0,0.0,0.0,0.0,0.0,0.0,0.0,0.0,0.0,0.0,0.0,0.0,0.0,0.0,0.0,0.0,0.0,0.0,0.0,0.0,0.0,0.0,0.0,0.0,1.8866,1.7816,0.0,0.0,0.0,0.0,0.0,0.0,0.0,0.0,0.0,0.0,0.0,2.0408,2.1078,0.0,0.0,0.0,0.0,0.0,0.0,0.0,0.0,0.0,0.0,0.0,0.0,1.576,1.5165,1.4394,1.3488,1.2476,1.2152,1.1774,1.131,1.1204,1.1087,1.0905,0.0,0.0,0.0,0.0,0.0,0.0,0.0,0.0,0.0,0.0,0.0,0.0,0.0,0.0,0.0,0.0,0.0,0.0,0.0,0.0,0.0,0.0,0.0,0.0,0.0,1.3167,0.0,0.0,0.0,0.0,0.0,0.0,0.0,0.0,0.0,0.0,0.0,1.6376,1.6711,1.7193,1.7352,1.6843,1.676,1.6614,0.0,0.0,0.0,0.0,0.0,0.0,0.0,0.0,0.0,0.0,0.0,0.0,0.0,0.0,1.6551,1.452,1.377,1.355,1.379,0.0,0.0,0.0,0.0,0.0,0.0,0.0,0.0,0.0,0.0,0.0,0.0,0.0,0.0,2.1098,0.0,1.9837,0.0,0.0,0.0,0.0,0.0,0.0,0.0,0.0,2.2005,2.2412,2.2303,2.297,2.2931,0.0,2.2192,2.1409,0.0,0.0,0.0,0.0,0.0,0.0,0.0,0.0,1.7258,1.6397,1.5302,1.429,1.3373,1.2511,1.1839,1.1373,1.1326,1.1226,1.1027,1.1046,1.0928,0.0,0.0,0.0,0.0,0.0,0.0,0.0,0.0,0.0,0.0,0.0,0.0,0.0,0.0,0.0,0.0,0.0,0.0,0.0,0.0,0.0,0.0,0.0,1.4083,0.0,0.0,0.0,0.0,0.0,0.0,0.0,0.0,0.0,1.7286,1.765,1.821,1.8667,1.8762,1.8668,1.8291,0.0,0.0,0.0,0.0,0.0,0.0,0.0,1.528,1.594,1.5166,1.5472,1.838,1.8357,1.7925,1.7892,0.0,0.0,1.6198,1.5723,1.5739,1.6075,1.6061,1.6278,1.7159,1.7233,1.7356,0.0,0.0,0.0,0.0,0.0,0.0,0.0,0.0,2.3619,2.3384,0.0,2.2211,0.0,0.0,0.0,0.0,0.0,2.257,0.0,0.0,2.3536,2.3783,2.3393,2.3416,2.3618,2.4013,2.3532,2.3532,2.3792,2.067,0.0,0.0,0.0,0.0,0.0,0.0,1.9096,1.7693,1.6526,1.5551,1.4756,1.2982,1.187,1.152,1.1364,1.1301,1.1297,1.1289,1.1186,1.0925,1.1277,0.0,0.0,0.0,0.0,0.0,0.0,0.0,0.0,0.0,0.0,0.0,0.0,0.0,0.0,0.0,0.0,0.0,0.0,0.0,0.0,1.4453,0.0,0.0,0.0,0.0,0.0,0.0,0.0,0.0,0.0,0.0,1.919,1.8523,1.8596,1.9982,0.0,0.0,0.0,0.0,1.772,1.7483,1.6575,1.6072,1.6466,1.6305,1.6576,1.7954,0.0,0.0,2.2254,2.0699,1.8818,1.8692,1.9209,1.9468,1.8902,1.8902,1.9273,1.977,1.9608,1.9923,2.0399,2.0207,2.0366,2.6581,0.0,0.0,0.0,0.0,2.5862,2.5951,2.6214,2.6054,2.539,2.4349,2.4042,0.0,0.0,0.0,0.0,0.0,0.0,2.3967,2.4482,2.44,2.4483,2.474,2.5128,2.5284,2.5283,2.526,2.52,2.5001,2.3118,2.2162,2.2088,0.0,0.0,0.0,0.0,1.9073,1.7947,1.7061,1.6029,1.4817,1.3525,1.2423,1.1524,1.1377,1.1301,1.1301,1.129,1.1262,1.119,1.1293,0.0,0.0,0.0,0.0,0.0,0.0,0.0,0.0,0.0,0.0,0.0,0.0,0.0,0.0,0.0,0.0,0.0,0.0,0.0,1.5814,1.6283,1.6789,0.0,0.0,0.0,0.0,0.0,0.0,0.0,0.0,0.0,2.2235,2.2025,2.1774,0.0,0.0,2.1557,2.0899,2.0288,1.9841,1.9612,1.8849,0.0,1.8458,1.7578,1.7172,1.8059,1.8541,1.9592,2.1787,2.0931,1.9923,1.9865,2.0156,2.0333,2.017,1.9596,1.9333,1.9535,1.9553,1.9697,2.0189,2.0507,2.0742,2.7763,2.715,2.7007,2.7026,2.715,2.7092,2.7151,2.7336,2.7336,2.6821,2.593,2.5717,2.5165,2.4329,2.3917,0.0,0.0,0.0,2.478,2.53,2.5057,2.4955,2.5023,2.5306,2.5391,2.5272,2.4989,2.4931,2.5093,2.3873,2.3276,2.3174,0.0,0.0,2.138,2.0675,1.9813,1.8742,1.7449,1.6367,1.5503,1.3959,1.271,1.181,1.1623,1.1465,1.1301,1.1301,1.1294,1.1307,1.1567,1.1766,0.0,0.0,0.0,0.0,0.0,0.0,0.0,0.0,0.0,0.0,0.0,1.4768,0.0,0.0,0.0,0.0,1.5613,1.6406,1.7174,1.7709,0.0,0.0,0.0,0.0,0.0,0.0,0.0,2.2601,2.2683,2.2998,2.3723,2.3903,2.3726,2.3082,2.2904,2.2685,2.2324,0.0,2.0978,2.0892,2.0129,1.96,1.9766,1.8924,1.8316,1.8535,1.953,2.0635,2.1738,2.1246,2.0752,2.0912,2.104,2.1143,2.1133,2.0619,2.0313,2.065,2.059,2.0618,2.1027,2.1252,2.1364,2.851,2.8471,2.8102,2.8151,2.849,2.8299,2.8056,2.7769,2.775,2.7745,2.77,2.7145,2.6887,2.6824,2.5895,0.0,2.4874,2.5491,2.5728,2.5572,2.5711,2.5359,2.4589,2.456,2.4478,2.4314,2.3428,2.3472,2.4309,2.3436,2.3155,2.3432,2.2741,2.2157,2.1722,2.1475,2.0873,1.9817,1.7839,1.6707,1.6451,1.4264,1.2837,1.2279,1.2061,1.1778,1.142,1.1385,1.1415,1.1451,1.2058,1.2426,1.2472,0.0,0.0,0.0,0.0,0.0,0.0,0.0,0.0,0.0,0.0,0.0,0.0,0.0,0.0,0.0,1.6221,0.0,1.8424,1.8864,0.0,0.0,0.0,2.1728,2.1824,2.2688,2.3288,2.3322,0.0,0.0,2.3954,2.4425,2.46,2.4205,2.3392,2.3046,2.3579,2.2371,2.1479,2.1594,2.0729,2.0197,2.0662,2.025,1.9745,1.9416,2.0194,2.1204,2.1948,2.1502,2.123,2.1491,2.1649,2.1609,2.1638,2.151,2.1878,2.2371,2.2229,2.2044,2.2084,2.2072,2.1871,2.851,2.851,2.8403,2.8411,2.851,2.8439,2.8379,2.831,2.8298,2.8168,2.7881,2.7202,2.6822,2.6691,2.6824,2.7243,2.7771,2.7551,2.7626,2.7936,2.7587,2.6594,2.5136,2.501,2.4247,2.2981,2.2959,2.3111,2.3328,2.3115,2.3039,2.3087,2.252,2.2068,2.1686,2.1348,2.0543,1.9311,1.8825,1.7559,1.5506,1.4437,1.3576,1.2825,1.2664,1.2435,1.2154,1.2185,1.2351,1.2654,1.2553,1.2629,1.2916,1.3408,0.0,0.0,0.0,0.0,0.0,0.0,0.0,0.0,0.0,1.749,1.6825,0.0,1.8476,0.0,1.7795,1.8557,1.9674,2.017,0.0,0.0,2.2497,2.3273,2.2959,2.3095,2.3282,2.3427,2.3421,2.3442,2.3605,2.3953,2.4066,2.372,2.3904,2.4068,2.4027,2.316,2.2446,2.2386,2.1713,2.1362,2.1663,2.1423,2.0928,2.0564,2.0623,2.0918,2.1587,2.111,2.0668,2.0786,2.0626,2.0526,2.0555,2.0624,2.0914,2.1327,2.153,2.1479,2.1028,2.0925,2.0843,2.8902,2.9302,2.9204,2.9413,2.9756,2.8882,2.8717,2.8996,2.8743,2.8757,2.895,2.8328,2.7883,2.7596,2.7894,2.8198,2.8419,2.8198,2.8225,2.8422,2.7931,2.6704,2.4965,2.4815,2.3699,2.1831,2.2484,2.2708,2.2483,2.2639,2.2744,2.2717,2.2376,2.212,2.1894,2.1414,2.0662,1.9676,1.8894,1.7514,1.5537,1.5257,1.4669,1.3728,1.3713,1.3506,1.3047,1.3214,1.3448,1.3695,1.3613,1.369,1.399,1.4181,1.443,0.0,0.0,0.0,0.0,0.0,0.0,0.0,0.0,0.0,0.0,0.0,1.9472,1.9264,1.9282,1.9854,2.1189,2.1289,2.1623,2.2559,2.3316,2.3785,2.3851,2.381,2.3832,2.3929,2.3675,2.3511,2.3623,2.3968,2.4026,2.3563,2.4018,2.4266,2.3781,2.3078,2.2552,2.2458,2.2131,2.1864,2.1973,2.1755,2.1414,2.1052,2.0983,2.1121,2.1445,2.1191,2.093,2.0928,2.083,2.0733,2.0723,2.0804,2.0928,2.0894,2.1059,2.111,2.0928,2.1023,2.1051,2.9665,3.0418,3.0272,3.0681,3.1352,2.9614,2.9277,2.9897,2.9284,2.94,3.0,2.968,2.9293,2.8876,2.8929,2.8732,2.8357,2.8457,2.8457,2.8317,2.7899,2.6631,2.4691,2.4563,2.3255,2.1011,2.1923,2.2155,2.1714,2.2101,2.2317,2.2405,2.2278,2.2197,2.2158,2.161,2.1012,2.0384,1.8612,1.7224,1.6246,1.6289,1.5856,1.4894,1.4996,1.4751,1.4122,1.4304,1.4542,1.4743,1.4874,1.5054,1.5266,1.5244,1.5482,0.0,1.6213,0.0,0.0,0.0,0.0,0.0,0.0,0.0,0.0,1.9561,2.0002,2.0944,2.0683,2.1038,2.2512,2.2238,2.2476,2.3659,2.3795,2.4,2.457,2.4532,2.4415,2.4415,2.3996,2.3685,2.3589,2.4018,2.4066,2.3577,2.3685,2.3653,2.3129,2.2615,2.227,2.2093,2.2121,2.1996,2.1765,2.1685,2.1552,2.1208,2.1267,2.1472,2.1474,2.1422,2.1385,2.1374,2.1253,2.1227,2.1294,2.1255,2.1176,2.0834,2.0812,2.0892,2.113,2.139,2.1548,3.1093,3.1273,3.1222,3.1333,3.1476,3.1093,3.1018,3.1109,3.0469,2.9759,2.9118,2.9602,2.9612,2.926,2.9656,2.9931,3.0114,3.013,3.0145,3.0115,3.0016,2.8449,2.58,2.5591,2.3771,2.0681,2.1064,2.1248,2.1162,2.1553,2.198,2.2393,2.2263,2.2197,2.2185,0.0,0.0,0.0,1.8979,1.8148,1.7913,1.7015,1.6545,1.6515,1.6201,0.0,1.5524,1.5295,1.5483,1.6062,1.5599,0.0,0.0,0.0,0.0,0.0,0.0,0.0,0.0,0.0,0.0,0.0,2.0552,2.0244,1.9381,2.024,2.1089,2.1649,2.1776,2.194,2.2259,2.3039,2.3582,2.3856,2.4672,2.525,2.5355,2.4595,2.4014,2.4002,2.3494,2.2999,2.2646,2.2959,2.3289,2.3233,2.2889,2.2468,2.2159,2.2178,2.2136,2.1977,2.1958,2.1845,2.1583,2.1789,2.178,2.1535,2.1437,2.1485,2.1448,2.1171,2.0964,2.097,2.0625,2.0413,2.0402,2.0353,2.049,2.0597,2.064,2.0592,2.0407,2.044,2.0506,3.1915,0.0,3.2227,3.2474,0.0,3.2612,3.2486,3.2392,3.1163,3.0235,2.9578,3.0028,3.0136,2.996,3.0226,3.0445,3.0612,3.0612,3.0612,3.0569,2.9944,2.8526,2.6424,2.6019,2.426,2.1472,2.2141,2.2191,2.1693,2.2048,2.2347,2.2555,2.2386,2.2263,2.2213,2.2197,2.1608,2.0411,1.9399,1.8616,1.8034,1.7571,1.7213,1.6963,1.6987,0.0,0.0,0.0,0.0,0.0,0.0,0.0,0.0,1.7016,0.0,1.715,1.7592,1.8126,1.875,1.9369,1.9899,2.0366,2.1143,2.1228,2.0348,2.1156,2.1903,2.2436,2.2595,2.2889,2.3428,2.3786,2.4154,2.4665,2.5022,2.5296,2.5473,2.4852,2.4236,2.3885,2.3393,2.2827,2.228,2.267,2.2882,2.2755,2.2663,2.2399,2.1969,2.1965,2.2021,2.2029,2.1762,2.1564,2.1491,2.1569,2.1559,2.1196,2.1202,2.1336,2.1353,2.1151,2.1005,2.0994,2.0792,2.064,2.0602,2.0429,2.0392,2.0753,2.0683,2.0579,2.0589,2.064,2.0594,3.2702,3.3384,3.3245,3.3638,3.4353,3.3848,3.353,3.3204,0.0,0.0,0.0,3.0522,3.0612,3.0583,3.0481,3.0423,3.0438,3.0423,3.035,3.022,2.9305,2.8151,2.6888,2.6276,2.4816,2.2804,2.3595,2.3551,2.2641,2.2833,2.2915,2.2866,2.2574,2.2328,2.2197,2.2197,2.1623,2.0475,1.988,1.9028,1.7952,1.8072,1.7858,1.725,1.7587,1.7656,1.7385,1.7576,1.7765,1.7928,1.7798,1.7779,1.7903,1.7563,1.7448,1.764,1.807,1.8467,1.8801,1.935,1.9805,2.014,2.1381,2.2033,2.1846,2.2244,2.2717,2.3222,2.3255,2.3639,2.4569,2.4395,2.4546,2.5402,2.5195,2.518,2.5557,2.5161,2.4623,2.4137,2.3525,2.2919,2.2451,2.2628,2.2718,2.2381,2.2538,2.2655,2.2106,2.1871,2.1839,2.1922,2.1606,2.1312,2.1372,2.1351,2.1133,2.0873,2.1012,2.1201,2.119,2.1121,2.1063,2.0989,2.1052,2.1024,2.106,2.0802,2.073,2.1184,2.0895,2.068,2.1138,2.1237,2.1059,3.4111,3.423,3.4182,3.4264,3.4397,3.4295,3.3657,3.2584,3.1757,3.1096,3.0567,3.0597,3.0612,3.0569,2.9987,2.974,2.974,2.974,2.9464,2.8985,2.9319,2.8537,2.6845,2.6708,2.5673,2.3992,2.4033,2.4002,2.3796,2.3276,2.3206,2.3496,2.2811,2.2328,2.2213,2.2197,2.168,2.0589,2.0368,1.9878,1.9078,1.8608,1.8457,1.8602,1.8228,1.8027,1.7975,1.7797,1.7817,1.805,1.7828,1.7814,1.8038,1.7984,1.7822,1.7491,1.7514,1.7809,1.841,1.8666,1.949,2.1022,2.1811,2.258,2.3523,2.3704,2.3785,2.3875,2.3836,2.3915,2.4138,2.4577,2.4917,2.5107,2.5493,2.5786,2.5827,2.535,2.494,2.4768,2.3806,2.3118,2.2944,2.2644,2.2427,2.2252,2.2306,2.2282,2.2113,2.1757,2.1517,2.1493,2.1357,2.1277,2.1355,2.1277,2.117,2.1133,2.1154,2.1201,2.1201,2.0887,2.0653,2.0549,2.0618,2.0669,2.0792,2.0973,2.1127,2.1447,2.1221,2.1126,2.1459,2.136,2.1167,3.4397,3.4397,3.4397,3.4397,3.4368,3.4051,3.3383,3.2497,3.2177,3.1496,3.0641,3.0612,3.0394,3.0045,2.974,2.9406,2.9116,2.9116,2.9145,2.9145,2.8768,2.8318,2.7794,2.714,2.6185,2.5116,2.5076,2.491,2.4544,2.3926,2.367,2.3728,2.2869,2.2328,2.2213,2.2197,2.168,2.0632,2.0468,1.9961,1.9044,1.862,1.8472,1.8635,1.8055,1.785,1.8086,1.774,1.7592,1.7724,1.7854,1.7736,1.7306,1.7563,1.7534,1.7126,1.7348,1.7795,1.8427,1.9407,2.0631,2.2188,2.2551,2.3071,2.3974,2.3412,2.3149,2.3481,2.3789,2.4143,2.4517,2.5108,2.5356,2.5038,2.5547,2.5753,2.5501,2.5507,2.537,2.5033,2.4522,2.3886,2.3192,2.3133,2.2854,2.2374,2.2197,2.2154,2.2061,2.1847,2.1632,2.1553,2.1411,2.1305,2.1305,2.1237,2.1217,2.1201,2.1201,2.1201,2.1201,2.0933,2.0852,2.0841,2.0814,2.086,2.0946,2.0822,2.0965,2.127,2.1058,2.098,2.124,2.128,2.1217,3.4397,3.4397,3.4397,3.4397,3.4353,3.3908,3.3327,3.2759,3.2714,3.2077,3.1105,3.1033,3.0655,3.003,2.9885,2.9493,2.8971,2.8913,2.9073,2.9261,2.8391,2.813,2.8332,2.7315,2.654,2.6152,2.6098,2.5866,2.5384,2.4794,2.425,2.3771,2.3037,2.2515,2.2247,2.2228,2.1728,2.0836,2.0543,1.9912,1.8845,1.857,1.8423,1.8371,1.7762,1.7578,1.7896,1.7484,1.7197,1.7246,1.7574,1.7399,1.6703,1.6991,1.703,1.6701,1.7018,1.7543,1.8212,1.9701,2.1104,2.2196,2.2547,2.2921,2.3309,2.2712,2.2524,2.3226,2.3768,2.4241,2.4708,2.5304,2.5471,2.4922,2.5331,2.5486,2.5134,2.5415,2.5631,2.5231,2.5075,2.458,2.3844,2.3669,2.3312,2.2432,2.2197,2.2135,2.1999,2.1968,2.1894,2.1765,2.1596,2.1431,2.1316,2.1328,2.1296,2.1233,2.1237,2.1237,2.1198,2.1121,2.0925,2.0822,2.0961,2.0938,2.0942,2.0908,2.0966,2.1393,2.1183,2.0892,2.1188,2.1316,2.128,3.4397,3.4397,3.4397,3.4397,3.4382,3.4341,3.3966,3.3443,3.3416,3.3006,3.2351,3.2322,3.1916,3.1307,3.0728,3.0118,2.9479,2.9508,2.9247,2.8854,2.8666,2.8318,2.7869,2.7142,2.6766,2.6716,2.6701,2.6621,2.6514,2.599,2.509,2.3932,2.3579,2.314,2.2482,2.229,2.1924,2.1332,2.0848,1.9983,1.8894,1.8652,1.852,1.8396,1.7764,1.7419,1.7499,1.6943,1.6691,1.6667,1.6736,1.6714,1.6611,1.6644,1.6462,1.6039,1.6183,1.6527,1.7256,1.8396,1.9446,1.991,2.0946,2.1537,2.1671,2.199,2.2726,2.3642,2.4017,2.4086,2.4205,2.4753,2.4922,2.4458,2.4825,2.5063,2.5035,2.5035,2.5262,2.5783,2.5342,2.4921,2.4594,2.3785,2.2965,2.2497,2.2247,2.2182,2.2139,2.2123,2.2092,2.1921,2.1765,2.1682,2.1635,2.1651,2.1498,2.1285,2.1305,2.1321,2.1227,2.0887,2.0427,2.0626,2.053,2.078,2.0758,2.0892,2.1635,2.1753,2.1667,2.1522,2.1447,2.1506,2.1533,3.4397,3.4397,3.4397,3.4397,3.4397,3.4397,3.4269,3.4037,3.4037,3.3877,3.3643,3.3628,3.2642,3.0974,3.0699,3.0045,2.9087,2.9073,2.9145,2.9189,2.8869,2.8739,2.8725,2.7768,2.7332,2.7288,2.6981,2.6807,2.6773,2.6561,2.5922,2.507,2.514,2.4473,2.3097,2.3151,2.2656,2.144,2.1199,2.0533,1.9482,1.8966,1.8691,1.8528,1.7593,1.725,1.75,1.6786,1.6308,1.6331,1.6549,1.6457,1.5868,1.6135,1.6267,1.6175,1.6836,1.7484,1.8079,1.8864,1.9535,2.005,2.0488,2.0914,2.1274,2.1518,2.205,2.2826,2.3278,2.3656,2.4049,2.4641,2.4894,2.4753,2.5175,2.5387,2.5021,2.5317,2.5654,2.5865,2.5688,2.5202,2.4423,2.3337,2.2841,2.2947,2.2717,2.2213,2.2197,2.2197,2.2154,2.2092,2.2027,2.1902,2.1761,2.1592,2.1517,2.1498,2.1427,2.1384,2.1451,2.1354,2.1086,2.0853,2.1066,2.1186,2.1186,2.1299,2.1757,2.1906,2.2061,2.1937,2.1749,2.1765,2.1729,3.4574,3.4412,3.4397,3.4397,3.4397,3.4397,3.4397,3.4397,3.4397,3.4397,3.4368,3.424,3.3066,3.1309,3.1134,3.0423,2.9348,2.9232,2.945,2.9784,2.9232,2.9189,2.945,2.8493,2.797,2.7869,2.736,2.7055,2.7073,2.7266,2.696,2.6395,2.6406,2.5606,2.4064,2.3925,2.318,2.1985,2.1596,2.0935,2.0057,1.9396,1.8993,1.8712,1.7689,1.7249,1.7525,1.6653,1.608,1.5951,1.6373,1.628,1.5607,1.6015,1.6344,1.6529,1.7265,1.8053,1.874,1.916,1.9683,2.0321,2.0537,2.0818,2.122,2.1445,2.1741,2.2168,2.2604,2.3067,2.3516,2.4289,2.4655,2.4558,2.5162,2.5443,2.5105,2.5415,2.5683,2.5865,2.5866,2.5508,2.4424,2.3444,2.304,2.3431,2.2811,2.2197,2.2197,2.2197,2.2197,2.2197,2.2197,2.2073,2.1812,2.1737,2.169,2.1628,2.1569,2.1584,2.1682,2.1671,2.1522,2.1081,2.151,2.1635,2.139,2.1501,2.1824,2.1886,2.2058,2.217,2.1886,2.1987,2.2104,3.4983,3.4426,3.4397,3.4397,3.4397,3.4397,3.4397,3.4397,3.4397,3.4397,3.4324,3.385,3.3138,3.2351,3.2293,3.1685,3.0583,3.0423,3.0423,3.0437,2.9856,2.9581,2.9552,2.8956,2.8651,2.8579,2.7998,2.7681,2.7739,2.8276,2.8311,2.7721,2.7098,2.6276,2.5328,2.4203,2.329,2.2992,2.2089,2.1198,2.0607,2.0077,1.953,1.8912,1.8135,1.7576,1.7139,1.6585,1.6091,1.5584,1.5987,1.61,1.6103,1.6529,1.6901,1.701,1.7102,1.766,1.8688,1.8961,1.9363,2.0269,2.0832,2.1248,2.1305,2.1727,2.2039,2.2182,2.2252,2.2351,2.2505,2.3473,2.3952,2.3616,2.4416,2.4965,2.5063,2.5161,2.5331,2.5753,2.5839,2.5508,2.4936,2.4351,2.3682,2.3354,2.2686,2.2263,2.2278,2.2232,2.2197,2.2197,2.2182,2.2123,2.1968,2.1894,2.1906,2.1859,2.1812,2.1827,2.1745,2.1651,2.1396,2.1301,2.1571,2.1651,2.1474,2.1604,2.1985,2.2154,2.2282,2.2285,2.2087,2.2463,2.2525,3.5012,3.4412,3.4397,3.4397,3.4397,3.4397,3.4397,3.4397,3.4397,3.4397,3.4368,3.4167,3.3499,3.2497,3.2497,3.1816,3.067,3.0612,3.0612,3.0583,3.035,3.0249,3.0176,2.9595,2.9276,2.9189,2.8638,2.8565,2.8899,2.9174,2.9175,2.9029,2.8894,2.8138,2.6779,2.5918,2.5174,2.4303,2.3463,2.2623,2.1728,2.15,2.0946,1.9966,1.8975,1.8374,1.8277,1.7383,1.6909,1.7022,1.6542,1.6364,1.6721,1.7565,1.8107,1.8211,1.8802,1.9363,1.9741,1.9836,1.9963,2.034,2.0593,2.0956,2.1234,2.149,2.1772,2.2095,2.2182,2.2182,2.2337,2.2981,2.3713,2.429,2.4711,2.5133,2.5458,2.557,2.5655,2.5783,2.5591,2.5107,2.4599,2.4199,2.4093,2.4192,2.3429,2.2841,2.2702,2.2469,2.2197,2.2197,2.2197,2.2182,2.2123,2.2015,2.1968,2.2011,2.1995,2.1984,2.1949,2.1643,2.1376,2.1512,2.1747,2.1655,2.1497,2.174,2.2101,2.2139,2.2282,2.2436,2.2331,2.2576,2.2595,3.4823,3.4426,3.4397,3.4397,3.4397,3.4397,3.4397,3.4397,3.4397,3.4397,3.4356,3.3976,3.3381,3.2759,3.2163,3.1598,3.0887,3.0699,3.0612,3.0612,3.0612,3.0612,3.0539,3.0147,2.9943,2.9871,2.9522,2.9435,2.9595,2.9813,2.9914,2.9928,2.9921,2.9279,2.8027,2.7079,2.6137,2.5322,2.4468,2.3517,2.2676,2.2376,2.186,2.0936,2.0054,1.9503,1.9276,1.8453,1.8072,1.8161,1.7699,1.7614,1.8126,1.8861,1.9308,1.9406,1.9963,2.0498,2.0664,2.0692,2.0776,2.0962,2.099,2.1184,2.1533,2.1586,2.1814,2.2095,2.2182,2.2182,2.2278,2.2587,2.325,2.4206,2.4572,2.4866,2.5246,2.5288,2.5274,2.5192,2.4938,2.4489,2.4014,2.3813,2.3797,2.4116,2.3303,2.2889,2.298,2.2595,2.2325,2.242,2.2309,2.2216,2.2154,2.2108,2.2049,2.208,2.2089,2.212,2.2015,2.1662,2.1536,2.1725,2.1737,2.1632,2.1692,2.1897,2.1995,2.2013,2.2235,2.2436,2.2485,2.2595,2.2528,3.4426,3.4397,3.4397,3.4397,3.4397,3.4397,3.4397,3.4397,3.4397,3.4397,3.4266,3.3222,3.3122,3.3008,3.1846,3.1105,3.1366,3.0945,3.0656,3.0612,3.0612,3.0612,3.0598,3.0539,3.051,3.051,3.0524,3.019,2.9755,3.022,3.051,3.0422,2.9854,2.9504,2.9361,2.7462,2.6288,2.5936,2.4955,2.3899,2.3212,2.2797,2.2272,2.1694,2.1468,2.098,1.9998,1.9793,1.9487,1.9169,1.9331,1.9864,2.0039,2.0279,2.0378,2.0357,2.0456,2.0748,2.1209,2.1305,2.1547,2.1873,2.2109,2.2013,2.2053,2.2109,2.2126,2.2168,2.2264,2.2266,2.228,2.2421,2.2716,2.3083,2.3881,2.4233,2.4288,2.4175,2.4106,2.4112,2.4091,2.389,2.3467,2.3364,2.3264,2.2864,2.2571,2.2531,2.2865,2.2518,2.2515,2.272,2.2531,2.2213,2.2185,2.2173,2.2161,2.2161,2.2154,2.2154,2.2022,2.1777,2.1608,2.1701,2.1641,2.156,2.1728,2.1936,2.1981,2.2062,2.2283,2.2436,2.2436,2.2454,2.2389,3.4837,3.4412,3.4397,3.4397,3.4397,3.4397,3.4397,3.4397,3.4397,3.4397,3.431,3.3976,3.3717,3.3414,3.282,3.2427,3.2148,3.151,3.1003,3.0685,3.0612,3.0612,3.0612,3.0612,3.0612,3.0612,3.0612,3.051,3.035,3.0495,3.0612,3.051,3.02,3.0024,2.9922,2.8688,2.7859,2.7339,2.6451,2.5461,2.4538,2.4259,2.3849,2.3312,2.3254,2.2873,2.209,2.097,2.0467,2.0538,2.0019,1.9927,2.0359,2.079,2.1012,2.1079,2.1423,2.1676,2.1856,2.1924,2.1997,2.2168,2.2196,2.2182,2.2182,2.2224,2.2238,2.228,2.2561,2.2829,2.2885,2.3262,2.353,2.3781,2.3966,2.4261,2.4499,2.4289,2.3731,2.3134,2.3585,2.3615,2.3056,2.3071,2.3443,2.2984,2.2829,2.2835,2.2607,2.2451,2.2232,2.242,2.2216,2.2184,2.2179,2.2031,2.1861,2.1949,2.2033,2.2017,2.1921,2.1696,2.1572,2.1464,2.1428,2.156,2.174,2.1873,2.1909,2.2179,2.2476,2.2466,2.2309,2.2263,2.2294,3.4777,3.4412,3.4397,3.4397,3.4397,3.4397,3.4397,3.4397,3.4397,3.4397,3.4368,3.4138,3.401,3.3732,3.3356,3.3066,3.2788,3.2177,3.154,3.096,3.0655,3.0612,3.0612,3.0612,3.0612,3.0612,3.0612,3.0612,3.0612,3.0612,3.0612,3.0582,3.0402,3.0297,3.0209,2.938,2.869,2.8264,2.7568,2.6678,2.584,2.5437,2.5045,2.4446,2.4195,2.3883,2.3394,2.2422,2.1812,2.1593,2.0956,2.0815,2.1091,2.1448,2.1631,2.1701,2.1954,2.2168,2.2196,2.2393,2.2533,2.2547,2.2744,2.2911,2.2911,2.2911,2.2911,2.2981,2.3236,2.3461,2.3544,2.3809,2.4175,2.4429,2.4217,2.4302,2.4528,2.4106,2.3683,2.3246,2.3455,2.3186,2.2824,2.3244,2.3621,2.3147,2.3047,2.3217,2.2812,2.2535,2.2427,2.2328,2.2309,2.2268,2.2183,2.1912,2.1574,2.1686,2.1849,2.1804,2.1716,2.1298,2.1046,2.0901,2.0841,2.1235,2.1464,2.1656,2.178,2.2204,2.2546,2.2389,2.2247,2.2374,2.2389,3.4397,3.4397,3.4397,3.4397,3.4397,3.4397,3.4397,3.4397,3.4397,3.4397,3.4298,3.3937,3.3923,3.4037,3.3338,3.3151,3.3342,3.2861,3.2279,3.1671,3.1148,3.0829,3.0626,3.0612,3.0612,3.0612,3.0612,3.0612,3.0612,3.0612,3.0612,3.0597,3.0432,3.0341,3.0195,2.9408,2.9003,2.879,2.8133,2.7382,2.668,2.6133,2.5613,2.5039,2.4601,2.4275,2.412,2.3858,2.3324,2.2433,2.2231,2.2191,2.2182,2.221,2.2252,2.2177,2.2208,2.2294,2.2393,2.2871,2.3166,2.3194,2.3614,2.4118,2.3922,2.3852,2.3852,2.3894,2.4036,2.4147,2.4147,2.4316,2.4569,2.4866,2.4585,2.433,2.412,2.367,2.3536,2.3787,2.3538,2.3002,2.2644,2.342,2.3235,2.278,2.274,2.3054,2.3253,2.2852,2.2683,2.257,2.2488,2.2293,2.2164,2.1234,2.0998,2.1448,2.158,2.1496,2.1671,2.1359,2.1109,2.0904,2.0733,2.1055,2.1391,2.1762,2.1922,2.2188,2.2312,2.2232,2.2263,2.2343,2.2389,3.4397,3.4397,3.4397,3.4397,3.4397,3.4397,3.4397,3.4397,3.4397,3.4397,3.4339,3.4237,3.4194,3.4356,3.4063,3.4022,3.3949,3.3499,3.3182,3.2906,3.2295,3.1438,3.0757,3.0612,3.0612,3.0612,3.0612,3.0612,3.0612,3.0612,3.0612,3.0612,3.0538,3.0507,3.0434,2.9988,2.9537,2.9051,2.8247,2.7524,2.6891,2.6301,2.5837,2.5669,2.5513,2.5217,2.4794,2.433,2.3741,2.3011,2.3349,2.3122,2.2407,2.2644,2.2716,2.2433,2.2646,2.2859,2.2997,2.3473,2.3809,2.3839,2.4077,2.4105,2.4105,2.4105,2.4105,2.4175,2.4458,2.4767,2.4825,2.512,2.5444,2.5542,2.5105,2.4754,2.4669,2.4247,2.3936,2.4049,2.3952,2.3751,2.3651,2.3487,2.3275,2.2698,2.2547,2.2682,2.3039,2.3011,2.2735,2.277,2.2665,2.2385,2.1899,2.0848,2.0545,2.1126,2.1252,2.116,2.1545,2.1903,2.1819,2.1756,2.1539,2.1692,2.2037,2.2396,2.2396,2.222,2.2423,2.2515,2.2278,2.2247,2.2309,3.4823,3.4794,3.4513,3.4397,3.4397,3.4397,3.4397,3.4397,3.4397,3.4397,3.4397,3.4397,3.4397,3.4397,3.4382,3.4397,3.4356,3.4037,3.3734,3.3371,3.2774,3.1932,3.1149,3.0786,3.0612,3.0612,3.0612,3.0612,3.0612,3.0612,3.0612,3.0612,3.0612,3.0567,3.0447,3.0296,2.9955,2.9449,2.8871,2.83,2.7622,2.7256,2.675,2.6526,2.6497,2.6413,2.5795,2.5176,2.4472,2.3839,2.3866,2.3741,2.315,2.3305,2.3361,2.3011,2.3347,2.3516,2.363,2.412,2.4457,2.4555,2.4668,2.4838,2.4894,2.4852,2.4866,2.4937,2.5217,2.5345,2.5429,2.5697,2.5879,2.5837,2.5584,2.5387,2.5386,2.4852,2.4668,2.4724,2.4655,2.4482,2.4493,2.4286,2.3984,2.3584,2.3267,2.3204,2.3169,2.2975,2.2862,2.289,2.2885,2.2653,2.2417,2.157,2.088,2.1314,2.1634,2.1391,2.1741,2.2311,2.2097,2.2061,2.2132,2.2247,2.2454,2.2546,2.2359,2.2343,2.2625,2.261,2.2328,2.2197,2.2232,3.5392,3.5317,3.4675,3.4397,3.4397,3.4397,3.4397,3.4397,3.4397,3.4397,3.4397,3.4397,3.4397,3.4397,3.4397,3.4397,3.4397,3.4324,3.4066,3.3603,3.2991,3.2279,3.1641,3.1236,3.0946,3.0844,3.0757,3.0917,3.1018,3.0931,3.0801,3.08,3.0772,3.0565,3.0446,3.0326,3.0129,2.9876,2.9526,2.9095,2.8553,2.8255,2.772,2.7116,2.7327,2.7327,2.6821,2.6245,2.5472,2.4457,2.433,2.426,2.4149,2.4091,2.4091,2.4049,2.4063,2.4177,2.4275,2.4739,2.5105,2.5162,2.557,2.5893,2.5752,2.5696,2.5696,2.5668,2.5893,2.5823,2.5837,2.5893,2.5907,2.5893,2.5865,2.5893,2.5795,2.5415,2.5316,2.578,2.5373,2.516,2.5232,2.5425,2.5522,2.4292,2.3902,2.344,2.3295,2.3112,2.304,2.3032,2.3001,2.2966,2.2727,2.2428,2.1888,2.1706,2.2144,2.2202,2.2329,2.2566,2.2201,2.2098,2.2338,2.2451,2.2485,2.2454,2.2405,2.2359,2.2577,2.2451,2.2232,2.2213,2.2216,3.5392,3.5348,3.4692,3.4397,3.4397,3.4397,3.4397,3.4397,3.4397,3.4397,3.4397,3.4397,3.4397,3.4397,3.4397,3.4397,3.4397,3.4397,3.4295,3.4167,3.3574,3.2933,3.2395,3.2105,3.1801,3.1526,3.1829,3.2032,3.2018,3.1903,3.1816,3.1366,3.1221,3.106,3.0609,3.0416,3.0296,3.0088,2.9534,2.9157,2.8855,2.8398,2.8016,2.765,2.7734,2.772,2.7509,2.6961,2.6497,2.6174,2.5697,2.5105,2.4486,2.4599,2.4613,2.4429,2.4613,2.481,2.4908,2.5303,2.5683,2.5682,2.578,2.5907,2.5907,2.5907,2.5921,2.5907,2.5907,2.5921,2.5991,2.5935,2.5991,2.6019,2.5977,2.5949,2.5893,2.5767,2.5766,2.5809,2.578,2.5698,2.566,2.5272,2.5188,2.4864,2.4351,2.3699,2.349,2.3354,2.328,2.3299,2.3164,2.3098,2.2896,2.2716,2.2411,2.2174,2.2536,2.2314,2.2468,2.2772,2.2417,2.2433,2.2652,2.2735,2.2871,2.2859,2.2904,2.272,2.2515,2.2454,2.2389,2.2294,2.2325,3.5825,3.5723,3.4791,3.4397,3.4397,3.4397,3.4397,3.4397,3.4397,3.4397,3.4397,3.4397,3.4397,3.4397,3.4397,3.4397,3.4397,3.4397,3.4397,3.431,3.4022,3.3589,3.318,3.3091,3.283,3.1815,3.1815,3.2148,3.2409,3.2511,3.2279,3.196,3.1684,3.135,3.0988,3.0637,3.0416,3.0252,2.9783,2.9432,2.9226,2.8907,2.8633,2.8465,2.8156,2.7889,2.8142,2.7608,2.7312,2.713,2.6666,2.5935,2.5189,2.5246,2.5231,2.5119,2.519,2.5402,2.5542,2.5696,2.5893,2.5935,2.5921,2.6104,2.6132,2.6104,2.6076,2.6188,2.6118,2.5978,2.6287,2.6694,2.6666,2.6371,2.6315,2.6217,2.6005,2.5907,2.5907,2.5907,2.5893,2.5879,2.5715,2.5356,2.5342,2.5286,2.4423,2.3831,2.4193,2.4032,2.3712,2.3601,2.3377,2.3226,2.3033,2.2885,2.2755,2.272,2.2967,2.2302,2.1727,2.2184,2.2598,2.2816,2.3085,2.3357,2.3475,2.3448,2.3255,2.3012,2.2811,2.2686,2.2515,2.2359,2.2469,3.6341,3.6312,3.4994,3.4455,3.4545,3.4455,3.4397,3.4397,3.4397,3.4397,3.4397,3.4397,3.4397,3.4397,3.4397,3.4397,3.4397,3.4382,3.4368,3.4153,3.4281,3.379,3.3441,3.3499,3.3338,3.1917,3.2177,3.2482,3.2801,3.2787,3.2919,3.2584,3.2003,3.1641,3.1409,3.0901,3.0477,3.0267,3.0131,2.9951,2.9813,2.9631,2.957,2.9313,2.8761,2.8451,2.8648,2.8297,2.7931,2.7904,2.7312,2.6736,2.6329,2.5936,2.609,2.6104,2.6118,2.6132,2.6287,2.6301,2.6301,2.6188,2.6244,2.6455,2.6736,2.6497,2.6385,2.6385,2.6329,2.6076,2.6638,2.7003,2.7116,2.6919,2.6778,2.661,2.6301,2.6062,2.5907,2.5907,2.5907,2.5907,2.5784,2.5536,2.5647,2.555,2.4653,2.4166,2.4538,2.448,2.4005,2.3846,2.3659,2.3593,2.3434,2.3735,2.3538,2.3594,2.3711,2.3005,2.2117,2.2847,2.3562,2.3363,2.3559,2.3693,2.3699,2.3551,2.3374,2.321,2.3222,2.322,2.2902,2.2451,2.2693,3.6649,3.6965,3.5166,3.4719,3.5099,3.4661,3.4455,3.4397,3.4441,3.4397,3.4397,3.4397,3.4397,3.4397,3.4397,3.4397,3.4397,3.4382,3.4153,3.3908,3.4095,3.3891,3.3166,3.3543,3.3487,3.3458,3.347,3.3759,3.3904,3.4063,3.3688,3.3284,3.2672,3.2164,3.1613,3.093,3.0609,3.0457,3.0293,3.0144,3.005,2.9958,2.9866,2.973,2.9286,2.9268,2.9224,2.8901,2.8564,2.8493,2.7959,2.7636,2.7327,2.6582,2.6554,2.7018,2.6891,2.6835,2.7172,2.7369,2.7439,2.7467,2.7355,2.7426,2.7439,2.706,2.6778,2.6582,2.6329,2.6019,2.6062,2.6863,2.6975,2.6835,2.6947,2.7017,2.7059,2.6666,2.6019,2.5935,2.5935,2.5893,2.577,2.566,2.566,2.5508,2.4865,2.4638,2.495,2.4538,2.3859,2.3846,2.3949,2.3909,2.3876,2.4393,2.4609,2.4684,2.4733,2.4579,2.4081,2.4436,2.4625,2.3819,2.348,2.3494,2.3505,2.3699,2.3758,2.38,2.3815,2.3815,2.3446,2.311,2.3177,3.7012,3.7157,3.5891,3.5561,3.5781,3.5532,3.5198,3.4939,3.4893,3.4704,3.447,3.4397,3.4397,3.4397,3.4397,3.4397,3.4382,3.4397,3.4051,3.3734,3.4037,3.3964,3.3122,3.3647,3.3891,3.4008,3.4252,3.4368,3.4397,3.4368,3.4225,3.3906,3.3325,3.2832,3.2367,3.1598,3.1117,3.0865,3.0496,3.0202,3.011,2.9987,2.982,2.9792,2.9745,2.9699,2.9656,2.9487,2.923,2.9071,2.8592,2.8552,2.8344,2.7851,2.7215,2.7665,2.7538,2.7439,2.7734,2.7805,2.7763,2.7777,2.7833,2.7988,2.8016,2.7706,2.7186,2.6807,2.6652,2.6371,2.6441,2.7172,2.7552,2.7453,2.7537,2.7565,2.7355,2.7046,2.661,2.6146,2.6034,2.5978,2.5811,2.5715,2.566,2.537,2.4964,2.5076,2.5342,2.4851,2.4164,2.4222,2.4352,2.415,2.4193,2.4622,2.5017,2.5221,2.5303,2.5158,2.491,2.4728,2.4191,2.3465,2.3317,2.3669,2.425,2.4738,2.4581,2.4379,2.4364,2.4292,2.4005,2.385,2.378,3.7095,3.7023,3.6225,3.5996,3.6083,3.5949,3.559,3.5259,3.5142,3.4852,3.4441,3.4397,3.4397,3.4397,3.4368,3.4339,3.4254,3.4196,3.3804,3.3456,3.3864,3.3894,3.3763,3.3908,3.4109,3.3964,3.3831,3.4179,3.4382,3.4397,3.4397,3.4167,3.3794,3.3503,3.3169,3.2237,3.1844,3.1445,3.1032,3.0575,3.0341,3.0127,2.9888,2.9822,2.9838,2.9792,2.973,2.9734,2.9659,2.9514,2.9302,2.9252,2.9569,2.8947,2.8377,2.8202,2.8117,2.8118,2.8243,2.8286,2.8398,2.8381,2.8226,2.8465,2.8479,2.817,2.7481,2.6961,2.6596,2.6624,2.6778,2.7776,2.8184,2.8212,2.8311,2.8451,2.7945,2.7551,2.72,2.6779,2.6385,2.6118,2.6021,2.5811,2.5743,2.5578,2.5203,2.5286,2.5481,2.5384,2.4964,2.4893,2.4794,2.4437,2.4437,2.468,2.4934,2.5017,2.5072,2.5006,2.4661,2.4329,2.3905,2.3825,2.4149,2.4593,2.5202,2.5383,2.4928,2.4669,2.4803,2.4843,2.4715,2.4215,2.3835,3.6431,3.6312,3.5151,3.4951,3.545,3.5009,3.4644,3.4603,3.4646,3.4501,3.4397,3.4397,3.4397,3.4397,3.4397,3.4095,3.3821,3.3734,3.3487,3.3064,3.3501,3.3719,3.3518,3.3532,3.3777,3.3748,3.3209,3.344,3.4107,3.4353,3.4382,3.4269,3.3908,3.3532,3.353,3.2819,3.2346,3.2238,3.2168,3.1851,3.1371,3.1113,3.0715,3.0251,2.9986,2.9851,2.9788,2.9807,2.9822,2.9777,2.9857,2.9935,3.0022,2.9965,2.9746,2.9515,2.9332,2.9192,2.9354,2.9352,2.9307,2.9231,2.9269,2.9421,2.9199,2.8495,2.7637,2.6849,2.6399,2.6357,2.6807,2.7495,2.803,2.8437,2.8662,2.897,2.8815,2.8282,2.7917,2.7552,2.72,2.6666,2.6329,2.6063,2.5825,2.5647,2.5536,2.5591,2.5619,2.5536,2.5522,2.5411,2.5121,2.4774,2.4744,2.4981,2.5036,2.5008,2.5049,2.505,2.4912,2.4788,2.4828,2.4842,2.509,2.5118,2.53,2.527,2.4962,2.4934,2.4986,2.5256,2.5534,2.4867,2.3957,3.6649,3.6257,3.5703,3.5633,3.5851,3.559,3.527,3.5012,3.4968,3.4733,3.4441,3.4397,3.4397,3.4397,3.4397,3.4283,3.4037,3.3966,3.3676,3.3267,3.3587,3.3806,3.3561,3.3532,3.362,3.3734,3.3501,3.363,3.4095,3.4095,3.4008,3.4324,3.4153,3.4037,3.3908,3.3369,3.3106,3.2883,3.2605,3.2192,3.188,3.1685,3.1395,3.0807,3.0643,3.0366,3.0077,3.0038,2.9976,2.9884,2.99,2.9989,3.0065,3.0097,3.0083,3.0253,3.0111,2.9932,2.9813,2.99,2.9898,2.9897,2.988,2.9853,2.9681,2.8998,2.8134,2.7541,2.6835,2.6652,2.6891,2.7397,2.803,2.8536,2.897,2.8998,2.9195,2.9153,2.8745,2.838,2.8001,2.7453,2.6961,2.6708,2.6329,2.5813,2.5744,2.5799,2.5798,2.577,2.5784,2.5811,2.5451,2.5065,2.5148,2.53,2.5356,2.537,2.5508,2.5522,2.555,2.5495,2.5342,2.5397,2.555,2.5522,2.5439,2.5229,2.5026,2.5055,2.5141,2.5285,2.5373,2.4825,2.4285,3.666,3.6083,3.6069,3.5996,3.5848,3.5996,3.5677,3.5171,3.5305,3.5012,3.4528,3.4397,3.4397,3.4397,3.4382,3.4283,3.4124,3.4167,3.3923,3.3806,3.3879,3.3949,3.3792,3.3705,3.3719,3.4167,3.334,3.3516,3.3792,3.385,3.3864,3.4385,3.4339,3.4339,3.4269,3.3995,3.3703,3.3674,3.3243,3.2827,3.2468,3.2204,3.1803,3.1404,3.1103,3.0784,3.0337,3.0266,3.0129,3.0022,3.0038,3.0159,3.0234,3.0294,3.0295,3.0432,3.0406,3.03,3.01,3.0037,3.0066,3.0036,3.0036,2.9974,2.998,2.9391,2.8863,2.8323,2.7641,2.7329,2.7412,2.7877,2.8384,2.8902,2.9293,2.9167,2.9098,2.9196,2.9126,2.8689,2.8395,2.8297,2.7861,2.7509,2.6947,2.6148,2.5965,2.602,2.5964,2.5894,2.5893,2.5907,2.5726,2.5407,2.549,2.5572,2.5627,2.5642,2.5769,2.5702,2.5564,2.5508,2.537,2.555,2.5825,2.5825,2.5674,2.5383,2.513,2.5206,2.5228,2.5107,2.4964,2.4544,2.4631,3.6011,3.545,3.5494,3.5171,3.4661,3.52,3.5084,3.4704,3.5171,3.5041,3.4559,3.4426,3.447,3.4397,3.4353,3.4138,3.3632,3.3576,3.3649,3.3634,3.359,3.3891,3.3879,3.3719,3.3516,3.3516,3.3166,3.3226,3.3503,3.3792,3.3952,3.431,3.4382,3.4397,3.4368,3.4269,3.4196,3.4179,3.3986,3.3771,3.3301,3.2851,3.2224,3.148,3.0829,3.0293,3.017,3.0365,3.0411,3.035,3.034,3.0387,3.0416,3.0417,3.0432,3.0447,3.0538,3.0433,3.0297,3.0174,3.0036,2.99,2.99,3.0037,3.0145,2.9598,2.9183,2.8996,2.8324,2.8266,2.8463,2.883,2.8955,2.9334,2.96,2.9511,2.9455,2.9466,2.9354,2.8957,2.8789,2.8761,2.869,2.8324,2.7721,2.6947,2.6413,2.6441,2.6019,2.5893,2.5893,2.5893,2.5851,2.5753,2.5782,2.5781,2.5598,2.5588,2.5701,2.5495,2.5258,2.5244,2.5481,2.555,2.577,2.5839,2.588,2.5633,2.5437,2.538,2.5315,2.5101,2.5225,2.5188,2.5322,3.6794,3.658,3.6562,3.5735,3.4412,3.4675,3.4866,3.5055,3.529,3.529,3.4997,3.5012,3.4777,3.4499,3.4397,3.4312,3.4066,3.4051,3.4022,3.4051,3.4109,3.401,3.3894,3.3736,3.3503,3.3503,3.3269,3.3441,3.4022,3.3952,3.4109,3.4353,3.4353,3.4397,3.4397,3.4397,3.4397,3.4397,3.4397,3.4223,3.4107,3.3831,3.332,3.268,3.2505,3.1994,3.1658,3.1227,3.105,3.0861,3.0647,3.0562,3.0535,3.052,3.0491,3.0477,3.0582,3.0567,3.0521,3.0431,3.0386,3.0341,3.0297,3.0296,3.0356,3.0037,2.9616,2.9314,2.9026,2.8996,2.8848,2.9035,2.9249,2.9701,2.988,2.982,2.9759,2.9744,2.967,2.9332,2.9311,2.9336,2.9251,2.9125,2.8452,2.7764,2.7271,2.6764,2.6314,2.5921,2.5907,2.5851,2.578,2.5836,2.5864,2.5724,2.5542,2.5615,2.5688,2.5578,2.5467,2.5578,2.5757,2.5757,2.5798,2.5961,2.6002,2.5852,2.58,2.5866,2.5481,2.4974,2.5246,2.5702,2.5987,3.6722,3.6707,3.6533,3.5793,3.4762,3.4907,3.5128,3.5363,3.5392,3.5392,3.5392,3.5378,3.5174,3.4748,3.4455,3.4397,3.4339,3.4339,3.4368,3.4353,3.4298,3.4124,3.3952,3.4012,3.4244,3.407,3.4099,3.4373,3.4661,3.4327,3.4254,3.4269,3.424,3.4196,3.4397,3.4397,3.4397,3.4397,3.4397,3.4397,3.4382,3.4107,3.392,3.3342,3.3093,3.2758,3.232,3.1957,3.1781,3.1574,3.1312,3.0936,3.0777,3.0662,3.065,3.0625,3.0627,3.067,3.0785,3.0609,3.0536,3.0417,3.0418,3.0492,3.0552,3.0462,3.0112,2.9822,2.9648,2.9515,2.9323,2.954,2.9641,3.0007,3.0019,2.9973,2.9943,2.9913,2.9866,2.975,2.9759,2.973,2.9566,2.9425,2.8959,2.8201,2.7441,2.6933,2.6511,2.616,2.5907,2.5823,2.5696,2.5779,2.5863,2.5862,2.5861,2.5942,2.5989,2.6002,2.5947,2.6045,2.6058,2.6029,2.6098,2.6192,2.6165,2.6071,2.6214,2.6399,2.6007,2.565,2.5639,2.6124,2.6436,3.5508,3.5363,3.4864,3.4922,3.5389,3.5967,3.5883,3.5566,3.5625,3.5625,3.561,3.5537,3.5479,3.5215,3.4762,3.4486,3.453,3.4455,3.4441,3.453,3.4586,3.4426,3.4617,3.4866,3.5087,3.5305,3.5261,3.5229,3.536,3.4649,3.4358,3.4211,3.4153,3.3995,3.4368,3.4397,3.4397,3.4397,3.4397,3.4397,3.4295,3.3978,3.3763,3.3589,3.3253,3.2975,3.2874,3.2627,3.2466,3.2378,3.2217,3.1869,3.1507,3.1362,3.1161,3.0858,3.0743,3.0946,3.1379,3.0734,3.0588,3.0603,3.0751,3.0766,3.0698,3.0626,3.0653,3.0417,3.0406,3.0331,3.0284,3.0238,3.0177,3.0161,3.0189,3.0157,3.0112,3.0082,3.0036,2.9958,3.0004,3.0004,2.9821,2.9614,2.9283,2.8637,2.7723,2.7159,2.6863,2.6694,2.651,2.6241,2.6142,2.6028,2.6168,2.6168,2.6209,2.6275,2.6388,2.6489,2.649,2.6519,2.6489,2.64,2.6627,2.6925,2.664,2.6314,2.639,2.6478,2.6849,2.6679,2.6568,2.6678,2.7215,3.5636,3.5985,3.5764,3.5778,3.5897,3.5285,3.5357,3.6083,3.6798,3.7012,3.6606,3.6246,3.5981,3.5691,3.4994,3.4632,3.491,3.4499,3.4499,3.5026,3.5041,3.5055,3.5259,3.5607,3.581,3.5639,3.5709,3.6014,3.5996,3.5244,3.507,3.4997,3.4373,3.4223,3.4353,3.4397,3.4397,3.4397,3.4397,3.4397,3.4368,3.4165,3.4051,3.4037,3.3759,3.3643,3.3585,3.3309,3.3151,3.3079,3.2933,3.2482,3.2119,3.1931,3.167,3.1584,3.1569,3.1511,3.1945,3.1824,3.1548,3.1402,3.1402,3.1432,3.1308,3.1221,3.1175,3.1028,3.0828,3.0621,3.0342,3.0433,3.0433,3.0448,3.0432,3.0341,3.0296,3.025,3.0189,3.0082,3.008,3.0096,2.9989,2.9883,2.9608,2.9393,2.8632,2.8037,2.7668,2.7641,2.7527,2.7128,2.6858,2.6588,2.6474,2.6616,2.6657,2.6711,2.6954,2.7198,2.717,2.7139,2.718,2.7235,2.7464,2.7649,2.7333,2.6961,2.6495,2.6472,2.7101,2.7414,2.7244,2.7681,2.851,3.5288,3.5633,3.5648,3.563,3.5587,3.5212,3.5575,3.6475,3.7574,3.7868,3.7288,3.6823,3.6472,3.6036,3.5343,3.4646,3.5041,3.4939,3.4835,3.5421,3.5636,3.568,3.5912,3.6319,3.6446,3.6246,3.6344,3.6591,3.6228,3.6054,3.5404,3.4738,3.475,3.424,3.4066,3.3819,3.4037,3.4022,3.4008,3.4167,3.4281,3.4353,3.4368,3.4353,3.4324,3.4339,3.4266,3.4066,3.3792,3.3647,3.3412,3.3004,3.2774,3.2556,3.2279,3.2322,3.2483,3.2411,3.2716,3.3135,3.28,3.2337,3.2513,3.2279,3.1945,3.1858,3.1811,3.1622,3.1205,3.0956,3.0794,3.0887,3.0655,3.0655,3.0625,3.0535,3.0563,3.0532,3.0501,3.0394,3.0378,3.0334,3.0215,3.0096,2.9918,2.9776,2.9577,2.902,2.848,2.8396,2.8297,2.7911,2.7639,2.7453,2.7267,2.7194,2.7221,2.7163,2.7479,2.7853,2.7923,2.7906,2.7963,2.802,2.8135,2.8163,2.8017,2.77,2.7374,2.7404,2.785,2.7982,2.7854,2.8494,2.935,3.4412,3.4397,3.4428,3.4545,3.469,3.5761,3.6315,3.6428,3.7647,3.7883,3.736,3.7317,3.6936,3.6315,3.5651,3.5084,3.4704,3.5072,3.5319,3.5595,3.597,3.617,3.6591,3.7027,3.7157,3.7273,3.7269,3.7085,3.6417,3.6185,3.5259,3.452,3.5043,3.4387,3.3746,3.3311,3.3574,3.3618,3.3864,3.408,3.431,3.4397,3.4397,3.4397,3.4397,3.4397,3.4353,3.4281,3.4266,3.4266,3.4266,3.3949,3.3705,3.3501,3.3064,3.2904,3.3138,3.3385,3.3545,3.3949,3.3906,3.3311,3.2961,3.27,3.254,3.2527,3.2495,3.2291,3.1931,3.1713,3.1539,3.1177,3.0815,3.08,3.0786,3.0814,3.0872,3.0886,3.0871,3.087,3.0899,3.0824,3.06,3.0436,3.0317,3.0086,2.9943,2.9742,2.9241,2.8956,2.8828,2.8555,2.8369,2.834,2.8181,2.7979,2.7934,2.7933,2.8221,2.8553,2.8581,2.8653,2.8798,2.8827,2.8739,2.8681,2.8623,2.8579,2.8449,2.8566,2.8524,2.8512,2.8369,2.9013,2.9686,3.4397,3.4441,3.4925,3.5113,3.5302,3.646,3.6765,3.6519,3.7636,3.8057,3.7926,3.7473,3.7201,3.6925,3.5897,3.5407,3.5055,3.4983,3.5401,3.5793,3.6272,3.6878,3.7371,3.7738,3.7912,3.7912,3.7854,3.768,3.752,3.6954,3.662,3.6417,3.568,3.4794,3.392,3.3166,3.3342,3.346,3.3777,3.3964,3.4208,3.431,3.4339,3.4382,3.4397,3.4397,3.4397,3.4397,3.4397,3.4397,3.4397,3.4225,3.4196,3.3763,3.3329,3.3356,3.3748,3.4153,3.4167,3.4281,3.4281,3.4138,3.3846,3.3601,3.3369,3.3196,3.3211,3.2977,3.2614,3.2308,3.2061,3.1729,3.1511,3.1496,3.1453,3.1395,3.1482,3.1613,3.1613,3.1584,3.1599,3.1278,3.1054,3.088,3.0732,3.0471,3.0253,3.0123,2.9979,2.9664,2.9463,2.9203,2.9117,2.9103,2.8973,2.8784,2.874,2.8739,2.8971,2.9087,2.9073,2.9189,2.9523,2.9581,2.9421,2.9348,2.9319,2.9247,2.9116,2.8928,2.8857,2.8872,2.903,2.9621,3.0008,3.4397,3.4455,3.482,3.5012,3.5273,3.6649,3.6925,3.6606,3.7632,3.8202,3.8159,3.7839,3.7535,3.7201,3.6522,3.5944,3.5363,3.5433,3.5706,3.6083,3.6501,3.7284,3.7897,3.8014,3.7955,3.8043,3.7984,3.7661,3.7796,3.7564,3.7186,3.6675,3.6159,3.5459,3.4603,3.4053,3.3879,3.3674,3.3572,3.3674,3.3906,3.4124,3.4167,3.4368,3.4397,3.4397,3.4397,3.4397,3.4397,3.4397,3.4397,3.4397,3.4368,3.4022,3.3879,3.392,3.4109,3.4324,3.4339,3.4353,3.4397,3.4397,3.4397,3.4179,3.4008,3.3833,3.385,3.3748,3.3253,3.283,3.2598,3.2395,3.2395,3.2379,3.225,3.2105,3.225,3.2409,3.2424,3.238,3.2148,3.1816,3.1568,3.1395,3.109,3.0666,3.0462,3.0419,3.0375,3.026,3.0116,2.9971,2.9928,2.9885,2.9711,2.9508,2.9435,2.9392,2.945,2.9537,2.9522,2.9711,3.0045,3.0103,3.0031,2.9958,2.9885,2.9784,2.9668,2.9508,2.9465,2.9624,2.9754,2.9985,3.0273,3.4223,3.4223,3.4368,3.4557,3.4835,3.6472,3.6838,3.6475,3.7476,3.8101,3.8144,3.8115,3.7738,3.7317,3.7027,3.6402,3.5912,3.5767,3.5865,3.6315,3.6693,3.7346,3.7665,3.7723,3.7941,3.7926,3.7821,3.7734,3.752,3.7462,3.7273,3.6486,3.6736,3.6272,3.5285,3.4605,3.4315,3.4066,3.3166,3.2687,3.3501,3.3719,3.3806,3.4281,3.4397,3.4397,3.4397,3.4397,3.4397,3.4397,3.4397,3.4397,3.4368,3.4353,3.4324,3.4324,3.4353,3.4368,3.4397,3.4397,3.4397,3.4397,3.4397,3.4339,3.4252,3.4194,3.4196,3.4153,3.3701,3.3558,3.3369,3.2991,3.2861,3.2917,3.2874,3.2904,3.3048,3.3164,3.3164,3.3106,3.2946,3.2569,3.2179,3.199,3.1467,3.0945,3.0582,3.0582,3.0597,3.0597,3.0554,3.0481,3.0379,3.0292,3.0249,3.0089,3.0089,3.0074,3.0001,3.0045,3.0074,3.0307,3.0554,3.0467,3.0321,3.0452,3.0423,3.0263,3.0191,3.0234,3.0263,3.0467,3.0554,3.0481,3.0466,3.2961,3.3062,3.3991,3.4936,3.5819,3.6312,3.646,3.6312,3.6573,3.7317,3.7966,3.7738,3.7506,3.7418,3.7375,3.6852,3.6301,3.5927,3.5956,3.617,3.6577,3.7041,3.7535,3.7767,3.7984,3.8115,3.8043,3.7912,3.7897,3.7897,3.7883,3.756,3.7302,3.6356,3.6141,3.5331,3.4315,3.4385,3.3383,3.2977,3.3891,3.4153,3.431,3.4397,3.4397,3.4397,3.4397,3.4397,3.4397,3.4397,3.4397,3.4397,3.4397,3.4397,3.4397,3.4397,3.4397,3.4397,3.4397,3.4397,3.4397,3.4397,3.4397,3.4397,3.4382,3.4397,3.4368,3.4324,3.4266,3.4182,3.4039,3.3632,3.3356,3.3427,3.3514,3.3674,3.3819,3.3831,3.3846,3.3759,3.3657,3.3296,3.2861,3.2382,3.1874,3.1337,3.0815,3.0597,3.0597,3.0612,3.0597,3.0554,3.0569,3.0525,3.0525,3.0496,3.0394,3.0408,3.035,3.0452,3.0583,3.0598,3.0612,3.0612,3.0583,3.0612,3.0612,3.0569,3.0539,3.0612,3.0612,3.0612,3.0612,3.0554,3.0569,3.2497,3.2627,3.3587,3.4402,3.5111,3.5923,3.6156,3.597,3.6185,3.6693,3.7331,3.7331,3.7433,3.7636,3.7694,3.7346,3.6707,3.6083,3.6112,3.6243,3.6373,3.678,3.7244,3.768,3.7955,3.8101,3.8188,3.8173,3.8202,3.8159,3.8072,3.7777,3.6994,3.6689,3.6736,3.52,3.4445,3.4777,3.3804,3.3846,3.4397,3.4269,3.4237,3.4252,3.4397,3.4412,3.4397,3.4397,3.4397,3.4397,3.4397,3.4397,3.4397,3.4397,3.4397,3.4397,3.4397,3.4397,3.4397,3.4397,3.4397,3.4397,3.4397,3.4397,3.4397,3.4397,3.4397,3.4353,3.4353,3.4298,3.4283,3.3978,3.3949,3.4008,3.4022,3.408,3.4153,3.4165,3.4165,3.4136,3.392,3.3501,3.3066,3.2658,3.2119,3.1568,3.1061,3.0786,3.0728,3.0699,3.067,3.0612,3.0612,3.0612,3.0583,3.0569,3.0554,3.0583,3.0612,3.0598,3.0598,3.0598,3.0612,3.0612,3.0612,3.0612,3.0612,3.0612,3.0612,3.0612,3.0612,3.0612,3.0612,3.0612,3.0612,3.2497,3.2584,3.3138,3.3443,3.375,3.5285,3.5793,3.5537,3.5868,3.6156,3.6399,3.6838,3.7433,3.7912,3.8072,3.7767,3.7331,3.6722,3.6548,3.6301,3.6286,3.6577,3.691,3.7302,3.7723,3.8057,3.8188,3.8202,3.8202,3.8173,3.7941,3.7415,3.7124,3.6925,3.6359,3.5796,3.5378,3.5433,3.5012,3.4632,3.4399,3.4068,3.4211,3.437,3.4486,3.4472,3.4441,3.4397,3.4397,3.4397,3.4397,3.4397,3.4397,3.4397,3.4397,3.4397,3.4397,3.4397,3.4397,3.4397,3.4397,3.4397,3.4397,3.4397,3.4397,3.4397,3.4397,3.4397,3.4397,3.4397,3.4382,3.4368,3.4382,3.4399,3.4385,3.437,3.4382,3.4397,3.4397,3.4397,3.4095,3.3707,3.3414,3.2991,3.2498,3.1916,3.1526,3.1192,3.0989,3.0931,3.0888,3.0728,3.0612,3.0612,3.0612,3.0656,3.067,3.0612,3.0612,3.0612,3.0612,3.0612,3.0612,3.0612,3.0612,3.0612,3.0612,3.0612,3.0612,3.0612,3.0612,3.0612,3.0612,3.0612,3.0612,3.2497,3.2511,3.2656,3.2991,3.3589,3.4443,3.498,3.529,3.4965,3.5282,3.5967,3.5912,3.6348,3.7476,3.7476,3.7506,3.7839,3.7273,3.6704,3.6356,3.6446,3.6457,3.6718,3.7317,3.768,3.7984,3.8202,3.8202,3.8202,3.8173,3.7912,3.7346,3.6704,3.6678,3.6925,3.6348,3.5796,3.597,3.581,3.5331,3.5604,3.527,3.4748,3.4837,3.4925,3.4748,3.4588,3.4412,3.4397,3.4397,3.4397,3.4397,3.4397,3.4397,3.4397,3.4397,3.4397,3.4397,3.4397,3.4397,3.4397,3.4397,3.4397,3.4397,3.4397,3.4397,3.4397,3.4397,3.4397,3.4397,3.4382,3.4382,3.4397,3.4397,3.4382,3.4382,3.4397,3.4397,3.4397,3.4397,3.4295,3.4138,3.408,3.3674,3.3298,3.2788,3.2425,3.2093,3.1496,3.1308,3.1177,3.1018,3.0845,3.0612,3.0612,3.0728,3.0757,3.067,3.0612,3.0612,3.0612,3.0612,3.0612,3.0612,3.0612,3.0612,3.0612,3.0612,3.0612,3.0612,3.0612,3.0612,3.0612,3.0612,3.0612]}]]